[[{"header":{"parameterUnit":"m.s-1","parameterCategory":1,"la1":30.6,"la2":29.2853,"lo1":-89.7004,"lo2":-87.6739,"dy":0.0162,"dx":0.0183,"nx":112,"ny":82,"refTime":"2026-04-17T00:00:00:Z","depth":0,"parameterNumber":2,"parameterNumberName":"U-component_of_WINDS"},"data":[0.0,0.0,0.0,0.0,0.0,0.0,0.0,0.0,0.0,0.0,0.0,0.0,0.0,0.0,0.0,0.0,0.0,0.0,0.0,0.0,0.0,0.0,0.0,0.0,0.0,0.0,0.0,0.0,0.0,0.0,0.0,0.0,0.0,0.0,0.0,0.0,0.0,0.0,0.0,0.0,0.0,0.0,0.0,0.0,0.0,0.0,0.0,0.0,0.0,0.0,0.0,0.0,0.0,0.0,0.0,0.0,0.0,0.0,0.0,0.0,0.0,0.0,0.0,0.0,0.0,0.0,0.0,0.0,0.0,0.0,0.0,0.0,0.0,0.0,0.0,0.0,0.0,0.0,0.0,0.0,0.0,0.0,0.0,0.0,0.0,0.0,0.0,0.0,0.0,0.0,0.6348,0.9612,0.6834,0.4486,0.3794,0.2293,0.1203,0.0813,0.0,0.0,0.0,0.0,0.0,0.0,0.0,0.0,0.0,0.0,0.0,0.0,0.0,0.0,0.0,0.0,0.0,0.0,0.0,0.0,0.0,0.0,0.0,0.0,0.0,0.0,0.0,0.0,0.0,0.0,0.0,0.0,0.0,0.0,0.0,0.0,0.0,0.0,0.0,0.0,0.0,0.0,0.0,0.0,0.0,0.0,0.0,0.0,0.0,0.0,0.0,0.0,0.0,0.0,0.0,0.0,0.0,0.0,0.0,0.0,0.0,0.0,0.0,0.0,0.0,0.0,0.0,0.0,0.0,0.0,0.0,0.0,0.0,0.0,0.0,0.0,0.0,0.0,0.0,0.0,0.0,0.0,0.0,0.0,0.0,0.0,0.0,0.0,0.0,0.0,0.0,0.0,0.0,0.0,0.0,0.0,0.0,0.0,0.0,0.0,0.0,0.0,0.0,0.0,0.5956,0.8202,0.6407,0.4607,0.3556,0.24,0.1324,0.0374,0.0,0.0,0.0,0.0,0.0,0.0,0.0,0.0,0.0,0.0,0.0,0.0,0.0,0.0,0.0,0.0,0.0,0.0,0.0,0.0,0.0,0.0,0.0,0.0,0.0,0.0,0.0,0.0,0.0,0.0,0.0,0.0,0.0,0.0,0.0,0.0,0.0,0.0,0.0,0.0,0.0,0.0,0.0,0.0,0.0,0.0,0.0,0.0,0.0,0.0,0.0,0.0,0.0,0.0,0.0,0.0,0.0,0.0,0.0,0.0,0.0,0.0,0.0,0.0,0.0,0.0,0.0,0.0,0.0,0.0,0.0,0.0,0.0,0.0,0.0,0.0,0.0,0.0,0.0,0.0,0.0,0.0,0.0,0.0,0.0,0.0,0.0,0.0,0.0,0.0,0.0,0.0,0.0,0.0,0.0,0.0,0.0,0.0,0.0,0.0,0.0,0.0,0.0,0.4502,0.6579,0.7311,0.5728,0.4087,0.2796,0.1679,0.0826,0.0338,0.0166,0.0,0.0,0.0,0.0,0.0,0.0,0.0,0.0,0.0,0.0,0.0,0.0,0.0,0.0,0.0,0.0,0.0,0.0,0.0,0.0,0.0,0.0,0.0,0.0,0.0,0.0,0.0,0.0,0.0,0.0,0.0,0.0,0.0,0.0,0.0,0.0,0.0,0.0,0.0,0.0,0.0,0.0,0.0,0.0,0.0,0.0,0.0,0.0,0.0,0.0,0.0,0.0,0.0,0.0,0.0,0.0,0.0,0.0,0.0,0.0,0.0,0.0,0.0,0.0,0.0,0.0,0.0,0.0,0.0,0.0,0.0,0.0,0.0,0.0,0.0,0.0,0.0,0.0,0.0,0.0,0.0,0.0,0.0,0.0,0.0,0.0,0.0,0.0,0.0,0.0,0.0,0.0,0.0,0.0,0.0,0.0,0.0,0.0,0.0,0.0,0.0,0.0,0.6472,0.7119,0.6643,0.5043,0.3439,0.2018,0.0878,0.0202,0.0101,-0.0161,0.0,0.0,0.0,0.0,0.0,0.0,0.0,0.0,0.0,0.0,0.0,0.0,0.0,0.0,0.0,0.0,0.0,0.0,0.0,0.0,0.0,0.0,0.0,0.0,0.0,0.0,0.0,0.0,0.0,0.0,0.0,0.0,0.0,0.0,0.0,0.0,0.0,0.0,0.0,0.0,0.0,0.0,0.0,0.0,0.0,0.0,0.0,0.0,0.0,0.0,0.0,0.0,0.0,0.0,0.0,0.0,0.0,0.0,0.0,0.0,0.0,0.0,0.0,0.0,0.0,0.0,0.0,0.0,0.0,0.0,0.0,0.0,0.0,0.0,0.0,0.0,0.0,0.0,0.0,0.0,0.0,0.0,0.0,0.0,0.0,0.0,0.0,0.0,0.0,0.0,0.0,0.0,0.0,0.0,0.0,0.0,0.0,0.0,0.0,0.0,0.0,0.0,0.6697,0.6961,0.605,0.4463,0.2858,0.1393,0.0383,-0.0337,-0.0788,-0.0713,0.0,0.0,0.0,0.0,0.0,0.0,0.0,0.0,0.0,0.0,0.0,0.0,0.0,0.0,0.0,0.0,0.0,0.0,0.0,0.0,0.0,0.0,0.0,0.0,0.0,0.0,0.0,0.0,0.0,0.0,0.0,0.0,0.0,0.0,0.0,0.0,0.0,0.0,0.0,0.0,0.0,0.0,0.0,0.0,0.0,0.0,0.0,0.0,0.0,0.0,0.0,0.0,0.0,0.0,0.0,0.0,0.0,0.0,0.0,0.0,0.0,0.0,0.0,0.0,0.0,0.0,0.0,0.0,0.0,0.0,0.0,0.0,0.0,0.0,0.0,0.0,0.0,0.0,0.0,0.0,0.0,0.0,0.0,0.0,0.0,0.0,0.0,0.0,0.0,0.0,0.0,0.0,0.0,0.0,0.0,0.0,0.0,0.0,0.0,0.0,0.0,0.0,0.5741,0.5289,0.4432,0.2945,0.1458,0.0022,-0.0236,-0.0497,-0.0876,0.0,0.0,0.0,0.0,0.0,0.0,0.0,0.0,0.0,0.0,0.0,0.0,0.0,0.0,0.0,0.0,0.0,0.0,0.0,0.0,0.0,0.0,0.0,0.0,0.0,0.0,0.0,0.0,0.0,0.0,0.0,0.0,0.0,0.0,0.0,0.0,0.0,0.0,0.0,0.0,0.0,0.0,0.0,0.0,0.0,0.0,0.0,0.0,0.0,0.0,0.0,0.0,0.0,0.0,0.0,0.0,0.0,0.0,0.0,0.0,0.0,0.0,0.0,0.0,0.0,0.0,0.0,0.0,0.0,0.0,0.0,0.0,0.0,0.0,0.0,0.0,0.0,0.0,0.0,0.0,0.0,0.0,0.0,0.0,0.0,0.0,0.0,0.0,0.0,0.0,0.0,0.0,0.0,0.0,0.0,0.0,0.0,0.0,0.0,0.0,0.0,0.0,0.5352,0.5023,0.4145,0.3267,0.1837,0.0446,-0.0798,-0.0737,-0.072,-0.0956,0.0,0.0,0.0,0.0,0.0,0.0,0.0,0.0,0.0,0.0,0.0,0.0,0.0,0.0,0.0,0.0,0.0,0.0,0.0,0.0,0.0,0.0,0.0,0.0,0.0,0.0,0.0,0.0,0.0,0.0,0.0,0.0,0.0,0.0,0.0,0.0,0.0,0.0,0.0,0.0,0.0,0.0,0.0,0.0,0.0,0.0,0.0,0.0,0.0,0.0,0.0,0.0,0.0,0.0,0.0,0.0,0.0,0.0,0.0,0.0,0.0,0.0,0.0,0.0,0.0,0.0,0.0,0.0,0.0,0.0,0.0,0.0,0.0,0.0,0.0,0.0,0.0,0.0,0.0,0.0,0.0,0.0,0.0,0.0,0.0,0.0,0.0,0.0,0.0,0.0,0.0,0.0,0.0,0.0,0.0,0.0,0.0,0.0,0.0,0.0,0.0,0.0,0.5122,0.4765,0.3793,0.2779,0.1296,0.0036,-0.0838,-0.1019,-0.1099,0.0,0.0,0.0,0.0,0.0,0.0,0.0,0.0,0.0,0.0,0.0,0.0,0.0,0.0,0.0,0.0,0.0,0.0,0.0,0.0,0.0,0.0,0.0,0.0,0.0,0.0,0.0,0.0,0.0,0.0,0.0,0.0,0.0,0.0,0.0,0.0,0.0,0.0,0.0,0.0,0.0,0.0,0.0,0.0,0.0,0.0,0.0,0.0,0.0,0.0,0.0,0.0,0.0,0.0,0.0,0.0,0.0,0.0,0.0,0.0,0.0,0.0,0.0,0.0,0.0,0.0,0.0,0.0,0.0,0.0,0.0,0.0,0.0,0.0,0.0,0.0,0.0,0.0,0.0,0.0,0.0,0.0,0.0,0.0,0.0,0.0,0.0,0.0,0.0,0.0,0.0,0.0,0.0,0.0,0.0,0.0,0.0,0.0,0.0,0.0,0.0,0.0,0.0,0.3708,0.3355,0.2406,0.1205,0.0118,-0.0749,-0.1349,-0.1129,-0.0915,-0.082,0.0,0.0,0.0,0.0,0.0,0.0,0.0,0.0,0.0,0.0,0.0,0.0,0.0,0.0,0.0,0.0,0.0,0.0,0.0,0.0,0.0,0.0,0.0,0.0,0.0,0.0,0.0,0.0,0.0,0.0,0.0,0.0,0.0,0.0,0.0,0.0,0.0,0.0,0.0,0.0,0.0,0.0,0.0,0.0,0.0,0.0,0.0,0.0,0.0,0.0,0.0,0.0,0.0,0.0,0.0,0.0,0.0,0.0,0.0,0.0,0.0,0.0,0.0,0.0,0.0,0.0,0.0,0.0,0.0,0.0,0.0,0.0,0.0,0.0,0.0,0.0,0.0,0.0,0.0,0.0,0.0,0.0,0.0,0.0,0.0,0.0,0.0,0.0,0.0,0.0,0.0,0.0,0.0,0.0,0.0,0.0,0.0,0.0,0.0,0.0,0.0,0.0,0.2318,0.2226,0.1597,0.0581,-0.035,-0.1034,-0.1375,-0.1093,-0.0836,-0.0706,0.0,0.0,0.0,0.0,0.0,0.0,0.0,0.0,0.0,0.0,0.0,0.0,0.0,0.0,0.0,0.0,0.0,0.0,0.0,0.0,0.0,0.0,0.0,0.0,0.0,0.0,0.0,0.0,0.0,0.0,0.0,0.0,0.0,0.0,0.0,0.0,0.0,0.0,0.0,0.0,0.0,0.0,0.0,0.0,0.0,0.0,0.0,0.0,0.0,0.0,0.0,0.0,0.0,0.0,0.0,0.0,0.0,0.0,0.0,0.0,0.0,0.0,0.0,0.0,0.0,0.0,0.0,0.0,0.0,0.0,0.0,0.0,0.0,0.0,0.0,0.0,0.0,0.0,0.0,0.0,0.0,0.0,0.0,0.0,0.0,0.0,0.0,0.0,0.0,0.0,0.0,0.0,0.0,0.0,0.0,0.0,0.0,0.0,0.0,0.0,0.0,0.0,0.1042,0.1295,0.1135,0.0511,-0.0384,-0.0993,-0.1113,-0.0995,-0.0841,-0.0659,0.0,0.0,0.0,0.0,0.0,0.0,0.0,0.0,0.0,0.0,0.0,0.0,0.0,0.0,0.0,0.0,0.0,0.0,0.0,0.0,0.0,0.0,0.0,0.0,0.0,0.0,0.0,0.0,0.0,0.0,0.0,0.0,0.0,0.0,0.0,0.0,0.0,0.0,0.0,0.0,0.0,0.0,0.0,0.0,0.0,0.0,0.0,0.0,0.0,0.0,0.0,0.0,0.0,0.0,0.0,0.0,0.0,0.0,0.0,0.0,-0.3748,-0.3426,0.0,0.0,0.0,0.0,0.0,0.0,0.0,0.0,0.0,0.0,0.0,0.0,0.0,0.0,0.0,0.0,0.0,0.0,0.0,0.0,0.0,0.0,0.0,0.0,0.0,0.0,0.0,0.0,0.0,0.0,0.0,0.0,0.0,0.0,0.0,0.0,0.0,0.0,0.0,0.0,0.0226,0.0432,0.0164,-0.0654,-0.1025,-0.1224,-0.1247,-0.1134,-0.0841,-0.0333,-0.0367,0.0,0.0,0.0,0.0,0.0,0.0,0.0,0.0,0.0,0.0,0.0,0.0,0.0,0.0,0.0,0.0,0.0,0.0,0.0,0.0,0.0,0.0,0.0,0.0,0.0,0.0,0.0,0.0,0.0,0.0,0.0,0.0,0.0,0.0,0.0,0.0,0.0,0.0,0.0,0.0,0.0,0.0,0.0,0.0,0.0,0.0,0.0,0.0,0.0,0.0,0.0,0.0,0.0,0.0,0.0,0.0,0.0,0.0,0.0,-0.5298,-0.4616,0.0,0.0,0.0,0.0,0.0,0.0,0.0,0.0,0.0,0.0,0.0,0.0,0.0,0.0,0.0,0.0,0.0,0.0,0.0,0.0,0.0,0.0,0.0,0.0,0.0,0.0,0.0,0.0,0.0,0.0,0.0,0.0,0.0,0.0,0.0,0.0,0.0,0.0,0.0,0.0,-0.186,-0.1026,-0.0627,-0.1142,-0.1319,-0.14,-0.1394,-0.1275,-0.1009,-0.0564,-0.0454,0.0,0.0,0.0,0.0,0.0,0.0,0.0,0.0,0.0,0.0,0.0,0.0,0.0,0.0,0.0,0.0,0.0,0.0,0.0,0.0,0.0,0.0,0.0,0.0,0.0,0.0,0.0,0.0,0.0,0.0,0.0,0.0,0.0,0.0,0.0,0.0,0.0,0.0,0.0,0.0,0.0,0.0,0.0,0.0,0.0,0.0,0.0,0.0,0.0,0.0,0.0,0.0,0.0,-0.8562,-0.8759,-0.9069,-0.8539,-0.8691,-0.9289,-0.7413,-0.6421,-0.6122,-0.5477,0.0,0.0,0.0,0.0,0.0,0.0,0.0,0.0,0.0,0.0,0.0,0.0,0.0,0.0,0.0,0.0,0.0,0.0,0.0,0.0,0.0,0.0,-0.2074,-0.1504,-0.125,-0.1133,-0.1129,0.0,0.0,0.0,0.0,0.0,0.0,0.0,0.0,0.0,0.0,0.0,-0.3679,-0.2273,-0.1248,-0.1362,-0.1501,-0.156,-0.1507,-0.1378,-0.1199,-0.0951,-0.0627,-0.0341,0.0,0.0,0.0,0.0,0.0,0.0,0.0,0.0,0.0,0.0,0.0,0.0,0.0,0.0,0.0,0.0,0.0,0.0,0.0,0.0,0.0,0.0,0.0,0.0,0.0,0.0,0.0,0.0,0.0,0.0,0.0,0.0,-0.6584,-0.6454,0.0,0.0,0.0,0.0,0.0,0.0,0.0,0.0,0.0,0.0,0.0,0.0,0.0,-0.9315,-1.0033,-0.9954,-0.9952,-1.003,-1.003,-0.9961,-0.9868,-1.0112,-1.0208,-1.0138,-0.9837,0.0,-0.7595,-0.7094,0.0,0.0,0.0,0.0,0.0,0.0,0.0,0.0,0.0,0.0,0.0,0.0,0.0,0.0,0.0,0.0,0.0,0.0,0.0,0.0,0.0,0.0,-0.301,-0.2522,-0.2208,-0.2028,-0.202,-0.1338,-0.0634,-0.0353,-0.0641,-0.1204,0.0,0.0,0.0,0.0,0.0,0.0,-0.2997,-0.2168,-0.1628,-0.1643,-0.1816,-0.1816,-0.1528,-0.1378,-0.1236,-0.1086,-0.0812,-0.0566,-0.035,-0.031,0.0,0.0,0.0,0.0,0.0,0.0,0.0,0.0,0.0,0.0,0.0,0.0,0.0,0.0,0.0,0.0,0.0,0.0,0.0,0.0,0.0,0.0,0.0,0.0,0.0,0.0,0.0,0.0,0.0,-0.6927,-0.7382,-0.7185,-0.7576,-0.7692,0.0,0.0,0.0,0.0,0.0,0.0,0.0,0.0,0.0,-0.966,-1.0508,-1.1171,-1.1561,-1.2337,-1.2723,-1.2723,-1.3108,-1.3223,-1.3153,-1.3481,-1.3261,-1.2606,-1.2757,-1.1811,-1.0067,-0.8999,-0.8346,-0.7999,0.0,0.0,0.0,0.0,-0.7078,-0.6933,-0.6372,-0.6185,-0.6162,-0.6053,0.0,0.0,0.0,0.0,0.0,0.0,0.0,-0.5118,-0.4641,-0.4275,-0.3893,-0.3402,-0.3068,-0.2814,-0.2578,-0.2075,-0.1481,-0.093,-0.0797,-0.1037,-0.1823,-0.2343,0.0,0.0,0.0,-0.327,-0.3449,-0.2736,-0.2124,-0.1889,-0.2012,-0.1992,-0.1698,-0.1619,-0.1513,-0.1335,-0.1147,-0.0958,-0.0802,-0.0652,-0.0509,0.0,0.0,0.0,0.0,0.0,0.0,0.0,0.0,0.0,0.0,0.0,0.0,0.0,0.0,0.0,0.0,0.0,0.0,0.0,0.0,0.0,0.0,0.0,0.0,0.0,0.0,0.0,0.0,-0.7885,-0.818,-0.7841,-0.8357,-0.8596,0.0,0.0,0.0,0.0,0.0,0.0,-1.0736,-1.0943,-1.1292,-1.1827,-1.2489,-1.3005,-1.3313,-1.4477,-1.5052,-1.507,-1.5575,-1.58,-1.5818,-1.6011,-1.5661,-1.4917,-1.512,-1.4346,-1.279,-1.0898,-0.9905,-0.9548,-0.9441,-0.9361,-0.9255,-0.8786,-0.85,-0.8317,-0.7908,-0.7687,-0.7597,-0.7405,-0.7461,-0.7457,-0.6639,0.0,0.0,0.0,0.0,-0.6514,-0.6147,-0.5778,-0.5343,-0.472,-0.4297,-0.3912,-0.3403,-0.3014,-0.2534,-0.1652,-0.1264,-0.1308,-0.2007,-0.2358,0.0,-0.4311,-0.3924,-0.3628,-0.4004,-0.3288,-0.2619,-0.2292,-0.2222,-0.2104,-0.1875,-0.1771,-0.1677,-0.1581,-0.1405,-0.1266,-0.1205,-0.098,-0.0871,-0.0904,0.0,0.0,0.0,0.0,0.0,0.0,0.0,0.0,0.0,0.0,0.0,0.0,0.0,0.0,0.0,0.0,0.0,0.0,0.0,0.0,0.0,0.0,0.0,0.0,0.0,0.0,0.0,0.0,0.0,-0.844,-0.9613,0.0,0.0,0.0,0.0,-1.1071,-1.1097,-1.1451,-1.2255,-1.2304,-1.2964,-1.4382,-1.4698,-1.5164,-1.5801,-1.6161,-1.6298,-1.6298,-1.6333,-1.6351,-1.6351,-1.6385,-1.6349,-1.6298,-1.6298,-1.6111,-1.5575,-1.269,-1.1107,-1.0495,-1.0104,-0.9918,-0.9793,-0.9321,-0.9041,-0.8826,-0.8536,-0.8245,-0.8088,-0.8844,-0.9034,-0.8945,-0.8646,-0.8544,0.0,0.0,-0.8517,-0.8598,-0.8034,-0.7888,-0.7715,-0.686,-0.6249,-0.5643,-0.4785,-0.4207,-0.3463,-0.2197,-0.2052,-0.2377,-0.318,0.0,-0.4388,-0.4723,-0.495,-0.4873,-0.4264,-0.3592,-0.3121,-0.2965,-0.2501,-0.2144,-0.201,-0.1698,-0.1592,-0.1771,-0.148,-0.1356,-0.1475,-0.134,-0.1156,-0.0904,-0.0882,0.0,0.0,0.0,0.0,0.0,0.0,0.0,0.0,0.0,0.0,0.0,0.0,0.0,0.0,0.0,0.0,0.0,0.0,0.0,0.0,0.0,0.0,0.0,0.0,0.0,0.0,0.0,0.0,-0.9966,-1.1033,0.0,-1.1486,-1.23,-1.2988,-1.3361,-1.3552,-1.4,-1.4796,-1.5017,-1.5438,-1.6198,-1.6801,-1.7296,-1.7675,-1.8271,-1.8594,-1.8594,-1.8594,-1.8594,-1.8594,-1.8495,-1.818,-1.7665,-1.7541,-1.7083,-1.6304,-1.5243,-1.4314,-1.3561,-1.3399,-1.2799,-1.1989,-1.1851,-1.1275,-1.0618,-1.0526,-1.0328,-1.0079,-0.9809,-0.9468,-0.9151,-0.9055,-0.9026,-0.9006,-0.8933,-0.9006,-0.9046,-0.8819,-0.8786,-0.8685,-0.8246,-0.7711,-0.7054,-0.6233,-0.5603,-0.4938,-0.4154,-0.3363,-0.3013,-0.3512,-0.3673,-0.3892,-0.4297,-0.4366,-0.4279,-0.4037,-0.3646,-0.3327,-0.3148,-0.2728,-0.2363,-0.2152,-0.1946,-0.1855,-0.1927,-0.1729,-0.1677,-0.1823,-0.1571,-0.1378,-0.1287,-0.1114,-0.0918,0.0,0.0,0.0,0.0,0.0,0.0,0.0,0.0,0.0,0.0,0.0,0.0,0.0,0.0,0.0,0.0,0.0,0.0,0.0,0.0,0.0,0.0,0.0,0.0,0.0,-1.0794,-1.1259,-1.1909,-1.3037,-1.3678,-1.3461,-1.4268,-1.4962,-1.5347,-1.5598,-1.6085,-1.6896,-1.7156,-1.7628,-1.8422,-1.8974,-1.9406,-1.975,-2.0283,-2.0527,-2.0479,-2.0479,-2.0479,-2.0447,-2.0094,-1.961,-1.9091,-1.8687,-1.813,-1.7515,-1.7515,-1.7094,-1.6413,-1.5839,-1.5009,-1.4132,-1.4132,-1.3642,-1.2925,-1.2712,-1.2499,-1.2171,-1.1249,-1.0706,-1.0392,-1.0234,-1.0117,-1.0057,-1.0156,-1.0131,-1.0066,-1.0051,-1.0066,-0.9962,-0.9548,-0.9082,-0.8508,-0.7681,-0.712,-0.6677,-0.6312,-0.4953,-0.3874,-0.4011,-0.4,-0.4038,-0.4266,-0.4303,-0.4297,-0.4297,-0.4027,-0.3776,-0.3657,-0.3236,-0.2834,-0.2498,-0.249,-0.2381,-0.2089,-0.2063,-0.2067,-0.2071,-0.1855,-0.1683,-0.1571,-0.1258,-0.1079,-0.1027,0.0,0.0,0.0,0.0,0.0,0.0,0.0,0.0,0.0,0.0,0.0,0.0,0.0,0.0,0.0,0.0,0.0,0.0,0.0,0.0,0.0,0.0,0.0,-1.1605,-1.2988,-1.4078,-1.4181,-1.552,-1.6228,-1.5633,-1.6276,-1.6795,-1.7005,-1.7219,-1.7683,-1.8466,-1.8648,-1.9454,-2.1103,-2.1147,-2.1418,-2.2021,-2.2006,-2.1937,-2.182,-2.182,-2.182,-2.1783,-2.0923,-2.0556,-2.0501,-1.9711,-1.9344,-1.9326,-1.9326,-1.92,-1.8839,-1.7144,-1.6303,-1.6046,-1.6046,-1.5853,-1.5528,-1.4928,-1.4533,-1.4186,-1.3183,-1.2864,-1.278,-1.2324,-1.1999,-1.1852,-1.2102,-1.2045,-1.1869,-1.1788,-1.1803,-1.1625,-1.0778,-1.0411,-1.0017,-0.9158,-0.8772,-0.8556,-0.8543,-0.6774,-0.5165,-0.4845,-0.5001,-0.5088,-0.4785,-0.4962,0.0,-0.5127,-0.4775,-0.4521,-0.4521,-0.4031,-0.3522,-0.3074,-0.3304,-0.3125,-0.2283,-0.245,-0.2471,-0.2211,-0.2198,-0.2037,-0.1708,-0.1314,-0.1057,-0.0915,0.0,0.0,0.0,0.0,0.0,0.0,0.0,0.0,0.0,0.0,0.0,0.0,0.0,0.0,0.0,0.0,0.0,0.0,0.0,0.0,0.0,-1.2731,-1.3684,-1.3489,-1.4266,-1.5135,-1.5829,-1.6802,-1.7421,-1.7398,-1.8624,-1.9447,-1.9512,-2.0144,-2.0662,-2.1001,-2.1045,-2.1398,-2.208,-2.196,-2.2048,-2.2362,-2.2222,-2.2126,-2.2088,-2.2088,-2.2088,-2.2073,-2.1733,-2.1578,-2.1578,-2.1246,-2.0739,-2.017,-2.017,-1.9711,-1.8948,-1.8481,-1.7806,-1.7099,-1.7099,-1.6589,-1.585,-1.5482,-1.518,-1.4881,-1.4393,-1.4263,-1.4231,-1.4084,-1.4137,-1.421,-1.4106,-1.3873,-1.3587,-1.3234,-1.2868,-1.2498,-1.2109,-1.1774,-1.1414,-1.0765,-1.0394,-1.0059,-0.9662,-0.9089,-0.8249,-0.6963,-0.6782,-0.6599,-0.5893,-0.5848,-0.5841,-0.5697,-0.5254,-0.494,-0.494,-0.437,-0.39,-0.3671,-0.3329,-0.3026,-0.279,-0.248,-0.2272,-0.2203,-0.2105,-0.1961,-0.1771,-0.1659,-0.1475,0.0,0.0,0.0,0.0,0.0,0.0,0.0,0.0,0.0,0.0,0.0,0.0,0.0,0.0,0.0,0.0,0.0,0.0,0.0,0.0,0.0,0.0,-1.4563,-1.5581,-1.58,-1.6182,-1.6729,-1.7639,-1.8146,-1.8596,-1.9054,-1.9953,-2.0649,-2.1015,-2.1576,-2.1916,-2.2009,-2.2047,-2.2342,-2.2905,-2.2803,-2.2932,-2.3332,-2.322,-2.3135,-2.3042,-2.3042,-2.3042,-2.3007,-2.2613,-2.2417,-2.2399,-2.1984,-2.151,-2.1051,-2.1051,-2.0623,-1.9921,0.0,0.0,0.0,0.0,-1.7684,-1.7079,-1.6915,-1.6621,-1.6208,-1.5747,-1.5605,-1.5539,-1.5221,-1.5168,-1.5193,-1.5143,-1.4857,-1.4449,-1.3998,-1.3547,-1.3122,-1.2694,-1.2443,-1.2219,-1.1901,-1.1697,-1.1461,-1.1161,-1.11,0.0,-0.9435,-0.8669,-0.7888,-0.6901,-0.6754,-0.6608,-0.6207,-0.588,-0.565,-0.5569,-0.5219,-0.4798,-0.4356,-0.4152,0.0,0.0,0.0,-0.2669,-0.2296,-0.2153,0.0,0.0,0.0,0.0,0.0,-0.1459,0.0,0.0,-0.0659,-0.0446,0.0,0.0,0.0,0.0,0.0,0.0,0.0,0.0,0.0,0.0,0.0,0.0,0.0,0.0,0.0,0.0,-1.6591,-1.744,-1.8262,-1.8463,-1.8702,-1.9234,-1.9381,-1.9711,-2.0429,-2.0668,-2.1106,-2.1877,-2.2122,-2.2256,-2.2256,-2.2353,0.0,0.0,0.0,-2.3873,-2.4476,-2.4478,-2.4375,-2.419,-2.419,-2.419,-2.4171,-2.3474,-2.3144,-2.3107,-2.2373,-2.2023,-2.195,-2.195,-2.1717,-2.1222,-1.9858,-1.9036,-1.8623,-1.8878,-1.8789,-1.8547,-1.8547,0.0,0.0,-1.7033,-1.6834,-1.6716,-1.6052,-1.5711,-1.5571,-1.5792,-1.5487,-1.4988,-1.4523,-1.4103,-1.365,-1.298,-1.2751,-1.2687,-1.2687,-1.2668,-1.2649,-1.2649,-1.263,-1.2383,-1.1775,-1.0416,-0.9025,-0.7841,-0.7632,-0.7364,-0.6659,-0.6562,-0.6477,-0.6294,-0.6224,0.0,-0.5106,-0.5308,-0.4888,-0.3515,-0.3626,-0.3377,-0.2609,-0.2432,-0.243,-0.2592,-0.2157,-0.1954,-0.1999,-0.1733,-0.1471,-0.1217,-0.0883,-0.0568,0.0,0.0,0.0,0.0,0.0,0.0,0.0,0.0,0.0,0.0,0.0,0.0,0.0,0.0,0.0,-1.6492,-1.7894,-1.9124,-1.9916,-2.0647,-2.0629,-1.9436,-1.9877,-2.0319,-2.0484,-2.1713,-2.2593,-2.2758,-2.3401,-2.3768,-2.3768,-2.3805,-2.3967,-2.4302,-2.4152,-2.419,-2.4495,-2.4358,-2.4247,-2.419,-2.419,0.0,-2.419,-2.4043,-2.3969,-2.3951,-2.3804,-2.3364,-2.2776,-2.2776,-2.2337,-2.1552,-2.017,-1.9193,-1.8622,-1.8659,-1.8508,-1.827,-1.827,-1.8078,-1.7794,-1.7642,-1.7591,-1.7557,-1.7422,-1.7501,0.0,-1.7415,-1.7127,-1.6789,-1.6313,-1.5397,-1.4518,-1.4219,-1.3679,-1.3243,-1.3243,-1.3085,-1.2924,-1.2924,-1.2759,-1.2485,-1.214,-1.1385,-1.0312,-0.885,-0.8453,-0.8002,-0.7182,-0.6924,-0.6809,-0.6772,-0.6433,-0.6136,-0.596,-0.5512,-0.5132,-0.4827,-0.4256,-0.3865,-0.3705,-0.3406,-0.3035,-0.2604,-0.2714,-0.2519,-0.1999,-0.2147,-0.2153,-0.1966,-0.1206,-0.0827,0.0,0.0,0.0,0.0,0.0,0.0,0.0,0.0,0.0,0.0,0.0,-1.4548,-1.5235,0.0,-1.8221,-1.9185,-2.0023,-2.0684,-2.1088,-2.1528,-2.149,-2.0664,-2.0904,-2.1308,-2.1695,-2.2502,-2.318,-2.3566,-2.3969,-2.419,-2.419,-2.419,-2.4247,-2.4358,-2.4266,-2.4247,-2.4339,-2.4266,-2.419,-2.419,-2.419,-2.419,-2.419,-2.419,-2.419,-2.419,-2.419,-2.3969,-2.3584,-2.3236,-2.2646,-2.1848,-2.0823,-2.0254,-1.9912,-1.9612,-1.9177,-1.8741,-1.8741,-1.8344,-1.7811,-1.7811,-1.7811,-1.7811,-1.7811,-1.7883,-1.7971,-1.7856,-1.7697,-1.7469,-1.6863,-1.6237,-1.5543,-1.47,-1.4225,-1.3853,-1.3481,-1.3278,-1.3191,-1.3191,-1.3086,-1.2908,-1.2646,-1.2209,-1.1424,-1.0076,-0.9475,-0.8926,-0.8141,-0.7671,-0.7363,-0.7254,-0.7034,-0.6805,-0.6558,-0.584,-0.5348,-0.5206,-0.4628,-0.4267,-0.4198,-0.39,-0.3574,-0.3206,-0.3235,-0.308,-0.2741,-0.2878,-0.2914,-0.2844,-0.2305,-0.1877,0.0,0.0,0.0,0.0,0.0,0.0,0.0,0.0,-1.3169,-1.3694,-1.5343,-1.7044,-1.8161,-1.9588,-2.086,-2.1658,-2.1914,-2.2024,-2.2024,-2.2152,-2.228,-2.228,-2.2116,-2.2281,-2.2942,-2.3144,-2.3511,-2.4153,-2.419,-2.419,-2.419,-2.419,-2.419,-2.419,-2.4043,-2.3969,-2.3969,-2.3969,-2.3896,-2.3731,-2.4043,-2.4116,-2.3969,-2.4135,-2.417,-2.4094,-2.4036,-2.3996,-2.3958,-2.3414,-2.2858,-2.2263,-2.1695,-2.152,-2.1483,-2.0634,-1.9958,-1.9447,-1.9447,-1.8893,-1.8234,-1.8234,-1.8132,-1.8014,-1.8014,-1.7912,-1.7811,-1.7811,-1.7811,-1.7659,-1.7067,-1.6775,-1.6328,-1.5187,-1.4624,-1.4199,-1.3717,-1.343,-1.3243,-1.3243,-1.3208,-1.3069,-1.2797,-1.2591,-1.2101,-1.1046,-1.0421,-0.9785,-0.901,-0.8439,-0.7975,-0.7694,-0.7635,-0.7424,-0.7002,-0.631,-0.5805,-0.5536,-0.519,-0.4911,-0.4755,-0.4451,-0.42,-0.398,-0.3821,-0.3682,-0.358,-0.3634,-0.3653,-0.3653,-0.349,-0.3058,-1.2381,-1.1705,-1.1593,-1.3052,-1.2962,-1.3022,0.0,0.0,-1.5312,-1.677,-1.7995,-1.9016,-1.9864,-2.0913,-2.1658,-2.1767,-2.2391,-2.2868,-2.2868,-2.3474,-2.3933,-2.3933,-2.3309,-2.2905,-2.2997,-2.3657,-2.4098,-2.419,-2.419,-2.419,-2.419,-2.419,-2.419,-2.419,-2.3511,-2.3144,-2.3144,-2.3144,-2.2776,-2.2097,-2.3511,-2.3823,-2.3162,-2.3878,-2.4054,-2.3735,-2.3437,-2.3323,-2.3323,-2.3212,-2.3136,-2.3041,-2.2675,-2.2547,-2.233,-2.0662,-1.9984,-1.9916,-1.9916,-1.9841,-1.9748,-1.9748,-1.9316,-1.8775,-1.8775,-1.8318,-1.7811,-1.7811,-1.7811,-1.7794,-1.771,-1.6987,-1.6282,-1.6412,-1.5052,-1.3836,-1.4284,-1.3495,-1.2687,-1.2687,-1.251,-1.2251,-1.1982,-1.1918,-1.1733,-1.1227,-1.0898,-1.0264,-0.9055,-0.883,-0.8544,-0.793,-0.7709,-0.7485,-0.7193,-0.7078,-0.6924,-0.672,-0.6494,-0.6261,-0.6006,-0.557,-0.5092,-0.4619,-0.4576,-0.4335,-0.3861,-0.4099,-0.421,-0.421,-0.419,-0.3881,-1.5139,-1.4227,-1.3617,-1.4937,-1.5444,-1.589,-1.6826,-1.7606,-1.8335,-1.912,-2.0281,-2.1279,-2.1771,-2.2612,-2.3199,0.0,-2.3474,-2.3694,-2.3694,-2.3988,-2.4025,-2.3566,-2.3621,-2.3694,-2.3694,-2.4006,-2.419,-2.419,-2.419,-2.419,-2.419,-2.3768,-2.3618,-2.3899,-2.3325,-2.2923,-2.2696,-2.338,-2.329,-2.252,-2.3657,-2.4025,-2.3712,-2.4043,-2.4016,-2.3692,-2.3544,-2.3392,-2.3189,-2.2996,-2.2923,-2.2873,-2.259,-2.2463,-2.2395,-2.1637,-2.1075,-2.0703,-2.0703,-2.0399,-2.0002,-2.0002,-1.9782,-1.9419,-1.8793,-1.8385,-1.8028,-1.7379,-1.7361,-1.7502,-1.7502,-1.7332,-1.7065,-1.6758,-1.6043,-1.5234,-1.4626,-1.3968,-1.3342,-1.2915,-1.2626,-1.2352,-1.2066,-1.2024,-1.1932,-1.1602,-1.1117,-1.0603,-1.0069,-0.9353,-0.8649,-0.7974,-0.7827,-0.762,-0.7241,-0.7195,-0.705,-0.674,-0.6655,-0.654,-0.6436,-0.6088,-0.5805,-0.558,-0.5301,-0.5058,-0.4826,-0.479,-0.4765,-0.4765,-0.4765,-0.465,-1.6454,-1.5871,-1.552,-1.6709,-1.7764,-1.8544,-1.8761,-1.9686,-2.0608,-2.097,-2.186,-2.2691,-2.3122,-2.3729,-2.417,-2.4074,-2.4151,-2.417,-2.4074,-2.4151,-2.3988,-2.34,-2.3859,-2.417,-2.4074,-2.4151,-2.417,-2.4074,-2.4074,-2.4016,-2.3917,-2.3371,-2.3216,-2.3548,-2.3014,-2.2616,-2.2357,-2.318,-2.3189,-2.2406,-2.3426,-2.3808,-2.3608,-2.3726,-2.3649,-2.3414,-2.3341,-2.3177,-2.2933,-2.2704,-2.2599,-2.2563,-2.2388,-2.231,-2.231,-2.231,-2.1955,-2.1498,-2.1498,-2.1126,-2.06,-2.0488,-2.03,-1.9963,-1.9088,-1.8539,-1.8062,-1.7299,-1.7113,-1.7175,-1.7175,-1.7272,-1.7276,-1.6836,-1.6447,-1.5929,-1.5047,-1.4324,-1.3686,-1.3164,-1.2755,-1.2396,-1.2128,-1.2086,-1.2024,-1.1826,-1.1401,-1.1007,-1.0812,-0.9698,-0.871,-0.8229,-0.8004,-0.7739,-0.7348,-0.7303,-0.7128,-0.6706,-0.6685,-0.6668,-0.6599,-0.6336,-0.6189,-0.6189,-0.5808,-0.5614,-0.5614,-0.5349,-0.5214,-0.5214,-0.5127,-0.5108,-1.5003,-1.5454,-1.6466,-1.8124,-1.938,-2.0409,-2.1115,-2.1276,-2.149,-2.2283,-2.2463,-2.2733,-2.3533,-2.3958,-2.4094,-2.3774,-2.3996,-2.4094,-2.3774,-2.3996,-2.419,-2.4171,-2.419,-2.4074,-2.3753,-2.4016,-2.4074,-2.3735,-2.3714,-2.3566,-2.3236,-2.3218,-2.3194,-2.3212,-2.2445,-2.2033,-2.2011,-2.2051,-2.1662,-2.0898,-2.2463,-2.2822,-2.2086,-2.2541,-2.2746,-2.2721,-2.2453,-2.2338,-2.2338,-2.231,-2.231,-2.231,-2.231,-2.231,-2.231,-2.231,-2.2293,-2.2276,-2.2276,-2.226,-2.2141,-2.1698,-2.1068,-2.0406,-1.9963,-1.8901,-1.78,-1.7784,-1.7316,-1.6815,-1.6815,-1.6581,-1.6421,-1.6732,-1.5811,-1.4993,-1.555,-1.4373,-1.3233,-1.3202,-1.2675,-1.2143,-1.1869,-1.1826,-1.1805,-1.1805,-1.1775,-1.1536,-1.0872,-0.9698,-0.889,-0.8875,-0.8274,-0.7827,-0.7605,-0.7575,-0.7392,-0.6911,-0.6891,-0.6807,-0.6616,-0.6336,-0.6189,-0.6189,-0.5998,-0.5893,-0.5893,-0.5614,-0.5492,-0.5492,-0.5233,-0.5108,-1.7538,-1.8,-1.8537,-1.9759,-2.0752,-2.1476,-2.1743,-2.2189,-2.2491,-2.2282,-2.2228,-2.2161,-2.1935,-2.2576,-2.3095,-2.2996,-2.3649,-2.4074,-2.3753,-2.3795,-2.3575,-2.2844,-2.3407,0.0,0.0,-2.3567,-2.4074,-2.3732,-2.3917,-2.3896,-2.3544,-2.3038,-2.2874,-2.3194,-2.2422,-2.2011,-2.2011,-2.2749,-2.2712,-2.1938,-2.302,-2.3271,-2.2794,-2.2946,-2.2923,-2.2695,-2.2599,-2.2463,-2.231,-2.231,-2.231,-2.231,-2.231,-2.231,-2.231,-2.231,-2.231,-2.231,-2.231,-2.231,-2.2265,-2.2106,-2.1703,-2.1062,-2.0217,-1.9132,-1.8046,-1.7285,-1.6784,-1.6474,-1.6474,-1.6554,-1.6659,-1.6763,-1.6459,-1.6056,-1.5758,-1.5128,-1.4333,-1.3381,-1.287,-1.2426,-1.1901,-1.1805,-1.1805,-1.1805,-1.1805,-1.1565,-1.0887,-1.0084,-0.9314,-0.8704,-0.8075,-0.7545,-0.7171,-0.7139,-0.7009,-0.6706,-0.6689,-0.6668,-0.6599,-0.6517,-0.6453,-0.6453,-0.623,-0.6094,-0.6094,-0.5697,-0.5492,-0.5492,-0.5233,-0.5108,-1.8767,-1.9435,-1.9951,-2.0858,-2.1766,-2.244,-2.244,-2.2529,-2.25,-2.2007,-2.1713,-2.1379,-2.0907,-2.1563,-2.2233,-2.2383,-2.3171,-2.3745,-2.3699,-2.3692,-2.343,-2.2692,-2.3151,-2.3195,0.0,-2.3235,-2.3692,-2.3369,-2.3649,-2.3649,-2.32,-2.2717,-2.2564,-2.2865,-2.2362,-2.2118,-2.2118,-2.2834,-2.2947,-2.2429,-2.2947,-2.308,-2.2883,-2.2883,-2.2755,-2.2563,-2.2563,-2.2463,-2.231,-2.231,-2.231,-2.231,-2.231,-2.231,-2.231,-2.231,-2.231,-2.231,-2.231,-2.231,-2.2282,-2.2106,-2.1735,-2.1225,-2.0353,-1.9374,-1.8312,-1.7344,-1.6759,-1.6386,-1.6185,-1.6274,-1.6448,-1.6448,-1.6448,-1.6296,-1.5832,-1.5423,-1.4852,-1.3955,-1.3249,-1.2666,-1.2224,-1.1954,-1.1805,-1.1805,-1.1805,-1.164,-1.1201,-1.0428,-0.9672,-0.9072,-0.8157,-0.7438,-0.7045,-0.6944,-0.6807,-0.6616,-0.6599,-0.6599,-0.6599,-0.6599,-0.6599,-0.6599,-0.6436,-0.6336,-0.6336,-0.5943,-0.5715,-0.5633,-0.5368,-0.5195,-1.8826,-1.9778,-2.0755,-2.1465,-2.2398,-2.3141,-2.3106,-2.231,-2.1552,-2.143,-2.0841,-2.0339,-2.0252,-2.0791,-2.1414,-2.1914,-2.2524,-2.3122,-2.3605,-2.3671,-2.3649,0.0,0.0,0.0,0.0,0.0,-2.3069,-2.2695,-2.2996,-2.2958,-2.2377,-2.2338,-2.2321,-2.2321,-2.231,-2.231,-2.2338,-2.2321,-2.2321,-2.2321,-2.2321,-2.2293,-2.231,-2.231,-2.231,-2.231,-2.231,-2.231,-2.231,-2.231,-2.231,-2.231,-2.231,-2.231,-2.231,-2.231,-2.231,-2.231,-2.231,-2.231,-2.2237,-2.1794,-2.1368,-2.0926,-2.0483,-1.9596,-1.8602,-1.7909,-1.7219,-1.6562,-1.5978,-1.5799,-1.5799,-1.5799,-1.5799,-1.5799,-1.5799,-1.5304,-1.4827,-1.4797,-1.373,-1.2801,-1.2801,-1.2239,-1.1805,-1.1805,-1.1805,-1.1805,-1.1805,-1.0693,-0.9931,-0.9898,-0.8528,-0.7511,-0.7235,-0.7009,-0.6807,-0.6616,-0.6599,-0.6599,-0.6599,-0.6599,-0.6599,-0.6599,-0.6599,-0.6599,-0.6599,-0.6336,-0.6094,-0.5893,-0.5614,-0.5349,-2.0399,-2.1223,-2.1905,-2.2075,-2.2317,-2.238,-2.1841,-2.149,-2.0824,-1.9137,-1.8626,-1.8149,-1.7041,-1.8078,-1.9396,-2.0316,-2.1503,0.0,-2.3239,-2.3117,0.0,-2.2677,0.0,-2.273,-2.2426,-2.2883,-2.2965,-2.2453,-2.2908,-2.3117,-2.2982,-2.2712,-2.2599,-2.2599,-2.2398,-2.2432,-2.2651,-2.2616,-2.2599,-2.2599,-2.2599,-2.25,-2.231,-2.231,-2.231,-2.231,-2.231,-2.231,-2.231,-2.231,-2.231,-2.231,-2.231,-2.231,-2.231,-2.231,-2.231,-2.231,-2.231,-2.231,-2.2282,-2.2163,-2.1811,-2.1368,-2.0959,-2.0063,-1.9019,-1.8007,-1.7219,-1.6562,-1.5978,-1.5799,-1.5799,-1.5799,-1.5799,-1.5799,-1.5799,-1.5664,-1.5409,-1.4887,-1.373,-1.2801,-1.2801,-1.2239,-1.1805,-1.1805,-1.1805,-1.1805,-1.1805,-1.0917,-1.0215,-0.9988,-0.8635,-0.7636,-0.7373,-0.6931,-0.6651,-0.6599,-0.6599,-0.6599,-0.6599,-0.6599,-0.6599,-0.6599,-0.6599,-0.6599,-0.6599,-0.6336,-0.6094,-0.5893,-0.5614,-0.5349,-2.1465,-2.1989,-2.231,-2.231,-2.2073,-2.1617,-2.0856,-2.0162,-1.9249,-1.7642,-1.7067,-1.6576,-1.5747,-1.6792,-1.8233,0.0,0.0,0.0,-2.3249,-2.2996,-2.2634,0.0,-2.25,0.0,-2.2293,-2.2598,-2.2695,-2.2473,-2.2789,-2.294,-2.2824,-2.2616,-2.251,-2.251,-2.2388,-2.2377,-2.2588,-2.2527,-2.251,-2.251,-2.251,-2.2453,-2.231,-2.231,-2.231,-2.231,-2.231,-2.231,-2.231,-2.231,-2.231,-2.231,-2.231,-2.231,-2.231,-2.231,-2.231,-2.2282,-2.2061,-2.2003,-2.2003,-2.2003,-2.1705,-2.1244,-2.0813,-2.0149,-1.933,-1.841,-1.7652,-1.6995,-1.6368,-1.5994,-1.5799,-1.5799,-1.5799,-1.5799,-1.5799,-1.5799,-1.5604,-1.4944,-1.3944,-1.3136,-1.2861,-1.2239,-1.1747,-1.1601,-1.1579,-1.1549,-1.1415,-1.0814,-1.03,-1.0001,-0.8672,-0.7744,-0.7586,-0.6984,-0.6599,-0.6599,-0.6599,-0.6599,-0.6599,-0.6599,-0.6599,-0.6599,-0.6483,-0.6418,-0.6418,-0.6195,-0.5943,-0.5726,-0.5568,-0.5349,-2.2141,-2.231,-2.231,-2.231,-2.1752,-2.0957,-2.0078,-1.8785,-1.754,-1.6593,-1.59,-1.5426,-1.5325,-1.6184,-1.7509,-1.9387,0.0,-2.1419,-2.3289,-2.3038,-2.2634,-2.2634,-2.2436,-2.231,-2.231,-2.231,-2.2415,-2.2634,-2.2634,-2.2563,-2.236,-2.2338,-2.231,-2.231,-2.231,-2.231,-2.231,-2.231,-2.231,-2.231,-2.231,-2.231,-2.231,-2.231,-2.231,-2.231,-2.231,-2.231,-2.231,-2.231,-2.231,-2.231,-2.231,-2.231,-2.231,-2.231,-2.231,-2.2237,-2.1823,-2.1658,-2.1582,-2.1521,-2.1275,-2.0926,-2.0449,-2.007,-1.9611,-1.8882,-1.8283,-1.7652,-1.6906,-1.6323,-1.5903,-1.5829,-1.5799,-1.5799,-1.5799,-1.5799,-1.5634,-1.5064,-1.4393,-1.372,-1.3056,-1.2373,-1.1785,-1.1355,-1.1296,-1.1196,-1.0873,-1.0577,-1.0306,-1.0002,-0.8765,-0.7985,-0.7965,-0.7209,-0.6712,-0.6712,-0.6637,-0.6599,-0.6599,-0.6599,-0.6599,-0.6599,-0.6336,-0.6189,-0.6189,-0.5998,-0.5763,-0.5492,-0.5492,-0.5349,-2.2276,-2.231,-2.231,-2.231,-2.1752,-2.0848,-1.9401,-1.842,0.0,-1.5291,-1.4783,-1.4513,-1.3904,-1.4924,-1.6456,-1.8278,-1.9464,-2.0803,-2.2613,-2.2581,-2.236,0.0,-2.2321,-2.231,-2.231,-2.231,-2.2338,-2.2377,-2.236,-2.2453,-2.2625,-2.2426,-2.231,-2.231,-2.231,-2.231,-2.231,-2.231,-2.231,-2.231,-2.231,-2.231,-2.231,-2.231,-2.231,-2.231,-2.231,-2.231,-2.231,-2.231,-2.231,-2.231,-2.231,-2.231,-2.231,-2.231,-2.231,-2.2282,-2.2209,-2.1928,-2.1552,-2.1213,-2.1055,-2.0926,-2.0449,-2.0246,-1.9986,-1.897,-1.8627,-1.822,-1.7025,-1.6622,-1.6413,-1.5933,-1.5799,-1.5799,-1.5799,-1.5799,-1.5769,-1.5649,-1.5109,-1.4408,-1.375,-1.3062,-1.2312,-1.1428,-1.1296,-1.1113,-1.0556,-1.0438,-1.0371,-1.0323,-0.9447,-0.8879,-0.8879,-0.7892,-0.7256,-0.7256,-0.6849,-0.6599,-0.6599,-0.6599,-0.6599,-0.6599,-0.6336,-0.6189,-0.6189,-0.5998,-0.5763,-0.5492,-0.5492,-0.5349,-2.231,-2.231,-2.231,-2.231,-2.1305,-1.9982,-1.8626,0.0,0.0,-1.4257,-1.3921,-1.3819,-1.3464,-1.4293,-1.5609,-1.7418,-1.8356,-1.9624,-2.1821,-2.1909,-2.187,-2.226,-2.231,-2.231,-2.231,-2.231,-2.231,-2.231,-2.231,-2.2349,-2.2473,-2.236,-2.231,-2.231,-2.231,-2.231,-2.231,-2.231,-2.231,-2.231,-2.231,-2.231,-2.231,-2.231,-2.231,-2.231,-2.231,-2.231,-2.231,-2.231,-2.231,-2.231,-2.231,-2.231,-2.231,-2.231,-2.231,-2.2282,-2.2032,-2.1628,-2.1213,-2.0781,-2.0616,-2.055,-2.0139,-2.0,-1.9869,-1.9371,-1.8972,-1.8553,-1.7891,-1.7219,-1.6637,-1.6353,-1.6024,-1.5799,-1.5799,-1.5799,-1.5799,-1.5799,-1.5274,-1.4624,-1.4053,-1.3187,-1.2241,-1.1391,-1.1,-1.0664,-1.021,-1.0135,-1.0135,-1.0135,-0.9525,-0.91,-0.91,-0.8349,-0.7864,-0.7864,-0.7428,-0.7069,-0.6858,-0.6665,-0.6441,-0.6236,-0.5973,-0.5834,-0.5834,-0.5603,-0.5415,-0.5291,-0.5291,-0.5233,-2.226,-2.231,-2.2276,-2.2107,-2.0766,-1.9147,-1.7792,-1.6188,-1.4685,-1.3545,-1.3311,-1.3329,-1.3379,-1.4005,-1.508,0.0,-1.7496,-1.8665,-2.1152,-2.1327,-2.1465,-2.2226,-2.231,0.0,-2.231,-2.231,-2.231,-2.231,-2.231,-2.231,-2.231,-2.231,-2.231,-2.231,-2.231,-2.231,-2.231,-2.231,-2.231,-2.231,-2.231,-2.231,-2.231,-2.231,-2.231,-2.231,-2.231,-2.231,-2.231,-2.231,-2.231,-2.231,-2.231,-2.231,-2.231,-2.231,-2.231,-2.2237,-2.1764,-2.1337,-2.0926,-2.0449,-2.0246,-2.0124,-1.9782,-1.969,-1.969,-1.969,-1.9316,-1.8882,-1.8747,-1.7802,-1.6861,-1.6577,-1.6144,-1.5799,-1.5799,-1.5712,-1.5639,-1.5639,-1.5166,-1.4584,-1.407,-1.3186,-1.2281,-1.1495,-1.0899,-1.0443,-1.0095,-0.9968,-0.9905,-0.9905,-0.9516,-0.9277,-0.9277,-0.8776,-0.843,-0.8351,-0.7926,-0.7511,-0.7144,-0.6728,-0.635,-0.6031,-0.5686,-0.5492,-0.5492,-0.5233,-0.5108,-0.5108,-0.5108,-0.5108,-2.2124,-2.231,-2.2141,-2.1465,-2.0408,-1.8972,-1.6918,0.0,-1.4412,-1.3256,-1.3049,-1.3103,-1.3363,-1.4005,-1.4986,-1.6503,-1.7342,-1.8589,-2.0908,-2.1204,-2.1465,-2.2226,0.0,0.0,-2.231,-2.231,-2.231,-2.231,-2.231,-2.231,-2.231,-2.231,-2.231,-2.231,-2.231,-2.231,-2.231,-2.231,-2.231,-2.231,-2.231,-2.231,-2.231,-2.231,-2.231,-2.231,-2.231,-2.231,-2.231,-2.231,-2.231,-2.231,-2.231,-2.231,-2.231,-2.231,-2.231,-2.2237,-2.1764,-2.1337,-2.0926,-2.0449,-2.0054,-1.9747,-1.9711,-1.969,-1.969,-1.969,-1.9681,-1.945,-1.8867,-1.8179,-1.7309,-1.6144,-1.5844,-1.5799,-1.5799,-1.5477,-1.5165,-1.5165,-1.4833,-1.4332,-1.3656,-1.3477,-1.3056,-1.2071,-1.1477,-1.1003,-1.0674,-1.0207,-0.9905,-0.9905,-0.9855,-0.983,-0.983,-0.9352,-0.8872,-0.8501,-0.8004,-0.7541,-0.7213,-0.6738,-0.6484,-0.6461,-0.5828,-0.5492,-0.5492,-0.5233,-0.5108,-0.5108,-0.5108,-0.5108,-2.1549,-2.1955,-2.2124,-2.1363,-2.0206,-1.8702,-1.6726,-1.5314,-1.4081,-1.2993,-1.2887,-1.3031,-1.3138,-1.353,-1.431,-1.5798,-1.6272,-1.7253,-1.9486,-2.0196,-2.0771,-2.1549,-2.204,-2.231,0.0,-2.231,-2.231,-2.231,-2.231,-2.231,-2.231,-2.231,-2.231,-2.231,-2.231,-2.231,-2.231,-2.231,-2.231,-2.231,-2.231,-2.231,-2.231,-2.231,-2.231,-2.231,-2.231,-2.231,-2.231,-2.231,-2.231,-2.231,-2.231,-2.231,-2.2282,-2.1974,-2.1899,-2.184,-2.1385,-2.0959,-2.055,-2.0348,-2.0035,-1.969,-1.969,-1.969,-1.969,-1.969,-1.969,-1.963,-1.9361,-1.8807,-1.7984,-1.6667,-1.6353,-1.6144,-1.5536,-1.5225,-1.5043,-1.4783,-1.4596,-1.4324,-1.3839,-1.3427,-1.2983,-1.2327,-1.1784,-1.1254,-1.0759,-1.0506,-1.027,-0.9931,-0.9905,-0.9905,-0.9905,-0.9514,-0.9214,-0.9048,-0.8412,-0.7871,-0.7464,-0.7073,-0.6715,-0.6442,-0.6189,-0.5933,-0.5673,-0.5569,-0.5391,-0.5108,-0.5108,-0.5108,-2.0572,-2.1005,-2.1139,-2.0404,-1.9383,-1.8026,-1.6142,-1.4853,-1.3775,-1.27,-1.2626,-1.2813,-1.2977,-1.3156,-1.3715,-1.5052,-1.546,-1.6373,-1.8589,-1.9536,-2.0373,-2.1397,0.0,-2.231,-2.231,-2.231,-2.231,-2.231,-2.231,-2.231,-2.231,-2.231,-2.231,-2.231,-2.231,-2.231,-2.231,-2.231,-2.231,-2.231,-2.231,-2.231,-2.231,-2.231,-2.231,-2.231,-2.231,-2.231,-2.231,-2.231,-2.231,-2.231,-2.231,-2.231,-2.2254,-2.1928,-2.1794,-2.1735,-2.1197,-2.0797,-2.0449,-2.0227,-1.9929,-1.969,-1.969,-1.969,-1.969,-1.969,-1.969,-1.963,-1.945,-1.8941,-1.8155,-1.6821,-1.6402,-1.6039,-1.511,-1.4814,-1.4658,-1.4374,-1.4214,-1.4019,-1.3735,-1.3331,-1.2961,-1.2688,-1.219,-1.1688,-1.1245,-1.0906,-1.0516,-1.0049,-0.9837,-0.975,-0.975,-0.9528,-0.9301,-0.9074,-0.8589,-0.8116,-0.7647,-0.7293,-0.6943,-0.6621,-0.6475,-0.6201,-0.5803,-0.5803,-0.5557,-0.5088,-0.501,-0.4932,-1.9032,-1.9274,-1.8861,-1.8113,-1.7662,-1.6862,-1.4787,-1.4038,-1.3494,-1.242,-1.2205,-1.2372,-1.2906,-1.3013,-1.3317,-1.434,-1.5122,-1.6373,-1.8589,-1.9536,-2.0559,0.0,-2.231,-2.231,-2.231,-2.231,-2.231,-2.231,-2.231,-2.231,-2.231,-2.231,-2.231,-2.231,-2.231,-2.231,-2.231,-2.231,-2.231,-2.231,-2.231,-2.231,-2.231,-2.231,-2.231,-2.231,-2.231,-2.231,-2.231,-2.231,-2.231,-2.231,-2.231,-2.231,-2.231,-2.2282,-2.2282,-2.218,-2.1291,-2.0991,-2.0829,-1.998,-1.9711,-1.969,-1.969,-1.969,-1.969,-1.969,-1.969,-1.954,-1.8882,-1.8291,-1.759,-1.6405,-1.5698,-1.5167,-1.4625,-1.4181,-1.3901,-1.3901,-1.3514,-1.3198,-1.3198,-1.3198,-1.3185,-1.3185,-1.2722,-1.2404,-1.2391,-1.1382,-1.0581,-1.0228,-0.9706,-0.9408,-0.9408,-0.9408,-0.9074,-0.8375,-0.8319,-0.8119,-0.7715,-0.7324,-0.71,-0.71,-0.6641,-0.6201,-0.5803,-0.5803,-0.5557,-0.5088,-0.4834,-0.4567,-1.7069,-1.7838,-1.8323,-1.6897,-1.6282,-1.5608,-1.3976,-1.3359,-1.2946,-1.2328,-1.2352,-1.2572,-1.2924,-1.3156,-1.3867,-1.5714,-1.6208,0.0,-1.935,-2.0331,0.0,-2.1481,-2.1989,-2.231,-2.231,-2.231,-2.231,-2.231,-2.231,-2.231,-2.231,-2.231,-2.231,-2.231,-2.231,-2.231,-2.231,-2.231,-2.231,-2.231,-2.231,-2.231,-2.231,-2.231,-2.231,-2.231,-2.231,-2.231,-2.231,-2.231,-2.231,-2.231,-2.231,-2.2106,-2.1794,-2.1507,-2.1213,-2.0846,-2.0296,-2.012,-2.0085,-1.9782,-1.969,-1.969,-1.969,-1.969,-1.969,-1.969,-1.969,-1.963,-1.9435,-1.9254,-1.8838,-1.7624,-1.6918,-1.6197,-1.4911,-1.4246,-1.3802,-1.3493,-1.3301,-1.3198,-1.3198,-1.3198,-1.3198,-1.3198,-1.3048,-1.2697,-1.2016,-1.16,-1.105,-1.0208,-0.9731,-0.9329,-0.9015,-0.8773,-0.8561,-0.8319,-0.8033,-0.7841,-0.7695,-0.7569,-0.7501,-0.7501,-0.7355,-0.71,-0.668,-0.668,-0.6299,-0.5575,-0.5311,-0.4989,-1.5406,-1.5991,-1.6456,-1.5383,-1.4959,-1.4498,-1.3375,-1.3016,-1.2825,-1.2287,-1.2396,-1.2668,-1.2942,-1.3138,-1.3731,-1.5206,-1.592,-1.6948,-1.8887,0.0,0.0,-2.1549,-2.2023,-2.231,-2.231,-2.231,-2.231,-2.231,-2.231,-2.231,-2.231,-2.231,-2.231,-2.231,-2.231,-2.231,-2.231,-2.231,-2.231,-2.231,-2.231,-2.231,-2.231,-2.231,-2.231,-2.231,-2.231,-2.231,0.0,-2.2106,-2.2032,-2.2032,-2.1886,-2.1645,-2.1337,-2.1086,-2.0829,-2.0483,-2.007,-1.9945,-1.9909,-1.9747,-1.969,-1.969,-1.969,-1.969,-1.969,-1.969,-1.9566,-1.9406,-1.9406,-1.9095,-1.8532,-1.7609,-1.6811,-1.5918,-1.4716,-1.405,-1.3547,-1.3267,-1.3198,-1.3198,-1.3198,-1.3198,-1.3129,-1.2943,-1.2943,-1.2646,-1.185,-1.1537,-1.1081,-1.0298,-0.9809,-0.9312,-0.8691,-0.8442,-0.8233,-0.8091,-0.7841,-0.7695,-0.7695,-0.7695,-0.7695,-0.7695,-0.7695,-0.7491,-0.71,-0.6924,-0.6512,-0.5873,-0.5545,-0.5165,0.0,-1.3955,-1.3745,-1.3675,-1.3675,-1.3496,-1.2876,-1.2909,0.0,-1.235,-1.2431,-1.2703,-1.3026,-1.3064,-1.3169,-1.365,-1.4851,-1.6289,0.0,-1.9258,0.0,0.0,-2.231,-2.231,-2.231,-2.231,-2.231,-2.231,-2.231,-2.231,-2.231,-2.231,-2.231,-2.231,-2.231,-2.231,-2.231,-2.231,-2.231,-2.231,-2.231,-2.231,-2.231,-2.231,-2.231,-2.231,-2.231,-2.2282,-2.2209,-2.1794,-2.1582,-2.1521,-2.115,-2.0959,-2.0959,-2.0959,-2.0926,-2.0829,-2.0416,-2.0246,-2.0193,-1.9818,-1.969,-1.969,-1.969,-1.969,-1.969,-1.969,-1.9332,-1.8893,-1.8893,-1.8145,-1.7221,-1.6679,-1.5776,-1.4853,-1.4261,-1.3672,-1.3248,-1.321,-1.3198,-1.3198,-1.3198,-1.3163,-1.3012,-1.2579,-1.2473,-1.2282,-1.1811,-1.1253,-1.0791,-1.0425,-0.9911,-0.9309,-0.856,-0.8389,-0.8121,-0.7734,-0.7695,-0.7695,-0.7695,-0.7695,-0.7695,-0.7695,-0.7695,-0.7511,-0.7085,-0.6684,-0.6322,-0.5988,-0.5609,-0.5151,-1.2342,0.0,-1.3213,-1.2456,-1.2269,-1.2224,0.0,-1.2073,-1.2186,-1.2447,-1.2553,-1.2921,-1.3961,-1.3699,-1.407,-1.6386,-1.7067,-1.8014,-2.0094,-2.1194,0.0,-2.2276,-2.231,-2.231,-2.231,-2.231,-2.231,-2.231,-2.231,-2.231,-2.231,-2.231,-2.231,-2.231,-2.231,-2.231,-2.231,-2.231,-2.231,-2.231,-2.231,-2.231,-2.231,-2.231,-2.231,-2.231,-2.231,-2.2106,-2.1764,-2.1658,-2.143,-2.1118,-2.1023,-2.0797,-2.0449,-2.0449,-2.0261,-1.998,-1.9874,-1.9839,-1.9854,-1.9711,-1.969,-1.969,-1.969,-1.969,-1.969,-1.969,-1.9332,-1.8893,-1.8893,-1.8419,-1.7786,-1.7249,-1.6586,-1.5867,-1.4904,-1.4286,-1.377,-1.3286,-1.3198,-1.3198,-1.3198,-1.2908,-1.2615,-1.2508,-1.2174,-1.1774,-1.1244,-1.1063,-1.0814,-1.0356,-0.9883,-0.9515,-0.9346,-0.875,-0.8168,-0.7715,-0.7695,-0.7695,-0.7695,-0.7695,-0.7695,-0.7695,-0.7695,-0.7492,-0.7099,-0.7282,-0.6884,-0.5939,-0.5923,-0.5506,-1.1805,-1.2424,-1.2947,-1.2396,-1.2254,-1.2254,-1.2254,-1.2124,-1.2107,-1.2514,0.0,-1.2989,-1.4269,-1.4067,-1.4502,-1.6893,-1.7591,-1.8606,0.0,0.0,-2.231,-2.231,-2.231,-2.231,-2.231,-2.231,-2.231,-2.231,-2.231,-2.231,-2.231,-2.231,-2.231,-2.231,-2.231,-2.231,-2.231,-2.231,-2.231,-2.231,-2.231,-2.231,-2.231,-2.231,-2.218,-2.2003,-2.2209,-2.1945,-2.1337,-2.1337,-2.1086,-2.0649,-2.0481,-2.0243,-2.0019,-2.0019,-1.9874,-1.969,-1.969,-1.969,-1.969,-1.969,-1.969,-1.969,-1.969,-1.969,-1.969,-1.969,-1.9132,-1.8535,-1.8535,-1.7947,-1.7312,-1.6993,-1.6512,-1.5994,-1.5383,-1.4651,-1.3997,-1.3672,-1.3408,-1.3198,-1.3198,-1.2803,-1.2437,-1.221,-1.1763,-1.1244,-1.0725,-1.0687,-1.0572,-1.0322,-1.0068,-0.9853,-0.9612,-0.9219,-0.8691,-0.8066,-0.7812,-0.7695,-0.7695,-0.7695,-0.7695,-0.7695,-0.753,-0.7314,-0.7109,-0.7127,-0.6798,-0.6183,-0.6053,-0.5684,-1.1925,-1.2433,-1.2906,-1.2757,-1.2795,-1.2817,-1.2727,0.0,0.0,0.0,0.0,-1.3074,-1.4307,-1.4485,-1.4977,-1.6677,-1.7721,0.0,-2.1059,-2.1904,-2.231,-2.231,-2.231,-2.231,-2.231,-2.231,-2.231,-2.231,-2.231,-2.231,-2.231,-2.2237,-2.218,-2.218,-2.2135,-2.2106,-2.2106,-2.2163,-2.2237,-2.231,-2.2237,-2.218,-2.218,-2.218,-2.1928,-2.1521,-2.1945,-2.1645,-2.0894,-2.0894,-2.0616,-2.0193,-1.9839,-1.969,-1.969,-1.969,-1.969,-1.969,-1.969,-1.969,-1.969,-1.969,-1.969,-1.969,-1.969,-1.969,-1.969,-1.9603,-1.8855,-1.8066,-1.7987,-1.7229,-1.6522,-1.6522,-1.6158,-1.5793,-1.5718,-1.4928,-1.4186,-1.4097,-1.3609,-1.3198,-1.3198,-1.2756,-1.2246,-1.1847,-1.1282,-1.0764,-1.0351,-1.0283,-1.0283,-1.0283,-1.0283,-1.0137,-0.9729,-0.9631,-0.9291,-0.8613,-0.8105,-0.7773,-0.7695,-0.7695,-0.7666,-0.7598,-0.7275,-0.705,-0.6901,-0.6631,-0.6427,-0.6305,-0.6037,-0.5703,-1.2501,-1.3136,-1.3425,-1.2525,-1.2728,-1.299,-1.242,-1.2246,0.0,0.0,0.0,0.0,0.0,-1.5332,-1.6374,-1.7897,-1.9563,-2.1008,-2.1989,-2.2243,-2.231,-2.231,-2.231,-2.231,-2.231,-2.231,-2.231,-2.231,-2.231,-2.231,-2.231,-2.1928,-2.1718,-2.1718,-2.1385,-2.1197,-2.1197,-2.1538,-2.1899,-2.2282,-2.1899,-2.1718,-2.1718,-2.1718,-2.146,-2.1103,-2.1166,-2.0894,-2.0416,-2.0416,-2.0158,-1.9782,-1.9711,-1.969,-1.969,-1.969,-1.969,-1.969,-1.969,-1.969,-1.969,-1.969,-1.969,-1.969,-1.969,-1.969,-1.9603,-1.9169,-1.8574,-1.7987,-1.7544,-1.6951,-1.6522,-1.6522,-1.6459,-1.6258,-1.5793,-1.5191,-1.4639,-1.4173,-1.3609,-1.3198,-1.3198,-1.2461,-1.1884,-1.1811,-1.0992,-1.039,-1.0322,-1.0283,-1.0283,-1.0283,-1.0283,-1.0254,-1.0186,-0.9844,-0.9534,-0.9417,-0.8711,-0.8115,-0.7715,-0.7695,-0.753,-0.7216,-0.7118,-0.676,-0.6098,-0.6366,-0.616,-0.5491,-0.5765,-0.5681,-1.2164,-1.2747,-1.3178,-1.2814,-1.3413,-1.3979,-1.3676,-1.3327,0.0,0.0,0.0,0.0,0.0,0.0,-1.7578,-1.8993,-2.0286,-2.1295,-2.1849,-2.1928,-2.2003,-2.2282,-2.231,-2.231,-2.231,-2.231,-2.218,-2.1928,-2.2163,-2.2077,-2.1615,-2.1598,-2.1491,-2.1275,-2.1103,-2.0991,-2.0991,-2.0943,-2.1134,-2.1584,-2.1385,-2.1275,-2.1275,-2.1275,-2.1055,-2.0616,-2.0894,-2.0599,-2.0,-2.0212,-2.0054,-1.969,-1.969,-1.969,-1.969,-1.969,-1.969,-1.969,-1.969,-1.969,-1.969,-1.969,-1.969,-1.969,-1.969,-1.969,-1.953,-1.8688,-1.8302,-1.7987,-1.7422,-1.6909,-1.6522,-1.6522,-1.6522,-1.6446,-1.6195,-1.5706,-1.5241,-1.5029,-1.4488,-1.4124,-1.4124,-1.3253,-1.2469,-1.2249,-1.1318,-1.0537,-1.0312,-1.0283,-1.0283,-1.0283,-1.0283,-1.0283,-1.0283,-1.0098,-0.9577,-0.8677,-0.8496,-0.7988,-0.7086,-0.7255,-0.7187,-0.6781,-0.6579,-0.6275,-0.5913,-0.5859,-0.5672,-0.5316,-0.5498,-0.546,-1.1939,-1.2284,-1.2697,-1.3222,-1.3898,-1.4498,-1.4815,-1.4378,-1.4172,0.0,0.0,0.0,0.0,-1.7943,-1.8808,-2.0106,-2.078,-2.1213,-2.143,-2.146,-2.1598,-2.1945,-2.2077,-2.2135,-2.2135,-2.2135,-2.2003,-2.1628,-2.184,-2.1705,-2.1039,-2.1181,-2.1165,-2.0862,-2.0731,-2.0698,-2.0698,-2.033,-2.0431,-2.0991,-2.0894,-2.0829,-2.0829,-2.0829,-2.0599,-2.0193,-2.0532,-2.0311,-1.9711,-2.0035,-1.9965,-1.969,-1.969,-1.969,-1.969,-1.969,-1.969,-1.969,-1.969,-1.969,-1.969,-1.969,-1.9603,-1.953,-1.953,-1.9406,-1.9132,-1.8185,-1.7907,-1.7787,-1.7229,-1.6795,-1.6522,-1.6522,-1.6522,-1.6522,-1.6522,-1.6082,-1.5693,-1.5693,-1.5254,-1.4864,-1.4709,-1.3841,-1.3055,-1.2607,-1.1706,-1.0908,-1.0478,-1.043,-1.0391,-1.0293,-1.0283,-1.0244,-1.0118,-1.0118,-0.9432,-0.7808,-0.8009,-0.7698,-0.6628,-0.688,-0.6846,-0.6366,-0.6068,-0.5851,-0.5765,-0.546,-0.5309,-0.5309,-0.5309,-0.5309,-1.2396,-1.2299,-1.2179,-1.3445,-1.3533,-1.3644,-1.4883,-1.4637,0.0,-1.5538,0.0,0.0,0.0,-1.8437,-2.0199,-2.1294,-2.1519,-2.143,-2.1086,-2.1023,-2.1071,-2.1103,-2.1399,-2.1658,-2.1658,-2.1658,-2.1658,-2.1582,-2.1291,-2.1071,-2.0991,-2.0616,-2.0382,-2.0348,-1.998,-1.9782,-1.9782,-1.9747,-2.0174,-2.0991,-2.055,-2.0348,-2.0348,-2.0348,-2.0124,-1.9747,-1.9782,-1.9747,-1.969,-1.9711,-1.9726,-1.969,-1.969,-1.969,-1.969,-1.969,-1.969,-1.969,-1.969,-1.969,-1.969,-1.969,-1.9369,-1.8968,-1.8968,-1.8612,-1.8106,-1.7504,-1.7353,-1.7229,-1.671,-1.6522,-1.6522,-1.6522,-1.6522,-1.6522,-1.6522,-1.6082,-1.5693,-1.5693,-1.5254,-1.4709,-1.4146,-1.357,-1.3001,-1.2425,-1.1883,-1.14,-1.0918,-1.0869,-1.0713,-1.0322,-1.0283,-1.0079,-0.9597,-0.9558,-0.8959,-0.7525,-0.7444,-0.7284,-0.6893,-0.691,-0.6602,-0.5952,-0.5913,-0.5703,-0.534,-0.5309,-0.5309,-0.5309,-0.5309,-0.5309,-1.1925,-1.2284,-1.2628,-1.357,-1.4306,0.0,0.0,-1.5669,-1.6111,-1.7357,-1.8015,0.0,0.0,0.0,-2.0252,-2.0385,-2.0649,-2.0748,-2.0583,-2.055,-2.0682,-2.0959,-2.1118,-2.1213,-2.1213,-2.1213,-2.1118,-2.0797,-2.091,-2.0764,-2.0208,-2.0261,-2.0193,-1.9929,-1.9782,-1.969,-1.969,-1.969,-1.9889,-2.0174,-2.0,-1.9945,-1.9945,-1.9945,-1.9839,-1.969,-1.969,-1.969,-1.969,-1.969,-1.969,-1.969,-1.969,-1.969,-1.969,-1.969,-1.969,-1.969,-1.969,-1.969,-1.969,-1.969,-1.9332,-1.8893,-1.8893,-1.8535,-1.7987,-1.7463,-1.7312,-1.7188,-1.6637,-1.6522,-1.6522,-1.6522,-1.6522,-1.6522,-1.6522,-1.6358,-1.6208,-1.6208,-1.5726,-1.5272,-1.5017,-1.4182,-1.3418,-1.2855,-1.2313,-1.1816,-1.1367,-1.1351,-1.1152,-1.0713,-1.0439,-1.0079,-0.9558,-0.9199,-0.8617,-0.7764,-0.7748,-0.7394,-0.652,-0.671,-0.6483,-0.5776,-0.5769,-0.5614,-0.5309,-0.5309,-0.5309,-0.5309,-0.5309,-0.5309,-1.1371,-1.1969,-1.2711,-1.3585,0.0,0.0,-1.6323,-1.6742,-1.7399,-1.8747,-1.9277,-1.9669,-2.0203,0.0,-2.0227,-1.9929,-2.0124,-2.0246,-2.0124,-2.0124,-2.0227,-2.0532,-2.0698,-2.0797,-2.0797,-2.0797,-2.0665,-2.0314,-2.0499,-2.0345,-1.9726,-1.9965,-2.0,-1.9726,-1.969,-1.969,-1.969,-1.969,-1.969,-1.969,-1.969,-1.969,-1.969,-1.969,-1.969,-1.969,-1.969,-1.969,-1.969,-1.969,-1.969,-1.969,-1.969,-1.969,-1.969,-1.969,-1.969,-1.969,-1.969,-1.969,-1.969,-1.9479,-1.908,-1.8612,-1.8458,-1.8027,-1.7504,-1.7146,-1.7034,-1.6951,-1.6595,-1.6522,-1.6522,-1.6522,-1.6522,-1.6522,-1.6522,-1.6522,-1.6522,-1.6522,-1.6194,-1.5776,-1.5365,-1.4641,-1.385,-1.3129,-1.2692,-1.2275,-1.1826,-1.1768,-1.1553,-1.0967,-1.0483,-0.9974,-0.9288,-0.8756,-0.8193,-0.7663,-0.7646,-0.7292,-0.6382,-0.6586,-0.6427,-0.5718,-0.5711,-0.5571,-0.5309,-0.5309,-0.5309,-0.5309,-0.5309,-0.5214,-1.0798,-1.1311,-1.2149,-1.3481,0.0,0.0,-1.7399,-1.7697,-1.8104,-1.9405,-1.969,-1.9818,-2.0212,-2.0314,-2.0314,-2.028,-2.0314,-2.0158,-1.9747,-1.969,-1.969,-1.969,-2.0054,-2.028,-2.028,-2.028,-2.028,-2.028,-1.9945,-1.969,-1.969,-1.969,-1.969,-1.969,-1.969,-1.969,-1.969,-1.969,-1.969,-1.969,-1.969,-1.969,-1.969,-1.969,-1.969,-1.969,-1.969,-1.969,-1.969,-1.969,-1.969,-1.969,-1.969,-1.969,-1.969,-1.969,-1.969,-1.969,-1.969,-1.969,-1.9603,-1.908,-1.8535,-1.7987,-1.7463,-1.6909,-1.6522,-1.6522,-1.6522,-1.6522,-1.6522,-1.6522,-1.6522,-1.6522,-1.6522,-1.6522,-1.6522,-1.6522,-1.6479,-1.6479,-1.6466,-1.6107,-1.4892,-1.4709,-1.4294,-1.3065,-1.2881,-1.2725,-1.2295,-1.218,-1.1895,-1.1016,-1.0442,-0.9736,-0.8798,-0.8201,-0.7663,-0.7021,-0.6979,-0.6894,-0.6607,-0.6593,-0.6319,-0.5731,-0.5718,-0.5578,-0.5322,-0.5322,-0.5322,-0.5322,-0.5316,-0.5062,-1.0798,-1.1977,-1.3421,-1.4288,0.0,0.0,0.0,-1.8403,0.0,0.0,-1.969,-1.9762,-1.9839,-2.0089,-2.0227,-1.9929,-2.0124,-2.0158,-1.9747,-1.969,-1.969,-1.969,-1.9818,-1.9874,-1.9874,-1.9874,-1.9874,-1.9874,-1.9782,-1.969,-1.969,-1.969,-1.969,-1.969,-1.969,-1.969,-1.969,-1.969,-1.969,-1.969,-1.969,-1.969,-1.969,-1.969,-1.969,-1.969,-1.969,-1.969,-1.969,-1.969,-1.969,-1.969,-1.969,-1.969,-1.969,-1.969,-1.969,-1.9639,-1.9281,-1.9132,-1.9043,-1.8496,-1.7987,-1.7504,-1.7353,-1.6909,-1.6522,-1.6522,-1.6522,-1.6522,-1.6522,-1.6522,-1.6522,-1.6522,-1.6522,-1.6522,-1.6522,-1.6194,-1.5864,-1.5864,-1.5186,-1.4503,-1.4143,-1.3695,-1.3296,-1.2978,-1.2881,-1.2832,-1.2705,-1.2422,-1.2083,-1.182,-1.0798,-0.9842,-0.9182,-0.8375,-0.7663,-0.7021,-0.6979,-0.6981,-0.6894,-0.6894,-0.6713,-0.6339,-0.6333,-0.6186,-0.5934,-0.5934,-0.5934,-0.5934,-0.5502,-0.5216,-1.1111,-1.2673,-1.4423,-1.5336,-1.7146,-1.8777,-1.9031,0.0,0.0,0.0,-1.969,-1.969,-1.969,-1.9909,-1.9965,-1.9747,-1.9894,-1.9965,-1.9711,-1.969,-1.969,-1.969,-1.969,-1.969,-1.969,-1.969,-1.969,-1.969,-1.969,-1.969,-1.969,-1.969,-1.969,-1.969,-1.969,-1.969,-1.969,-1.969,-1.969,-1.969,-1.969,-1.969,-1.969,-1.969,-1.969,-1.969,-1.969,-1.969,-1.969,-1.969,-1.969,-1.969,-1.969,-1.969,-1.969,-1.969,-1.9566,-1.9332,-1.9006,-1.8765,-1.8496,-1.7947,-1.7544,-1.7271,-1.7034,-1.6752,-1.6522,-1.6522,-1.6522,-1.6522,-1.6522,-1.6522,-1.6522,-1.6522,-1.6522,-1.6423,-1.6182,-1.5864,-1.5543,-1.5276,-1.4641,-1.4097,-1.3815,-1.3505,-1.32,-1.2929,-1.2881,-1.2881,-1.2881,-1.2646,-1.2422,-1.22,-1.0919,-0.9839,-0.9349,-0.8211,-0.7405,-0.7021,-0.6979,-0.6979,-0.6979,-0.6979,-0.6887,-0.6593,-0.6587,-0.6485,-0.6196,-0.6196,-0.6079,-0.5819,-0.5484,-0.5071,-1.1625,-1.3256,-1.5111,-1.6383,-1.7742,-1.8957,-1.9555,-1.969,-1.969,-1.969,-1.969,-1.969,-1.969,-1.969,-1.969,-1.969,-1.969,-1.969,-1.969,-1.969,-1.969,-1.969,-1.969,-1.969,-1.969,-1.969,-1.969,-1.969,-1.969,-1.969,-1.969,-1.969,-1.969,-1.969,-1.969,-1.969,-1.969,-1.969,-1.969,-1.969,-1.969,-1.969,-1.969,-1.969,-1.969,-1.969,-1.969,-1.969,-1.969,-1.969,-1.969,-1.969,-1.9639,-1.9639,-1.9603,-1.9566,-1.9244,-1.8817,-1.8765,-1.8458,-1.7947,-1.7394,-1.7229,-1.7146,-1.6637,-1.6522,-1.6522,-1.6522,-1.6522,-1.6522,-1.6522,-1.6479,-1.6423,-1.6423,-1.6479,-1.6324,-1.572,-1.5543,-1.532,-1.4744,-1.456,-1.4376,-1.3826,-1.3732,-1.3552,-1.2968,-1.2881,-1.2881,-1.2881,-1.2881,-1.2725,-1.2231,-1.0912,-0.9838,-0.9286,-0.7909,-0.7054,-0.7021,-0.6979,-0.6979,-0.6979,-0.6979,-0.6901,-0.6633,-0.6627,-0.65,-0.6277,-0.6239,-0.5933,-0.5366,-0.5252,-0.4716,-1.1625,-1.3256,0.0,-1.6383,-1.8119,-1.951,-1.966,-1.969,-1.969,-1.969,-1.969,-1.969,-1.969,-1.969,-1.969,-1.969,-1.969,-1.969,-1.969,-1.969,-1.969,-1.969,-1.969,-1.969,-1.969,-1.969,-1.969,-1.969,-1.969,-1.969,-1.969,-1.969,-1.969,-1.969,-1.969,-1.969,-1.969,-1.969,-1.969,-1.969,-1.969,-1.969,-1.969,-1.969,-1.969,-1.969,-1.969,-1.969,-1.969,-1.969,-1.969,-1.9639,-1.9244,-1.908,-1.9006,-1.8612,-1.838,-1.8224,-1.7787,-1.7585,-1.7394,-1.6837,-1.668,-1.6637,-1.6522,-1.6522,-1.6522,-1.6522,-1.6522,-1.6522,-1.6522,-1.6139,-1.5776,-1.5776,-1.6151,-1.6324,-1.572,-1.5231,-1.4744,-1.4097,-1.361,-1.3248,-1.3104,-1.3104,-1.3065,-1.2929,-1.2881,-1.2881,-1.2881,-1.2881,-1.2628,-1.196,-1.0963,-0.9927,-0.9074,-0.803,-0.7268,-0.7034,-0.6979,-0.6979,-0.6979,-0.6979,-0.6994,-0.6934,-0.6927,-0.6901,-0.6834,-0.6387,-0.6139,-0.5972,-0.5035,-0.4486,-1.1925,-1.376,0.0,-1.767,0.0,-1.969,-1.969,-1.969,-1.969,-1.969,-1.969,-1.969,-1.969,-1.969,-1.969,-1.969,-1.969,-1.969,-1.969,-1.969,-1.969,-1.969,-1.969,-1.969,-1.969,-1.969,-1.969,-1.969,-1.969,-1.969,-1.969,-1.969,-1.969,-1.969,-1.969,-1.969,-1.969,-1.969,-1.969,-1.969,-1.969,-1.969,-1.969,-1.969,-1.969,-1.969,-1.969,-1.969,-1.969,-1.969,-1.969,-1.9639,-1.9132,-1.8893,-1.8855,-1.8302,-1.7947,-1.7666,-1.7394,-1.7105,-1.6879,-1.6595,-1.6522,-1.6522,-1.6522,-1.6522,-1.6522,-1.6522,-1.6522,-1.6522,-1.6522,-1.6051,-1.5588,-1.5588,-1.5644,-1.5466,-1.4869,-1.4503,-1.4107,-1.3515,-1.3104,-1.2881,-1.2881,-1.2881,-1.2881,-1.2881,-1.2881,-1.2881,-1.2881,-1.2881,-1.2608,-1.1864,-1.0979,-1.0067,-0.9225,-0.8271,-0.7622,-0.7424,-0.7321,-0.7235,-0.7235,-0.7094,-0.6979,-0.6979,-0.6979,-0.6852,-0.6598,-0.6349,-0.5916,-0.5303,-0.4691,-0.426,-1.1984,-1.409,-1.6398,-1.8882,-1.96,0.0,-1.969,-1.969,-1.969,-1.969,-1.969,-1.969,-1.969,-1.969,-1.969,-1.969,-1.969,-1.969,-1.969,-1.969,-1.969,-1.969,-1.969,-1.969,-1.969,-1.969,-1.969,-1.969,-1.969,-1.969,-1.969,-1.969,-1.969,-1.969,-1.969,-1.969,-1.969,-1.969,-1.969,-1.969,-1.969,-1.969,-1.969,-1.969,-1.969,-1.969,-1.969,-1.9639,-1.9566,-1.9566,-1.953,-1.9369,-1.8817,-1.8612,-1.8574,-1.8027,-1.7544,-1.7146,-1.7146,-1.6879,-1.6522,-1.6522,-1.6522,-1.6522,-1.6522,-1.6522,-1.6522,-1.6522,-1.6522,-1.6522,-1.6522,-1.5964,-1.5454,-1.5454,-1.4915,-1.4294,-1.3873,-1.3815,-1.3637,-1.3017,-1.2881,-1.2881,-1.2881,-1.2881,-1.2881,-1.2881,-1.2881,-1.2832,-1.2715,-1.2715,-1.2403,-1.1516,-1.0746,-1.0019,-0.9294,-0.8477,-0.7935,-0.7888,-0.7689,-0.7587,-0.7587,-0.7255,-0.7101,-0.7101,-0.7047,-0.6725,-0.6184,-0.6093,-0.548,-0.4387,-0.4303,-0.4008,-1.0842,0.0,-1.6293,0.0,-1.9271,-1.969,0.0,0.0,-1.969,-1.969,-1.969,-1.969,-1.969,-1.969,-1.969,-1.969,-1.969,-1.969,-1.969,-1.969,-1.969,-1.969,-1.969,-1.969,-1.969,-1.969,-1.969,-1.969,-1.969,-1.969,-1.969,-1.969,-1.969,-1.969,-1.969,-1.969,-1.969,-1.969,-1.969,-1.969,-1.969,-1.969,-1.969,-1.969,-1.969,-1.969,-1.969,-1.9442,-1.9006,-1.9006,-1.8727,-1.8263,-1.7706,-1.7504,-1.7463,-1.6909,-1.668,-1.6595,-1.6595,-1.6552,-1.6522,-1.6522,-1.6522,-1.6522,-1.6522,-1.6522,-1.6522,-1.6522,-1.6522,-1.6522,-1.6522,-1.5656,-1.4835,-1.4835,-1.3978,-1.3238,-1.3684,-1.3815,-1.3637,-1.3017,-1.2881,-1.2881,-1.2881,-1.2881,-1.2881,-1.2881,-1.2881,-1.2666,-1.203,-1.1972,-1.1466,-1.0218,-0.9974,-0.954,-0.8584,-0.8387,-0.8203,-0.7895,-0.7842,-0.7869,-0.7869,-0.7569,-0.7453,-0.7453,-0.7154,-0.6725,-0.6184,-0.5658,-0.5087,-0.4387,-0.3924,-0.3667,-1.1925,-1.4094,-1.6278,0.0,-1.8927,-1.9226,-1.96,-1.969,-1.969,-1.969,-1.969,-1.969,-1.969,-1.969,-1.969,-1.969,-1.969,-1.969,-1.969,-1.969,-1.969,-1.969,-1.969,-1.969,-1.969,-1.969,-1.969,-1.969,-1.969,-1.969,-1.969,-1.969,-1.969,-1.969,-1.969,-1.969,-1.969,-1.969,-1.969,-1.969,-1.969,-1.953,-1.9244,-1.9244,-1.9406,-1.969,-1.969,-1.9406,-1.8893,-1.8893,-1.8574,-1.8066,-1.7504,-1.7312,-1.7229,-1.671,-1.6522,-1.6522,-1.6522,-1.6522,-1.6522,-1.6522,-1.6522,-1.6522,-1.6522,-1.6522,-1.6522,-1.6522,-1.6522,-1.6522,-1.6522,-1.5611,-1.4698,-1.4698,-1.38,-1.2968,-1.3238,-1.3286,-1.3238,-1.2978,-1.2881,-1.2881,-1.2881,-1.2881,-1.2881,-1.2881,-1.2881,-1.2618,-1.1873,-1.1814,-1.1266,-0.9969,-0.9814,-0.9452,-0.8676,-0.8617,-0.8564,-0.843,-0.827,-0.8176,-0.8176,-0.7889,-0.7729,-0.7729,-0.7261,-0.6556,-0.5696,-0.5437,-0.4831,-0.3965,-0.3711,-0.3581,0.0,0.0,-1.5514,-1.746,-1.8328,-1.8837,0.0,0.0,-1.969,-1.969,-1.969,-1.969,-1.969,-1.969,-1.969,-1.969,-1.969,-1.969,-1.969,-1.969,-1.969,-1.969,-1.969,-1.969,-1.969,-1.969,-1.969,-1.969,-1.969,-1.969,-1.969,-1.969,-1.969,-1.969,-1.969,-1.969,-1.969,-1.969,-1.9639,-1.9479,-1.9479,-1.9207,-1.8688,-1.8688,-1.8893,-1.9281,-1.9281,-1.908,-1.8688,-1.8535,-1.8185,-1.7666,-1.7229,-1.7118,-1.7034,-1.6637,-1.6522,-1.6522,-1.6522,-1.6522,-1.6522,-1.6522,-1.6522,-1.6522,-1.6522,-1.6522,-1.6522,-1.6522,-1.6522,-1.6466,-1.6293,-1.5466,-1.4663,-1.4514,-1.3658,-1.2881,-1.2881,-1.2881,-1.2881,-1.2881,-1.2881,-1.2881,-1.2881,-1.2881,-1.2881,-1.2881,-1.2881,-1.2559,-1.1665,-1.1566,-1.1015,-0.9666,-0.9562,-0.9361,-0.8857,-0.8804,-0.8804,-0.8804,-0.8604,-0.8484,-0.8484,-0.8196,-0.8043,-0.8043,-0.7335,-0.6457,-0.5389,-0.5333,-0.4705,-0.3581,-0.3581,-0.3581,0.0,-1.2403,0.0,-1.5454,-1.7326,-1.8717,0.0,-1.9226,-1.969,-1.969,-1.969,-1.969,-1.969,-1.969,-1.969,-1.969,-1.969,-1.969,-1.969,-1.969,-1.969,-1.969,-1.969,-1.969,-1.969,-1.969,-1.969,-1.969,-1.969,-1.969,-1.969,-1.969,-1.969,-1.969,-1.969,-1.969,-1.969,-1.969,-1.9442,-1.893,-1.893,-1.865,-1.8145,-1.8145,-1.8185,-1.8185,-1.8185,-1.8185,-1.8106,-1.7585,-1.7076,-1.6595,-1.6552,-1.6552,-1.6552,-1.6522,-1.6522,-1.6522,-1.6522,-1.6522,-1.6522,-1.6522,-1.6522,-1.6522,-1.6522,-1.6522,-1.6522,-1.6522,-1.6522,-1.638,-1.582,-1.5186,-1.4571,-1.3956,-1.3372,-1.2881,-1.2881,-1.2881,-1.2881,-1.2881,-1.2881,-1.2881,-1.2881,-1.2881,-1.2881,-1.2881,-1.2881,-1.2412,-1.1023,-1.0864,-1.0364,-0.9008,-0.8857,-0.8857,-0.8804,-0.8804,-0.8804,-0.8804,-0.8791,-0.8784,-0.8784,-0.851,-0.835,-0.835,-0.7334,-0.6437,-0.5662,-0.5404,-0.4705,-0.3581,-0.3581,-0.3581,-1.0271,0.0,0.0,-1.4229,-1.568,-1.6937,-1.7324,-1.8283,-1.9061,-1.9061,-1.939,-1.969,-1.969,-1.969,-1.969,-1.969,-1.969,-1.969,-1.969,-1.969,-1.969,-1.969,-1.969,-1.969,-1.969,-1.969,-1.969,-1.969,-1.969,-1.969,-1.969,-1.969,-1.969,-1.969,-1.9369,-1.9006,-1.8688,-1.865,-1.8574,-1.838,-1.838,-1.8106,-1.7585,-1.7585,-1.7585,-1.7585,-1.7229,-1.7271,-1.7585,-1.7394,-1.6993,-1.6522,-1.6522,-1.6522,-1.6522,-1.6522,-1.6522,-1.6522,-1.6522,-1.6522,-1.6522,-1.6522,-1.6522,-1.6522,-1.6522,-1.6522,-1.6522,-1.6522,-1.6238,-1.5864,-1.5676,-1.4858,-1.3967,-1.3372,-1.3065,-1.2881,-1.2881,-1.2881,-1.2881,-1.2881,-1.2881,-1.2881,-1.2881,-1.2881,-1.2881,-1.2881,-1.2881,-1.2559,-1.1566,-1.1065,-1.0466,-0.9562,-0.9061,-0.8804,-0.8804,-0.8804,-0.8804,-0.8804,-0.8804,-0.8804,-0.8804,-0.8704,-0.8436,-0.7961,-0.738,-0.6639,-0.5677,-0.5193,-0.4471,-0.3581,-0.3581,-0.3581,-0.9544,-1.1008,0.0,0.0,-1.4564,-1.5665,-1.6517,-1.7384,-1.8179,-1.8612,-1.9046,-1.942,-1.9645,-1.969,-1.969,-1.969,-1.969,-1.969,-1.969,-1.969,-1.969,-1.969,-1.969,-1.969,-1.969,-1.969,-1.969,-1.969,-1.969,-1.969,-1.969,-1.969,-1.9603,-1.9442,-1.8893,-1.8458,-1.8106,-1.8106,-1.8027,-1.7827,-1.7827,-1.7544,-1.7034,-1.7034,-1.7034,-1.6993,-1.6637,-1.6795,-1.7312,-1.7118,-1.6837,-1.6522,-1.6522,-1.6522,-1.6522,-1.6522,-1.6522,-1.6522,-1.6522,-1.6522,-1.6522,-1.6522,-1.6522,-1.6522,-1.6522,-1.6522,-1.6522,-1.6522,-1.6051,-1.5543,-1.5365,-1.4411,-1.342,-1.3027,-1.2881,-1.2881,-1.2881,-1.2881,-1.2881,-1.2881,-1.2881,-1.2881,-1.2881,-1.2881,-1.2881,-1.2881,-1.2881,-1.2618,-1.1873,-1.1216,-1.0517,-0.9865,-0.9211,-0.8804,-0.8804,-0.8804,-0.8804,-0.8804,-0.8804,-0.8804,-0.8804,-0.8804,-0.848,-0.7723,-0.7291,-0.6593,-0.5572,-0.4965,-0.4337,-0.3649,-0.3602,-0.3581,0.0,0.0,0.0,0.0,0.0,0.0,-1.6308,-1.6637,-1.7025,-1.8343,-1.8627,-1.8852,-1.9525,-1.966,-1.966,-1.969,-1.969,-1.969,-1.969,-1.969,-1.969,-1.969,-1.969,-1.969,-1.969,-1.969,-1.969,-1.969,-1.969,-1.969,-1.969,-1.969,-1.9406,-1.8855,-1.8341,-1.8066,-1.8066,-1.8066,-1.7787,-1.7271,-1.7271,-1.6993,-1.6522,-1.6522,-1.6522,-1.6522,-1.6522,-1.6795,-1.7229,-1.671,-1.6522,-1.6522,-1.6522,-1.6522,-1.6522,-1.6522,-1.6522,-1.6522,-1.6522,-1.6522,-1.6522,-1.6522,-1.6522,-1.6522,-1.6522,-1.6522,-1.6522,-1.6466,-1.6051,-1.541,-1.4789,-1.38,-1.2881,-1.2881,-1.2881,-1.2881,-1.2881,-1.2881,-1.2881,-1.2881,-1.2881,-1.2881,-1.2881,-1.2881,-1.2881,-1.2881,-1.2881,-1.2657,-1.1913,-1.1266,-1.0559,-0.9917,-0.9211,-0.8804,-0.8804,-0.8804,-0.8804,-0.8804,-0.8804,-0.8804,-0.8804,-0.8758,-0.8427,-0.767,-0.6966,-0.6163,-0.5284,-0.4868,-0.4357,-0.3788,-0.3646,-0.3581,-0.89,0.0,0.0,0.0,0.0,0.0,-1.3795,-1.4633,-1.556,-1.6443,-1.6952,-1.7608,-1.8762,-1.8972,-1.9136,-1.9615,-1.969,-1.969,-1.969,-1.969,-1.969,-1.969,-1.969,-1.969,-1.969,-1.969,-1.969,-1.969,-1.969,-1.969,-1.969,-1.9332,-1.8688,-1.7787,-1.7585,-1.7353,-1.6951,-1.6951,-1.6879,-1.671,-1.671,-1.6637,-1.6522,-1.6522,-1.6522,-1.6522,-1.6522,-1.6595,-1.671,-1.6552,-1.6522,-1.6522,-1.6522,-1.6522,-1.6522,-1.6522,-1.6522,-1.6522,-1.6522,-1.6522,-1.6522,-1.6522,-1.6522,-1.6522,-1.6522,-1.6522,-1.6423,-1.5952,-1.541,-1.4698,-1.3658,-1.3162,-1.2881,-1.2881,-1.2881,-1.2881,-1.2881,-1.2881,-1.2881,-1.2881,-1.2881,-1.2881,-1.2881,-1.2881,-1.2881,-1.2881,-1.2881,-1.2832,-1.2608,-1.1981,-1.1266,-1.061,-0.9917,-0.9309,-0.8857,-0.8804,-0.8804,-0.8804,-0.8804,-0.8804,-0.8804,-0.8262,-0.767,-0.6912,-0.6199,-0.5467,-0.4725,-0.4473,-0.4158,-0.3788,-0.3646,-0.3581,-0.9389,-1.0535,-1.1731,-1.1418,0.0,0.0,-1.3201,-1.3768,-1.4502,-1.5669,-1.6352,-1.6962,-1.7889,-1.8182,-1.844,-1.8939,-1.9165,-1.9375,-1.9645,-1.969,-1.969,-1.969,-1.969,-1.969,-1.969,-1.969,-1.969,-1.969,-1.9479,-1.9369,-1.9369,-1.865,-1.8066,-1.7666,-1.7188,-1.6837,-1.6522,-1.6522,-1.6522,-1.6522,-1.6522,-1.6522,-1.6522,-1.6522,-1.6522,-1.6522,-1.6522,-1.6522,-1.6522,-1.6522,-1.6522,-1.6522,-1.6522,-1.6522,-1.6522,-1.6522,-1.6522,-1.6522,-1.6522,-1.6522,-1.6522,-1.6522,-1.6522,-1.6522,-1.6522,-1.6522,-1.638,-1.5776,-1.5005,-1.4107,-1.3162,-1.2881,-1.2881,-1.2881,-1.2881,-1.2881,-1.2881,-1.2881,-1.2881,-1.2881,-1.2881,-1.2881,-1.2881,-1.2881,-1.2881,-1.2881,-1.2881,-1.2881,-1.2881,-1.2236,-1.1566,-1.0864,-1.0218,-0.9517,-0.8857,-0.8804,-0.8804,-0.8804,-0.8804,-0.8804,-0.8804,-0.8374,-0.767,-0.6642,-0.6204,-0.5492,-0.4519,-0.4317,-0.404,-0.3788,-0.3646,-0.3581,-1.0391,-1.1321,-1.2525,-1.2609,-1.2239,0.0,-1.3557,-1.3496,-1.3666,-1.5338,-1.5946,-1.6335,-1.6706,-1.714,-1.7504,-1.7795,-1.8238,-1.8787,-1.9513,-1.9603,-1.9603,-1.9603,-1.9566,-1.9566,-1.9603,-1.9566,-1.953,-1.953,-1.908,-1.8779,-1.8727,-1.7827,-1.7504,-1.7907,-1.6993,-1.6522,-1.6522,-1.6522,-1.6522,-1.6522,-1.6522,-1.6522,-1.6522,-1.6522,-1.6522,-1.6522,-1.6522,-1.6522,-1.6522,-1.6522,-1.6522,-1.6522,-1.6522,-1.6522,-1.6522,-1.6522,-1.6522,-1.6522,-1.6522,-1.6522,-1.6522,-1.6522,-1.6522,-1.6522,-1.6522,-1.6522,-1.638,-1.5688,-1.4687,-1.3637,-1.3065,-1.2881,-1.2881,-1.2881,-1.2881,-1.2881,-1.2881,-1.2881,-1.2881,-1.2881,-1.2881,-1.2881,-1.2881,-1.2881,-1.2881,-1.2881,-1.2881,-1.2881,-1.2774,-1.2187,-1.1516,-1.0771,-1.0167,-0.9517,-0.8857,-0.8804,-0.8804,-0.8804,-0.8804,-0.8804,-0.8804,-0.8699,-0.8049,-0.6642,-0.6426,-0.5769,-0.4519,-0.4317,-0.405,-0.3812,-0.367,-0.3595,-1.1907,-1.2181,-1.2581,-1.2228,-1.2624,0.0,-1.2319,-1.2429,-1.2719,-1.298,-1.3107,-1.3496,-1.4645,-1.5254,-1.5696,-1.6033,-1.693,-1.7902,-1.8919,-1.9043,-1.9043,-1.9043,-1.865,-1.8574,-1.9006,-1.865,-1.8419,-1.8419,-1.8341,-1.8066,-1.7626,-1.7435,-1.7146,-1.6837,-1.6595,-1.6522,-1.6522,-1.6522,-1.6522,-1.6522,-1.6522,-1.6522,-1.6522,-1.6522,-1.6522,-1.6522,-1.6522,-1.6522,-1.6522,-1.6522,-1.6522,-1.6522,-1.6522,-1.6522,-1.6522,-1.6522,-1.6522,-1.6522,-1.6522,-1.6522,-1.6522,-1.6522,-1.6522,-1.6522,-1.6522,-1.6522,-1.6281,-1.5197,-1.4376,-1.3637,-1.3065,-1.2881,-1.2881,-1.2881,-1.2881,-1.2881,-1.2881,-1.2881,-1.2881,-1.2881,-1.2881,-1.2881,-1.2881,-1.2881,-1.2881,-1.2881,-1.2881,-1.2666,-1.208,-1.1873,-1.1366,-1.0115,-0.9865,-0.9517,-0.8857,-0.8804,-0.8804,-0.8804,-0.8804,-0.8804,-0.8804,-0.8209,-0.7503,-0.6642,-0.5496,-0.4791,-0.4519,-0.4317,-0.4103,-0.3972,-0.3822,-0.369,-1.3197,-1.3281,-1.353,-1.3216,-1.3155,0.0,0.0,-1.2513,-1.248,-1.2994,-1.2828,-1.2781,-1.3527,-1.4048,-1.4499,-1.4763,-1.5717,-1.6514,-1.682,-1.7805,-1.8422,-1.8148,-1.8107,-1.8224,-1.8458,-1.8263,-1.7987,-1.7706,-1.7706,-1.7585,-1.7312,-1.7034,-1.6909,-1.6909,-1.6637,-1.6522,-1.6522,-1.6522,-1.6522,-1.6522,-1.6522,-1.6522,-1.6522,-1.6522,-1.6522,-1.6522,-1.6522,-1.6522,-1.6522,-1.6522,-1.6522,-1.6522,-1.6522,-1.6522,-1.6522,-1.6522,-1.6522,-1.6522,-1.6522,-1.6522,-1.6522,-1.6522,-1.6522,-1.6522,-1.6522,-1.6281,-1.5876,-1.4971,-1.4283,-1.3637,-1.3065,-1.2881,-1.2881,-1.2881,-1.2881,-1.2881,-1.2881,-1.2881,-1.2881,-1.2881,-1.2881,-1.2881,-1.2881,-1.2881,-1.2881,-1.2881,-1.2881,-1.2618,-1.1873,-1.1814,-1.1266,-0.9969,-0.9814,-0.9517,-0.8857,-0.8804,-0.8804,-0.8804,-0.8804,-0.8804,-0.8804,-0.8427,-0.7723,-0.6642,-0.5226,-0.4519,-0.4519,-0.4392,-0.428,-0.4076,-0.3897,-0.3751,-1.4668,-1.4613,-1.4786,-1.4566,-1.3931,-1.3415,0.0,0.0,0.0,-1.338,-1.306,-1.269,-1.2797,-1.3101,-1.3397,-1.3523,-1.4405,-1.485,-1.4264,-1.6012,-1.7211,-1.6867,-1.7197,-1.7567,-1.7755,-1.7595,-1.7384,-1.7175,-1.6937,-1.6924,-1.7133,-1.6752,-1.671,-1.7105,-1.671,-1.6522,-1.6522,-1.6522,-1.6522,-1.6522,-1.6522,-1.6522,-1.6522,-1.6522,-1.6522,-1.6522,-1.6522,-1.6522,-1.6522,-1.6522,-1.6522,-1.6522,-1.6522,-1.6522,-1.6522,-1.6522,-1.6522,-1.6522,-1.6522,-1.6522,-1.6522,-1.6522,-1.6522,-1.6466,-1.638,-1.6008,-1.5454,-1.4744,-1.419,-1.3637,-1.3065,-1.2881,-1.2881,-1.2881,-1.2881,-1.2881,-1.2881,-1.2881,-1.2881,-1.2881,-1.2881,-1.2881,-1.2881,-1.2881,-1.2881,-1.2881,-1.2881,-1.2618,-1.1715,-1.1616,-1.1116,-0.9762,-0.9614,-0.9361,-0.8857,-0.8804,-0.8804,-0.8804,-0.8804,-0.8804,-0.8804,-0.8533,-0.783,-0.6642,-0.5226,-0.4519,-0.4519,-0.4519,-0.4389,-0.419,-0.3995,-0.3846,-1.7026,-1.6394,-1.5965,-1.5508,-1.5034,-1.4383,-1.331,0.0,-1.2913,-1.2346,0.0,-1.2097,-1.2105,0.0,0.0,-1.1903,-1.2773,-1.3116,-1.2095,-1.3454,-1.4691,-1.503,-1.5179,-1.566,-1.6572,-1.5828,-1.5654,-1.6519,-1.5727,-1.56,-1.6544,-1.6522,-1.6522,-1.6595,-1.6522,-1.6522,-1.6522,-1.6522,-1.6522,-1.6522,-1.6522,-1.6522,-1.6522,-1.6522,-1.6522,-1.6522,-1.6522,-1.6522,-1.6522,-1.6522,-1.6522,-1.6522,-1.6522,-1.6522,-1.6522,-1.6522,-1.6522,-1.6522,-1.6522,-1.6522,-1.6522,-1.6522,-1.6522,-1.638,-1.5864,-1.5632,-1.5353,-1.4226,-1.3862,-1.3637,-1.3065,-1.2881,-1.2881,-1.2881,-1.2881,-1.2881,-1.2881,-1.2881,-1.2881,-1.2881,-1.2881,-1.2881,-1.2881,-1.2881,-1.2881,-1.2881,-1.2881,-1.2412,-1.1065,-1.0914,-1.0415,-0.9061,-0.891,-0.8857,-0.8811,-0.8804,-0.8804,-0.8804,-0.8804,-0.8804,-0.8804,-0.7557,-0.675,-0.6588,-0.5226,-0.4519,-0.4519,-0.4519,-0.4389,-0.4197,-0.416,-0.4053,-1.7681,-1.729,-1.6915,-1.6166,-1.5611,-1.4968,-1.3899,-1.3167,-1.2738,-1.2704,0.0,0.0,0.0,0.0,0.0,0.0,-1.1977,-1.2002,-1.1199,-1.1977,-1.2956,-1.3749,-1.3915,-1.4246,-1.5041,-1.4701,-1.4752,-1.5505,-1.5128,-1.5216,-1.6007,-1.6346,-1.6522,-1.6522,-1.6522,-1.6522,-1.6522,-1.6522,-1.6522,-1.6522,-1.6522,-1.6522,-1.6522,-1.6522,-1.6522,-1.6522,-1.6522,-1.6522,-1.6522,-1.6522,-1.6522,-1.6522,-1.6522,-1.6522,-1.6522,-1.6522,-1.6522,-1.6522,-1.6522,-1.6522,-1.6522,-1.6522,-1.6522,-1.638,-1.5776,-1.5588,-1.5353,-1.4133,-1.3815,-1.3637,-1.3065,-1.2881,-1.2881,-1.2881,-1.2881,-1.2881,-1.2881,-1.2881,-1.2881,-1.2881,-1.2881,-1.2881,-1.2881,-1.2881,-1.2881,-1.2881,-1.2881,-1.2412,-1.0965,-1.0813,-1.0269,-0.8962,-0.8804,-0.8804,-0.8804,-0.8804,-0.8804,-0.8804,-0.8804,-0.8804,-0.8804,-0.7402,-0.6588,-0.6588,-0.5226,-0.4519,-0.4519,-0.4519,-0.4433,-0.4372,-0.4234,-0.4127,-1.8388,-1.8037,-1.7592,-1.6747,-1.593,-1.5117,-1.423,-1.3424,-1.2981,-1.3383,-1.2944,0.0,0.0,0.0,0.0,0.0,0.0,-1.1512,-1.0621,-1.0985,-1.1713,-1.2634,-1.3182,-1.3546,-1.3846,-1.372,-1.3934,-1.4626,-1.44,-1.4638,-1.5643,-1.607,-1.6358,-1.6509,-1.6522,-1.6522,-1.6522,-1.6522,-1.6522,-1.6522,-1.6522,-1.6522,-1.6522,-1.6522,-1.6522,-1.6522,-1.6522,-1.6522,-1.6522,-1.6522,-1.6522,-1.6522,-1.6522,-1.6522,-1.6522,-1.6522,-1.6522,-1.6522,-1.6522,-1.6522,-1.6522,-1.6522,-1.6522,-1.638,-1.5599,-1.5365,-1.5096,-1.3873,-1.3552,-1.3467,-1.3017,-1.2881,-1.2881,-1.2881,-1.2881,-1.2881,-1.2881,-1.2881,-1.2881,-1.2881,-1.2881,-1.2881,-1.2881,-1.2881,-1.2881,-1.2881,-1.2881,-1.2412,-1.0965,-1.0813,-1.0269,-0.8962,-0.8804,-0.8804,-0.8804,-0.8804,-0.8804,-0.8804,-0.8804,-0.8804,-0.8804,-0.7563,-0.6804,-0.6588,-0.5391,-0.4677,-0.4519,-0.4519,-0.4519,-0.4515,-0.4355,-0.4234,-1.963,-1.8873,-1.7915,-1.7239,-1.5996,-1.4739,-1.4057,-1.3972,-1.4035,-1.406,-1.4462,-1.4815,-1.4828,-1.4374,0.0,0.0,0.0,0.0,0.0,-1.0381,-1.0973,-1.1575,-1.3091,-1.3858,-1.3273,-1.278,-1.2906,-1.4035,-1.3094,-1.3433,-1.558,-1.5718,-1.5969,-1.6497,-1.6522,-1.6522,-1.6522,-1.6522,-1.6522,-1.6522,-1.6522,-1.6522,-1.6522,-1.6522,-1.6522,-1.6522,-1.6522,-1.6522,-1.6522,-1.6522,-1.6522,-1.6522,-1.6522,-1.6522,-1.6522,-1.6522,-1.6522,-1.6522,-1.6522,-1.6522,-1.6522,-1.6522,-1.6522,-1.6293,-1.5107,-1.4744,-1.4479,-1.3296,-1.2929,-1.2929,-1.2929,-1.2881,-1.2881,-1.2881,-1.2881,-1.2881,-1.2881,-1.2881,-1.2881,-1.2881,-1.2881,-1.2881,-1.2881,-1.2881,-1.2881,-1.2881,-1.2881,-1.2412,-1.0965,-1.0813,-1.0269,-0.8962,-0.8804,-0.8804,-0.8804,-0.8804,-0.8804,-0.8804,-0.8804,-0.8804,-0.8804,-0.8049,-0.7343,-0.6588,-0.5873,-0.5164,-0.4519,-0.4519,-0.4519,-0.4519,-0.4512,-0.4379,-1.9169,-1.865,-1.7873,-1.6948,-1.6048,-1.5177,-1.4246,-1.4054,-1.4085,-1.4085,-1.4525,-1.4916,-1.4916,-1.4462,0.0,0.0,0.0,0.0,0.0,-1.0581,-1.0769,-1.0998,-1.2165,-1.2592,-1.1633,-1.2046,-1.2567,-1.2944,-1.2956,-1.3596,-1.5078,-1.5492,-1.5957,-1.6497,-1.6522,-1.6522,-1.6522,-1.6522,-1.6522,-1.6522,-1.6522,-1.6522,-1.6522,-1.6522,-1.6522,-1.6522,-1.6522,-1.6522,-1.6522,-1.6522,-1.6522,-1.6522,-1.6522,-1.6522,-1.6522,-1.6522,-1.6522,-1.6522,-1.6522,-1.6522,-1.6522,-1.6522,-1.6238,-1.5732,-1.4926,-1.4422,-1.392,-1.3104,-1.2881,-1.2881,-1.2881,-1.2881,-1.2881,-1.2881,-1.2881,-1.2881,-1.2881,-1.2881,-1.2881,-1.2881,-1.2881,-1.2881,-1.2881,-1.2881,-1.2881,-1.2881,-1.2881,-1.2559,-1.1566,-1.1065,-1.0466,-0.9562,-0.9061,-0.8804,-0.8804,-0.8804,-0.8804,-0.8804,-0.8804,-0.8804,-0.8804,-0.8103,-0.7563,-0.7343,-0.614,-0.5378,-0.5164,-0.4736,-0.4519,-0.4519,-0.4519,-0.4491,-1.865,-1.8224,-1.7598,-1.6704,-1.61,-1.5452,-1.4575,-1.4525,-1.4676,-1.4676,-1.5117,-1.5454,-1.5454,-1.5041,0.0,0.0,0.0,0.0,0.0,-1.0694,-1.0618,-1.0431,-1.1425,-1.1826,-1.1098,-1.1324,-1.1763,-1.2366,-1.2334,-1.2994,-1.4538,-1.5103,-1.5655,-1.6208,-1.6421,-1.6522,-1.6522,-1.6522,-1.6522,-1.6522,-1.6522,-1.6522,-1.6522,-1.6522,-1.6522,-1.6522,-1.6522,-1.6522,-1.6522,-1.6522,-1.6522,-1.6522,-1.6522,-1.6522,-1.6522,-1.6522,-1.6522,-1.6522,-1.6522,-1.6522,-1.6522,-1.6522,-1.6095,-1.5499,-1.488,-1.4283,-1.3684,-1.3065,-1.2881,-1.2881,-1.2881,-1.2881,-1.2881,-1.2881,-1.2881,-1.2881,-1.2881,-1.2881,-1.2881,-1.2881,-1.2881,-1.2881,-1.2881,-1.2881,-1.2881,-1.2881,-1.2881,-1.2618,-1.1873,-1.1416,-1.0813,-0.9917,-0.9413,-0.9061,-0.8804,-0.8804,-0.8804,-0.8804,-0.8804,-0.8804,-0.8804,-0.8315,-0.7996,-0.7723,-0.6524,-0.576,-0.5487,-0.4842,-0.4519,-0.4519,-0.4519,-0.4519]},{"header":{"parameterUnit":"m.s-1","parameterCategory":1,"la1":30.6,"la2":29.2853,"lo1":-89.7004,"lo2":-87.6739,"dy":0.0162,"dx":0.0183,"nx":112,"ny":82,"refTime":"2026-04-17T00:00:00:Z","depth":0,"parameterNumber":3,"parameterNumberName":"V-component_of_WINDS"},"data":[0.0,0.0,0.0,0.0,0.0,0.0,0.0,0.0,0.0,0.0,0.0,0.0,0.0,0.0,0.0,0.0,0.0,0.0,0.0,0.0,0.0,0.0,0.0,0.0,0.0,0.0,0.0,0.0,0.0,0.0,0.0,0.0,0.0,0.0,0.0,0.0,0.0,0.0,0.0,0.0,0.0,0.0,0.0,0.0,0.0,0.0,0.0,0.0,0.0,0.0,0.0,0.0,0.0,0.0,0.0,0.0,0.0,0.0,0.0,0.0,0.0,0.0,0.0,0.0,0.0,0.0,0.0,0.0,0.0,0.0,0.0,0.0,0.0,0.0,0.0,0.0,0.0,0.0,0.0,0.0,0.0,0.0,0.0,0.0,0.0,0.0,0.0,0.0,0.0,0.0,-0.5257,-0.0567,0.5339,0.9047,0.9273,0.9834,0.9455,0.7731,0.0,0.0,0.0,0.0,0.0,0.0,0.0,0.0,0.0,0.0,0.0,0.0,0.0,0.0,0.0,0.0,0.0,0.0,0.0,0.0,0.0,0.0,0.0,0.0,0.0,0.0,0.0,0.0,0.0,0.0,0.0,0.0,0.0,0.0,0.0,0.0,0.0,0.0,0.0,0.0,0.0,0.0,0.0,0.0,0.0,0.0,0.0,0.0,0.0,0.0,0.0,0.0,0.0,0.0,0.0,0.0,0.0,0.0,0.0,0.0,0.0,0.0,0.0,0.0,0.0,0.0,0.0,0.0,0.0,0.0,0.0,0.0,0.0,0.0,0.0,0.0,0.0,0.0,0.0,0.0,0.0,0.0,0.0,0.0,0.0,0.0,0.0,0.0,0.0,0.0,0.0,0.0,0.0,0.0,0.0,0.0,0.0,0.0,0.0,0.0,0.0,0.0,0.0,0.0,-0.3234,0.2566,0.652,0.8897,0.9263,0.9808,0.9419,0.7784,0.0,0.0,0.0,0.0,0.0,0.0,0.0,0.0,0.0,0.0,0.0,0.0,0.0,0.0,0.0,0.0,0.0,0.0,0.0,0.0,0.0,0.0,0.0,0.0,0.0,0.0,0.0,0.0,0.0,0.0,0.0,0.0,0.0,0.0,0.0,0.0,0.0,0.0,0.0,0.0,0.0,0.0,0.0,0.0,0.0,0.0,0.0,0.0,0.0,0.0,0.0,0.0,0.0,0.0,0.0,0.0,0.0,0.0,0.0,0.0,0.0,0.0,0.0,0.0,0.0,0.0,0.0,0.0,0.0,0.0,0.0,0.0,0.0,0.0,0.0,0.0,0.0,0.0,0.0,0.0,0.0,0.0,0.0,0.0,0.0,0.0,0.0,0.0,0.0,0.0,0.0,0.0,0.0,0.0,0.0,0.0,0.0,0.0,0.0,0.0,0.0,0.0,0.0,-0.4502,-0.0201,0.4094,0.7298,0.9234,0.9438,0.9898,0.9437,0.7747,0.7615,0.0,0.0,0.0,0.0,0.0,0.0,0.0,0.0,0.0,0.0,0.0,0.0,0.0,0.0,0.0,0.0,0.0,0.0,0.0,0.0,0.0,0.0,0.0,0.0,0.0,0.0,0.0,0.0,0.0,0.0,0.0,0.0,0.0,0.0,0.0,0.0,0.0,0.0,0.0,0.0,0.0,0.0,0.0,0.0,0.0,0.0,0.0,0.0,0.0,0.0,0.0,0.0,0.0,0.0,0.0,0.0,0.0,0.0,0.0,0.0,0.0,0.0,0.0,0.0,0.0,0.0,0.0,0.0,0.0,0.0,0.0,0.0,0.0,0.0,0.0,0.0,0.0,0.0,0.0,0.0,0.0,0.0,0.0,0.0,0.0,0.0,0.0,0.0,0.0,0.0,0.0,0.0,0.0,0.0,0.0,0.0,0.0,0.0,0.0,0.0,0.0,0.0,-0.2848,0.1957,0.5574,0.8111,0.9577,0.9595,0.9785,0.9236,0.7695,0.7401,0.0,0.0,0.0,0.0,0.0,0.0,0.0,0.0,0.0,0.0,0.0,0.0,0.0,0.0,0.0,0.0,0.0,0.0,0.0,0.0,0.0,0.0,0.0,0.0,0.0,0.0,0.0,0.0,0.0,0.0,0.0,0.0,0.0,0.0,0.0,0.0,0.0,0.0,0.0,0.0,0.0,0.0,0.0,0.0,0.0,0.0,0.0,0.0,0.0,0.0,0.0,0.0,0.0,0.0,0.0,0.0,0.0,0.0,0.0,0.0,0.0,0.0,0.0,0.0,0.0,0.0,0.0,0.0,0.0,0.0,0.0,0.0,0.0,0.0,0.0,0.0,0.0,0.0,0.0,0.0,0.0,0.0,0.0,0.0,0.0,0.0,0.0,0.0,0.0,0.0,0.0,0.0,0.0,0.0,0.0,0.0,0.0,0.0,0.0,0.0,0.0,0.0,-0.019,0.1865,0.7814,0.9253,0.9726,0.9607,0.923,0.8587,0.7655,0.6779,0.0,0.0,0.0,0.0,0.0,0.0,0.0,0.0,0.0,0.0,0.0,0.0,0.0,0.0,0.0,0.0,0.0,0.0,0.0,0.0,0.0,0.0,0.0,0.0,0.0,0.0,0.0,0.0,0.0,0.0,0.0,0.0,0.0,0.0,0.0,0.0,0.0,0.0,0.0,0.0,0.0,0.0,0.0,0.0,0.0,0.0,0.0,0.0,0.0,0.0,0.0,0.0,0.0,0.0,0.0,0.0,0.0,0.0,0.0,0.0,0.0,0.0,0.0,0.0,0.0,0.0,0.0,0.0,0.0,0.0,0.0,0.0,0.0,0.0,0.0,0.0,0.0,0.0,0.0,0.0,0.0,0.0,0.0,0.0,0.0,0.0,0.0,0.0,0.0,0.0,0.0,0.0,0.0,0.0,0.0,0.0,0.0,0.0,0.0,0.0,0.0,0.0,0.3415,0.5289,0.8986,0.9557,0.9755,0.9961,0.9821,0.9108,0.7685,0.0,0.0,0.0,0.0,0.0,0.0,0.0,0.0,0.0,0.0,0.0,0.0,0.0,0.0,0.0,0.0,0.0,0.0,0.0,0.0,0.0,0.0,0.0,0.0,0.0,0.0,0.0,0.0,0.0,0.0,0.0,0.0,0.0,0.0,0.0,0.0,0.0,0.0,0.0,0.0,0.0,0.0,0.0,0.0,0.0,0.0,0.0,0.0,0.0,0.0,0.0,0.0,0.0,0.0,0.0,0.0,0.0,0.0,0.0,0.0,0.0,0.0,0.0,0.0,0.0,0.0,0.0,0.0,0.0,0.0,0.0,0.0,0.0,0.0,0.0,0.0,0.0,0.0,0.0,0.0,0.0,0.0,0.0,0.0,0.0,0.0,0.0,0.0,0.0,0.0,0.0,0.0,0.0,0.0,0.0,0.0,0.0,0.0,0.0,0.0,0.0,0.0,0.373,0.5881,0.7795,0.9099,0.9233,0.9286,0.9361,0.9111,0.8446,0.7262,0.0,0.0,0.0,0.0,0.0,0.0,0.0,0.0,0.0,0.0,0.0,0.0,0.0,0.0,0.0,0.0,0.0,0.0,0.0,0.0,0.0,0.0,0.0,0.0,0.0,0.0,0.0,0.0,0.0,0.0,0.0,0.0,0.0,0.0,0.0,0.0,0.0,0.0,0.0,0.0,0.0,0.0,0.0,0.0,0.0,0.0,0.0,0.0,0.0,0.0,0.0,0.0,0.0,0.0,0.0,0.0,0.0,0.0,0.0,0.0,0.0,0.0,0.0,0.0,0.0,0.0,0.0,0.0,0.0,0.0,0.0,0.0,0.0,0.0,0.0,0.0,0.0,0.0,0.0,0.0,0.0,0.0,0.0,0.0,0.0,0.0,0.0,0.0,0.0,0.0,0.0,0.0,0.0,0.0,0.0,0.0,0.0,0.0,0.0,0.0,0.0,0.0,0.3912,0.6868,0.8723,0.807,0.8298,0.8242,0.765,0.6819,0.6311,0.0,0.0,0.0,0.0,0.0,0.0,0.0,0.0,0.0,0.0,0.0,0.0,0.0,0.0,0.0,0.0,0.0,0.0,0.0,0.0,0.0,0.0,0.0,0.0,0.0,0.0,0.0,0.0,0.0,0.0,0.0,0.0,0.0,0.0,0.0,0.0,0.0,0.0,0.0,0.0,0.0,0.0,0.0,0.0,0.0,0.0,0.0,0.0,0.0,0.0,0.0,0.0,0.0,0.0,0.0,0.0,0.0,0.0,0.0,0.0,0.0,0.0,0.0,0.0,0.0,0.0,0.0,0.0,0.0,0.0,0.0,0.0,0.0,0.0,0.0,0.0,0.0,0.0,0.0,0.0,0.0,0.0,0.0,0.0,0.0,0.0,0.0,0.0,0.0,0.0,0.0,0.0,0.0,0.0,0.0,0.0,0.0,0.0,0.0,0.0,0.0,0.0,0.0,0.3324,0.5753,0.7515,0.7501,0.7714,0.7777,0.7556,0.7335,0.6952,0.6334,0.0,0.0,0.0,0.0,0.0,0.0,0.0,0.0,0.0,0.0,0.0,0.0,0.0,0.0,0.0,0.0,0.0,0.0,0.0,0.0,0.0,0.0,0.0,0.0,0.0,0.0,0.0,0.0,0.0,0.0,0.0,0.0,0.0,0.0,0.0,0.0,0.0,0.0,0.0,0.0,0.0,0.0,0.0,0.0,0.0,0.0,0.0,0.0,0.0,0.0,0.0,0.0,0.0,0.0,0.0,0.0,0.0,0.0,0.0,0.0,0.0,0.0,0.0,0.0,0.0,0.0,0.0,0.0,0.0,0.0,0.0,0.0,0.0,0.0,0.0,0.0,0.0,0.0,0.0,0.0,0.0,0.0,0.0,0.0,0.0,0.0,0.0,0.0,0.0,0.0,0.0,0.0,0.0,0.0,0.0,0.0,0.0,0.0,0.0,0.0,0.0,0.0,0.371,0.5652,0.6988,0.6811,0.6964,0.6915,0.6537,0.653,0.6351,0.5856,0.0,0.0,0.0,0.0,0.0,0.0,0.0,0.0,0.0,0.0,0.0,0.0,0.0,0.0,0.0,0.0,0.0,0.0,0.0,0.0,0.0,0.0,0.0,0.0,0.0,0.0,0.0,0.0,0.0,0.0,0.0,0.0,0.0,0.0,0.0,0.0,0.0,0.0,0.0,0.0,0.0,0.0,0.0,0.0,0.0,0.0,0.0,0.0,0.0,0.0,0.0,0.0,0.0,0.0,0.0,0.0,0.0,0.0,0.0,0.0,0.0,0.0,0.0,0.0,0.0,0.0,0.0,0.0,0.0,0.0,0.0,0.0,0.0,0.0,0.0,0.0,0.0,0.0,0.0,0.0,0.0,0.0,0.0,0.0,0.0,0.0,0.0,0.0,0.0,0.0,0.0,0.0,0.0,0.0,0.0,0.0,0.0,0.0,0.0,0.0,0.0,0.0,0.465,0.6094,0.6781,0.5994,0.6062,0.5854,0.5075,0.5,0.5028,0.5094,0.0,0.0,0.0,0.0,0.0,0.0,0.0,0.0,0.0,0.0,0.0,0.0,0.0,0.0,0.0,0.0,0.0,0.0,0.0,0.0,0.0,0.0,0.0,0.0,0.0,0.0,0.0,0.0,0.0,0.0,0.0,0.0,0.0,0.0,0.0,0.0,0.0,0.0,0.0,0.0,0.0,0.0,0.0,0.0,0.0,0.0,0.0,0.0,0.0,0.0,0.0,0.0,0.0,0.0,0.0,0.0,0.0,0.0,0.0,0.0,0.6087,0.6118,0.0,0.0,0.0,0.0,0.0,0.0,0.0,0.0,0.0,0.0,0.0,0.0,0.0,0.0,0.0,0.0,0.0,0.0,0.0,0.0,0.0,0.0,0.0,0.0,0.0,0.0,0.0,0.0,0.0,0.0,0.0,0.0,0.0,0.0,0.0,0.0,0.0,0.0,0.0,0.0,0.4506,0.506,0.5369,0.5233,0.5213,0.5149,0.5003,0.501,0.5028,0.5087,0.5084,0.0,0.0,0.0,0.0,0.0,0.0,0.0,0.0,0.0,0.0,0.0,0.0,0.0,0.0,0.0,0.0,0.0,0.0,0.0,0.0,0.0,0.0,0.0,0.0,0.0,0.0,0.0,0.0,0.0,0.0,0.0,0.0,0.0,0.0,0.0,0.0,0.0,0.0,0.0,0.0,0.0,0.0,0.0,0.0,0.0,0.0,0.0,0.0,0.0,0.0,0.0,0.0,0.0,0.0,0.0,0.0,0.0,0.0,0.0,0.7159,0.704,0.0,0.0,0.0,0.0,0.0,0.0,0.0,0.0,0.0,0.0,0.0,0.0,0.0,0.0,0.0,0.0,0.0,0.0,0.0,0.0,0.0,0.0,0.0,0.0,0.0,0.0,0.0,0.0,0.0,0.0,0.0,0.0,0.0,0.0,0.0,0.0,0.0,0.0,0.0,0.0,0.4153,0.4534,0.4842,0.4948,0.4924,0.4922,0.4944,0.4976,0.5017,0.5047,0.5058,0.0,0.0,0.0,0.0,0.0,0.0,0.0,0.0,0.0,0.0,0.0,0.0,0.0,0.0,0.0,0.0,0.0,0.0,0.0,0.0,0.0,0.0,0.0,0.0,0.0,0.0,0.0,0.0,0.0,0.0,0.0,0.0,0.0,0.0,0.0,0.0,0.0,0.0,0.0,0.0,0.0,0.0,0.0,0.0,0.0,0.0,0.0,0.0,0.0,0.0,0.0,0.0,0.0,0.7915,0.8276,0.8912,0.7325,0.7357,0.8625,0.8306,0.8219,0.8274,0.7895,0.0,0.0,0.0,0.0,0.0,0.0,0.0,0.0,0.0,0.0,0.0,0.0,0.0,0.0,0.0,0.0,0.0,0.0,0.0,0.0,0.0,0.0,0.7674,0.8421,0.8621,0.8065,0.5948,0.0,0.0,0.0,0.0,0.0,0.0,0.0,0.0,0.0,0.0,0.0,0.386,0.4343,0.4741,0.4872,0.4872,0.4874,0.489,0.4969,0.4995,0.5008,0.502,0.5028,0.0,0.0,0.0,0.0,0.0,0.0,0.0,0.0,0.0,0.0,0.0,0.0,0.0,0.0,0.0,0.0,0.0,0.0,0.0,0.0,0.0,0.0,0.0,0.0,0.0,0.0,0.0,0.0,0.0,0.0,0.0,0.0,0.5673,0.5966,0.0,0.0,0.0,0.0,0.0,0.0,0.0,0.0,0.0,0.0,0.0,0.0,0.0,0.6583,0.709,0.7332,0.7499,0.7558,0.7558,0.7712,0.7956,0.7381,0.7315,0.7674,0.7617,0.0,0.8325,0.8605,0.0,0.0,0.0,0.0,0.0,0.0,0.0,0.0,0.0,0.0,0.0,0.0,0.0,0.0,0.0,0.0,0.0,0.0,0.0,0.0,0.0,0.0,0.805,0.7538,0.7514,0.7504,0.7162,0.7221,0.6904,0.5379,0.5038,0.5114,0.0,0.0,0.0,0.0,0.0,0.0,0.4051,0.4397,0.4728,0.4805,0.4763,0.4763,0.4884,0.4969,0.5006,0.5001,0.5052,0.5066,0.5007,0.5069,0.0,0.0,0.0,0.0,0.0,0.0,0.0,0.0,0.0,0.0,0.0,0.0,0.0,0.0,0.0,0.0,0.0,0.0,0.0,0.0,0.0,0.0,0.0,0.0,0.0,0.0,0.0,0.0,0.0,0.566,0.6333,0.6527,0.6528,0.6512,0.0,0.0,0.0,0.0,0.0,0.0,0.0,0.0,0.0,0.6424,0.6662,0.6778,0.681,0.734,0.7607,0.7607,0.7915,0.8103,0.8179,0.7783,0.7656,0.7763,0.7589,0.7597,0.783,0.8392,0.853,0.843,0.0,0.0,0.0,0.0,0.9266,0.9327,0.9271,0.9257,0.9178,0.8685,0.0,0.0,0.0,0.0,0.0,0.0,0.0,0.7994,0.7761,0.8168,0.8593,0.8421,0.8486,0.8471,0.8054,0.8098,0.7711,0.6042,0.5765,0.5807,0.5917,0.5264,0.0,0.0,0.0,0.448,0.4394,0.4508,0.4634,0.4735,0.4684,0.4692,0.4827,0.4875,0.4909,0.494,0.4967,0.4987,0.4995,0.5036,0.5053,0.0,0.0,0.0,0.0,0.0,0.0,0.0,0.0,0.0,0.0,0.0,0.0,0.0,0.0,0.0,0.0,0.0,0.0,0.0,0.0,0.0,0.0,0.0,0.0,0.0,0.0,0.0,0.0,0.6023,0.6595,0.6638,0.6529,0.6507,0.0,0.0,0.0,0.0,0.0,0.0,0.7344,0.714,0.6954,0.6897,0.6959,0.6951,0.6783,0.7337,0.7628,0.7637,0.8022,0.8225,0.819,0.7896,0.7808,0.7848,0.758,0.7508,0.7572,0.8027,0.8311,0.8485,0.8575,0.8691,0.886,0.9218,0.9482,0.9695,1.0031,1.0201,1.022,0.9827,0.9637,0.9292,0.8018,0.0,0.0,0.0,0.0,0.8566,0.8738,0.894,0.9116,0.9213,0.9375,0.933,0.8694,0.8691,0.8355,0.6814,0.6579,0.665,0.6616,0.5872,0.0,0.6185,0.5526,0.5017,0.5125,0.4921,0.4823,0.4944,0.4739,0.4643,0.4761,0.4801,0.4835,0.4867,0.49,0.4938,0.4973,0.4983,0.5003,0.4997,0.0,0.0,0.0,0.0,0.0,0.0,0.0,0.0,0.0,0.0,0.0,0.0,0.0,0.0,0.0,0.0,0.0,0.0,0.0,0.0,0.0,0.0,0.0,0.0,0.0,0.0,0.0,0.0,0.0,0.5993,0.6669,0.0,0.0,0.0,0.0,0.6011,0.5963,0.6088,0.6448,0.6439,0.6821,0.7607,0.7288,0.7314,0.7835,0.7536,0.7427,0.7427,0.7443,0.7452,0.7452,0.7424,0.7408,0.7427,0.7427,0.7598,0.785,0.7776,0.7563,0.7315,0.7718,0.7925,0.8109,0.8504,0.8885,0.926,0.9397,0.9654,0.9988,1.0401,1.0624,1.052,0.9561,0.9284,0.0,0.0,0.9335,0.9261,0.9703,0.9697,0.9485,0.9186,0.9308,0.9392,0.9047,0.9179,0.8964,0.7599,0.7336,0.7483,0.7921,0.0,0.7412,0.7343,0.7168,0.6864,0.6382,0.5862,0.5572,0.5635,0.5017,0.4625,0.4706,0.4827,0.4863,0.4801,0.4919,0.4975,0.49,0.4959,0.5005,0.4997,0.5001,0.0,0.0,0.0,0.0,0.0,0.0,0.0,0.0,0.0,0.0,0.0,0.0,0.0,0.0,0.0,0.0,0.0,0.0,0.0,0.0,0.0,0.0,0.0,0.0,0.0,0.0,0.0,0.0,0.6349,0.6629,0.0,0.6269,0.6403,0.6689,0.703,0.6831,0.6715,0.686,0.6608,0.6316,0.5976,0.6032,0.604,0.5957,0.6025,0.6042,0.6042,0.6042,0.6042,0.6042,0.6459,0.6527,0.6343,0.6733,0.6989,0.7174,0.7148,0.7691,0.8557,0.8701,0.8962,0.9241,0.9385,0.9503,0.9603,0.9646,0.9886,1.0167,1.0158,0.989,0.9517,0.9174,0.9066,0.9085,0.913,0.9085,0.9046,0.9213,0.9218,0.9152,0.9159,0.9438,0.9577,0.9154,0.9371,0.9386,0.847,0.812,0.8006,0.8078,0.7531,0.7243,0.7712,0.7266,0.6815,0.662,0.651,0.6459,0.6527,0.5883,0.5468,0.5534,0.5069,0.4769,0.474,0.4816,0.4835,0.4781,0.487,0.4928,0.4932,0.4974,0.5014,0.0,0.0,0.0,0.0,0.0,0.0,0.0,0.0,0.0,0.0,0.0,0.0,0.0,0.0,0.0,0.0,0.0,0.0,0.0,0.0,0.0,0.0,0.0,0.0,0.0,0.6107,0.6435,0.6432,0.6679,0.6708,0.6349,0.6465,0.6779,0.7156,0.6742,0.6539,0.6613,0.6202,0.5728,0.5196,0.5396,0.5519,0.5524,0.572,0.5934,0.6164,0.6164,0.6164,0.6203,0.6481,0.6514,0.6342,0.6617,0.6778,0.6855,0.6855,0.7656,0.8819,0.869,0.8885,0.9222,0.9222,0.9288,0.9391,0.971,1.0076,1.0349,1.0128,0.9767,0.9357,0.9095,0.9109,0.9175,0.9065,0.9122,0.9223,0.921,0.9223,0.9249,0.926,0.9529,0.9658,0.9235,0.9406,0.9535,0.9099,0.871,0.8451,0.8409,0.7892,0.7674,0.8282,0.7843,0.7442,0.7442,0.7303,0.7216,0.7255,0.6636,0.6113,0.592,0.5626,0.5225,0.4693,0.498,0.5021,0.4679,0.5061,0.5142,0.487,0.5242,0.5302,0.4993,0.0,0.0,0.0,0.0,0.0,0.0,0.0,0.0,0.0,0.0,0.0,0.0,0.0,0.0,0.0,0.0,0.0,0.0,0.0,0.0,0.0,0.0,0.0,0.5566,0.6022,0.6268,0.6129,0.687,0.7056,0.6197,0.6535,0.6658,0.6273,0.572,0.5491,0.5734,0.5259,0.5122,0.5457,0.5518,0.594,0.6733,0.6781,0.7128,0.7834,0.7834,0.7834,0.7821,0.7615,0.7482,0.7462,0.7174,0.7041,0.7034,0.7034,0.737,0.7852,0.7544,0.7602,0.7913,0.7913,0.8165,0.8607,0.9465,1.0129,1.0545,1.044,1.037,1.0257,0.9542,0.9544,0.9727,0.9413,0.9581,0.9828,0.9804,0.9816,0.9755,0.9452,0.954,0.9589,0.9238,0.9285,0.9379,0.9364,0.9031,0.8813,0.897,0.8884,0.8857,0.9047,0.8951,0.0,0.888,0.8271,0.7831,0.7831,0.7234,0.6555,0.5842,0.6449,0.6233,0.4732,0.5408,0.5485,0.4636,0.5474,0.5598,0.4824,0.575,0.5843,0.4995,0.0,0.0,0.0,0.0,0.0,0.0,0.0,0.0,0.0,0.0,0.0,0.0,0.0,0.0,0.0,0.0,0.0,0.0,0.0,0.0,0.0,0.5144,0.539,0.5761,0.6277,0.6581,0.6597,0.7003,0.7038,0.6505,0.6963,0.7271,0.715,0.7183,0.7064,0.6722,0.6585,0.6085,0.525,0.573,0.5856,0.5576,0.6111,0.6449,0.6648,0.6648,0.6648,0.6696,0.7062,0.722,0.722,0.7524,0.7548,0.7341,0.7341,0.7566,0.7897,0.7797,0.7835,0.7974,0.7974,0.8091,0.8339,0.8849,0.9394,0.9896,1.0125,1.0174,1.0151,0.9953,0.9671,0.9495,0.9786,0.9226,0.8698,0.9396,0.9136,0.8711,0.8919,0.9199,0.9243,0.8679,0.8761,0.8821,0.8325,0.8148,0.8213,0.8637,0.868,0.86,0.8415,0.8351,0.838,0.8526,0.8532,0.8514,0.8514,0.8006,0.7614,0.7445,0.6568,0.5845,0.5417,0.5114,0.4845,0.4619,0.4899,0.4979,0.4801,0.5067,0.5144,0.0,0.0,0.0,0.0,0.0,0.0,0.0,0.0,0.0,0.0,0.0,0.0,0.0,0.0,0.0,0.0,0.0,0.0,0.0,0.0,0.0,0.0,0.5554,0.5787,0.6144,0.6456,0.6717,0.6859,0.7011,0.7092,0.6982,0.7311,0.7567,0.7649,0.7587,0.744,0.7098,0.6846,0.6406,0.5658,0.6057,0.6252,0.6197,0.6603,0.6963,0.7265,0.7265,0.7265,0.7309,0.7511,0.7664,0.7658,0.7839,0.7829,0.7662,0.7662,0.7916,0.8252,0.0,0.0,0.0,0.0,0.8152,0.8422,0.8619,0.9213,0.9884,0.9888,0.9893,0.9852,0.9697,0.9524,0.9447,0.9601,0.9284,0.8942,0.9177,0.9009,0.8768,0.8806,0.8958,0.9,0.8607,0.8655,0.8676,0.8296,0.8214,0.0,0.8347,0.8482,0.8534,0.8334,0.8303,0.827,0.8162,0.8281,0.8416,0.8494,0.8231,0.7986,0.7858,0.7301,0.0,0.0,0.0,0.5413,0.5157,0.4835,0.0,0.0,0.0,0.0,0.0,0.5493,0.0,0.0,0.5094,0.5098,0.0,0.0,0.0,0.0,0.0,0.0,0.0,0.0,0.0,0.0,0.0,0.0,0.0,0.0,0.0,0.0,0.6039,0.6391,0.6647,0.672,0.6807,0.7001,0.7054,0.7174,0.7486,0.7574,0.7682,0.7963,0.7563,0.7285,0.7285,0.6781,0.0,0.0,0.0,0.7015,0.7717,0.7777,0.8156,0.8804,0.8804,0.8804,0.8798,0.8544,0.8424,0.841,0.8143,0.7961,0.7935,0.7935,0.8282,0.8682,0.7673,0.7836,0.8635,0.816,0.8316,0.8797,0.8797,0.0,0.0,0.9834,0.967,0.9602,0.9268,0.9347,0.9542,0.921,0.9491,0.9733,0.9119,0.9159,0.9207,0.8838,0.8723,0.8679,0.8679,0.8706,0.8734,0.8734,0.8761,0.8671,0.8245,0.8397,0.8564,0.8445,0.8476,0.8323,0.7797,0.7752,0.7823,0.802,0.8075,0.0,0.7605,0.8174,0.7747,0.5908,0.6409,0.6521,0.6,0.5245,0.5588,0.7121,0.659,0.6244,0.6107,0.6249,0.5954,0.5271,0.514,0.5086,0.0,0.0,0.0,0.0,0.0,0.0,0.0,0.0,0.0,0.0,0.0,0.0,0.0,0.0,0.0,0.6084,0.6513,0.6961,0.7298,0.7515,0.7508,0.7074,0.7235,0.7446,0.7506,0.7957,0.8223,0.8283,0.8402,0.8475,0.8475,0.8371,0.8019,0.7488,0.8022,0.8153,0.7723,0.8268,0.8646,0.8804,0.8804,0.0,0.8804,0.8751,0.8724,0.8717,0.8664,0.8504,0.829,0.829,0.8241,0.8165,0.8666,0.8797,0.8683,0.8602,0.8878,0.9359,0.9359,0.9765,1.0273,1.0186,1.0156,1.0137,1.0059,0.9801,0.0,0.9953,0.9348,0.8693,0.9323,0.88,0.8172,0.8417,0.8179,0.7918,0.7918,0.8176,0.8393,0.8393,0.8606,0.8865,0.9107,0.8776,0.8276,0.7592,0.7746,0.7796,0.7373,0.7457,0.7562,0.7621,0.7909,0.8069,0.7981,0.7728,0.7398,0.6991,0.6714,0.6496,0.6386,0.644,0.6364,0.6172,0.6676,0.6648,0.6107,0.6757,0.7042,0.6913,0.5614,0.501,0.0,0.0,0.0,0.0,0.0,0.0,0.0,0.0,0.0,0.0,0.0,0.7017,0.6546,0.0,0.7086,0.7078,0.7288,0.7528,0.7675,0.7836,0.7769,0.747,0.7609,0.7756,0.795,0.8246,0.8437,0.8577,0.8724,0.8804,0.8804,0.8804,0.8646,0.8268,0.8593,0.8646,0.8262,0.8593,0.8804,0.8804,0.8804,0.8804,0.8804,0.8804,0.8804,0.8804,0.8804,0.8724,0.8642,0.9329,0.938,0.9162,1.0325,0.9933,0.8866,0.9512,0.9771,0.9808,0.9808,1.0012,1.0283,1.0283,1.0283,1.0283,1.0283,1.0118,0.9961,1.0205,0.981,0.9289,0.9541,0.914,0.866,0.8444,0.8213,0.7998,0.7744,0.786,0.8004,0.8004,0.8138,0.8382,0.8773,0.8749,0.8531,0.8196,0.8093,0.7862,0.7363,0.7153,0.708,0.7191,0.738,0.7591,0.7781,0.7408,0.7195,0.7298,0.6702,0.6357,0.6403,0.6588,0.6549,0.6258,0.6745,0.6838,0.6496,0.6905,0.7122,0.7129,0.6332,0.6043,0.0,0.0,0.0,0.0,0.0,0.0,0.0,0.0,0.6459,0.6169,0.7073,0.7767,0.7292,0.7667,0.8007,0.7936,0.7976,0.8016,0.8016,0.8063,0.8054,0.8054,0.8049,0.811,0.835,0.8424,0.8557,0.8791,0.8804,0.8804,0.8804,0.8804,0.8804,0.8804,0.8751,0.8724,0.8724,0.8724,0.8697,0.8637,0.8751,0.8778,0.8724,0.8784,0.8857,0.9008,0.9106,0.9211,0.9256,1.0364,1.0598,1.0441,1.1657,1.1024,0.9565,1.057,1.0724,1.0395,1.0395,1.0473,1.0527,1.0527,1.0469,1.04,1.04,1.0342,1.0283,1.0283,1.0283,1.0195,0.9853,0.9734,0.957,0.8812,0.8614,0.8489,0.796,0.7871,0.7918,0.7918,0.7976,0.8166,0.8551,0.8816,0.8995,0.8985,0.8667,0.8211,0.7493,0.7019,0.6782,0.6837,0.6874,0.7045,0.7411,0.7195,0.7136,0.7347,0.6825,0.6546,0.6636,0.6821,0.6887,0.6791,0.7148,0.7265,0.7141,0.7289,0.7367,0.7367,0.7359,0.7337,0.7148,0.6758,0.6559,0.6904,0.6569,0.6493,0.0,0.0,0.6857,0.7423,0.7592,0.7731,0.7925,0.7923,0.7936,0.7923,0.815,0.8323,0.8323,0.8544,0.8711,0.8711,0.8484,0.8337,0.837,0.8611,0.8771,0.8804,0.8804,0.8804,0.8804,0.8804,0.8804,0.8804,0.8557,0.8424,0.8424,0.8424,0.829,0.7988,0.8557,0.8671,0.843,0.8691,0.9113,0.971,1.0312,1.0568,1.0568,1.0762,1.0788,1.0806,1.1554,1.1675,1.15,1.1512,1.148,1.1441,1.1441,1.1455,1.1459,1.1459,1.1152,1.084,1.084,1.0576,1.0283,1.0283,1.0283,1.0273,1.0225,1.0257,1.0174,0.9619,0.9451,0.9245,0.8498,0.8515,0.8679,0.8679,0.8965,0.9316,0.9659,0.9738,0.9501,0.8693,0.8825,0.8612,0.7531,0.7344,0.7137,0.6684,0.6791,0.698,0.7225,0.7202,0.7296,0.7563,0.7604,0.7697,0.7898,0.8258,0.8149,0.75,0.8383,0.8554,0.7961,0.8691,0.9028,0.9028,0.9037,0.8276,0.822,0.7565,0.7089,0.7245,0.7038,0.695,0.7491,0.7609,0.7641,0.7628,0.8091,0.849,0.8303,0.8342,0.8444,0.0,0.8544,0.8624,0.8624,0.8731,0.8744,0.8577,0.8597,0.8624,0.8624,0.8738,0.8804,0.8804,0.8804,0.8804,0.8804,0.8651,0.883,0.9354,0.8721,0.857,0.8997,0.8741,0.8477,0.8196,0.8611,0.8744,0.8631,0.8751,0.9159,0.9814,1.0115,1.0415,1.0813,1.1216,1.1366,1.1466,1.2138,1.2452,1.2414,1.2367,1.2168,1.1953,1.1953,1.1777,1.1606,1.1606,1.1479,1.1325,1.1348,1.1266,1.1102,1.1179,1.0954,1.0725,1.0725,1.0517,1.0203,0.9724,0.9592,0.9381,0.8572,0.8643,0.8789,0.8549,0.88,0.9182,0.9555,0.9607,0.9534,0.9353,0.9205,0.8937,0.8449,0.7814,0.7194,0.6662,0.6685,0.6861,0.7178,0.7195,0.7365,0.7753,0.7827,0.7898,0.7983,0.8227,0.8214,0.7895,0.8525,0.8717,0.8445,0.8867,0.9057,0.9057,0.9057,0.8699,0.8703,0.8087,0.7654,0.7747,0.7586,0.7492,0.758,0.8054,0.8378,0.8102,0.8666,0.9168,0.8818,0.8813,0.8857,0.9061,0.891,0.8857,0.9061,0.891,0.8731,0.8517,0.8684,0.8857,0.9061,0.891,0.8857,0.9061,0.9061,0.9159,0.9361,0.9147,0.938,1.0056,0.9357,0.9195,0.9663,0.9365,0.9076,0.8826,0.9169,0.9318,0.924,0.9526,0.9917,1.0364,1.0576,1.0931,1.1434,1.1882,1.208,1.2187,1.2666,1.2881,1.2881,1.2881,1.2676,1.2412,1.2412,1.2197,1.2014,1.2128,1.2138,1.2054,1.2278,1.2155,1.1955,1.2001,1.1652,1.1207,1.1207,1.1057,1.0795,1.0317,1.0278,1.0148,0.9311,0.9213,0.9188,0.8879,0.8889,0.9089,0.9475,0.9528,0.9607,0.988,0.9566,0.9277,0.9113,0.8102,0.7244,0.6874,0.6687,0.6727,0.7096,0.7114,0.7317,0.7783,0.7827,0.7841,0.7899,0.8037,0.8102,0.8102,0.845,0.8604,0.8604,0.8771,0.8852,0.8852,0.888,0.8891,0.8061,0.7916,0.8076,0.8548,0.8377,0.8194,0.8584,0.8758,0.8956,0.9287,0.9362,0.9475,0.9688,0.9256,0.9008,0.9666,0.9211,0.9008,0.9666,0.9211,0.8804,0.8798,0.8804,0.9061,0.9718,0.9159,0.9061,0.971,0.9762,1.0064,1.0712,1.0704,1.0754,1.0762,1.0466,1.0333,1.0381,1.0341,1.0159,0.9856,1.0475,1.0582,1.0358,1.13,1.1715,1.1765,1.251,1.2832,1.2832,1.2881,1.2881,1.2881,1.2881,1.2881,1.2881,1.2881,1.2871,1.2861,1.2861,1.2852,1.2977,1.3558,1.3422,1.3189,1.3849,1.3358,1.258,1.2569,1.2181,1.1774,1.1774,1.2102,1.2318,1.1825,1.2023,1.2087,1.1194,1.0587,1.0154,1.013,0.9726,0.9487,0.9828,0.988,0.9905,0.9905,0.988,0.9679,0.9163,0.8102,0.7393,0.7381,0.6912,0.6685,0.6878,0.6911,0.7107,0.7575,0.762,0.7694,0.7885,0.8037,0.8102,0.8102,0.8293,0.8415,0.8415,0.8604,0.8705,0.8705,0.884,0.8891,0.9325,0.937,0.9394,0.9477,0.9567,0.9674,0.9795,0.9995,1.0132,0.9979,0.9955,0.9867,0.9652,0.9294,0.9156,0.9349,0.9078,0.9061,0.9718,0.9614,0.9585,0.9815,0.9636,0.0,0.0,0.9343,0.9061,0.9769,0.9361,0.9413,1.0115,0.9957,1.0184,1.0754,1.0515,1.0381,1.0381,1.0129,0.9875,0.9596,0.995,1.03,1.0689,1.1006,1.1366,1.1814,1.208,1.2452,1.2881,1.2881,1.2881,1.2881,1.2881,1.2881,1.2881,1.2881,1.2881,1.2881,1.2881,1.2881,1.292,1.3152,1.3365,1.3613,1.3895,1.3773,1.3537,1.3565,1.2937,1.2246,1.2246,1.2138,1.1993,1.1847,1.1903,1.1827,1.124,1.1143,1.0998,1.0314,1.0237,1.0197,0.9942,0.9905,0.9905,0.9905,0.9905,0.9705,0.9176,0.8462,0.792,0.77,0.7144,0.6944,0.7329,0.736,0.7484,0.7783,0.7797,0.7841,0.7899,0.7941,0.7969,0.7969,0.8119,0.8198,0.8198,0.8526,0.8705,0.8705,0.884,0.8891,1.0296,1.0334,1.0275,1.0343,1.044,1.0524,1.0524,1.0746,1.0853,1.0615,1.0415,1.0254,0.9972,0.9432,0.9152,0.9501,0.9069,0.8937,0.9695,0.9814,0.9885,1.0162,1.0187,1.0327,0.0,1.0043,0.9814,1.0466,0.9917,0.9917,1.088,1.0714,1.0944,1.1525,1.1394,1.127,1.127,1.1014,1.0822,1.0638,1.0822,1.1133,1.1534,1.1534,1.1783,1.2187,1.2187,1.2452,1.2881,1.2881,1.2881,1.2881,1.2881,1.2881,1.2881,1.2881,1.2881,1.2881,1.2881,1.2881,1.2929,1.3152,1.3647,1.4182,1.445,1.4533,1.4566,1.4425,1.3753,1.3034,1.2816,1.2544,1.2282,1.2282,1.2282,1.2224,1.193,1.1888,1.1761,1.1101,1.0825,1.0581,1.0257,1.0031,0.9905,0.9905,0.9905,0.9767,0.944,0.875,0.8224,0.7991,0.7345,0.7058,0.7424,0.7545,0.7694,0.7885,0.7899,0.7899,0.7899,0.7899,0.7899,0.7899,0.7983,0.8037,0.8037,0.8332,0.8513,0.8592,0.876,0.8863,1.0869,1.085,1.0804,1.1174,1.1106,1.0914,1.0897,1.1063,1.1219,1.1156,1.0849,1.0588,1.0543,0.953,0.9035,0.9987,0.9215,0.8818,0.9717,0.9865,0.9917,0.0,0.0,0.0,0.0,0.0,1.1065,1.1814,1.1216,1.1384,1.2725,1.2832,1.2822,1.2822,1.2881,1.2881,1.2832,1.2822,1.2822,1.2822,1.2822,1.2871,1.2881,1.2881,1.2881,1.2881,1.2881,1.2881,1.2881,1.2881,1.2881,1.2881,1.2881,1.2881,1.2881,1.2881,1.2881,1.2881,1.2881,1.2881,1.2968,1.3552,1.4143,1.4789,1.5365,1.5587,1.5539,1.5028,1.4513,1.3959,1.3348,1.3198,1.3198,1.3198,1.3198,1.3198,1.3198,1.2785,1.2441,1.2416,1.147,1.0694,1.0694,1.027,0.9905,0.9905,0.9905,0.9905,0.9905,0.9012,0.837,0.8379,0.7545,0.7066,0.7266,0.7484,0.7694,0.7885,0.7899,0.7899,0.7899,0.7899,0.7899,0.7899,0.7899,0.7899,0.7899,0.8037,0.8198,0.8415,0.8604,0.8771,1.1777,1.2068,1.233,1.2426,1.2434,1.2278,1.1921,1.1912,1.1662,1.0717,1.0431,1.0164,0.9543,0.9261,0.9148,0.9205,0.9518,0.0,1.0468,1.0965,0.0,1.2058,0.0,1.1832,1.2559,1.1534,1.1325,1.251,1.1484,1.0965,1.1334,1.1823,1.208,1.208,1.2608,1.2627,1.2107,1.2089,1.208,1.208,1.208,1.2344,1.2881,1.2881,1.2881,1.2881,1.2881,1.2881,1.2881,1.2881,1.2881,1.2881,1.2881,1.2881,1.2881,1.2881,1.2881,1.2881,1.2881,1.2881,1.2929,1.3055,1.3563,1.4143,1.4744,1.4981,1.4994,1.491,1.4513,1.3959,1.3348,1.3198,1.3198,1.3198,1.3198,1.3198,1.3198,1.3085,1.2872,1.2492,1.147,1.0694,1.0694,1.027,0.9905,0.9905,0.9905,0.9905,0.9905,0.9532,0.932,0.9478,0.8711,0.8261,0.8445,0.8079,0.7856,0.7899,0.7899,0.7899,0.7899,0.7899,0.7899,0.7899,0.7899,0.7899,0.7899,0.8037,0.8198,0.8415,0.8604,0.8771,1.2393,1.2695,1.2881,1.2881,1.2744,1.248,1.2041,1.1641,1.1113,1.0186,0.9853,0.957,0.9092,0.9023,0.9041,0.0,0.0,0.0,1.0351,1.1216,1.1972,0.0,1.2344,0.0,1.2871,1.2206,1.194,1.2393,1.1674,1.1375,1.1692,1.2089,1.2286,1.2286,1.2666,1.2725,1.2264,1.2295,1.2286,1.2286,1.2286,1.251,1.2881,1.2881,1.2881,1.2881,1.2881,1.2881,1.2881,1.2881,1.2881,1.2881,1.2881,1.2881,1.2881,1.2881,1.2881,1.2929,1.319,1.3286,1.3286,1.3286,1.3695,1.4329,1.4915,1.5321,1.5514,1.5312,1.4878,1.4324,1.3735,1.3421,1.3198,1.3198,1.3198,1.3198,1.3198,1.3198,1.3035,1.2484,1.1701,1.1023,1.0744,1.027,0.9944,1.0084,1.011,1.0173,1.0323,0.991,0.9689,0.9914,0.9138,0.8639,0.8726,0.8213,0.7899,0.7899,0.7899,0.7899,0.7899,0.7899,0.7899,0.7899,0.797,0.7997,0.7997,0.8147,0.8332,0.853,0.8657,0.8771,1.2783,1.2881,1.2881,1.2881,1.2559,1.21,1.1592,1.09,1.0127,0.958,0.918,0.8906,0.8848,0.8833,0.8873,0.8937,0.0,0.9988,1.0066,1.1174,1.1972,1.1972,1.2501,1.2881,1.2881,1.2881,1.2618,1.1972,1.1972,1.2187,1.2715,1.2832,1.2881,1.2881,1.2881,1.2881,1.2881,1.2881,1.2881,1.2881,1.2881,1.2881,1.2881,1.2881,1.2881,1.2881,1.2881,1.2881,1.2881,1.2881,1.2881,1.2881,1.2881,1.2881,1.2881,1.2881,1.2881,1.2968,1.3505,1.3732,1.3815,1.3909,1.4283,1.4789,1.541,1.5964,1.6311,1.5844,1.5341,1.4878,1.4249,1.3697,1.3286,1.3223,1.3198,1.3198,1.3198,1.3198,1.306,1.2584,1.2077,1.1512,1.0906,1.0383,1.011,1.036,1.0396,1.0532,1.092,1.0303,0.9909,1.0134,0.9399,0.8868,0.8807,0.8329,0.8034,0.8034,0.7944,0.7899,0.7899,0.7899,0.7899,0.7899,0.8037,0.8102,0.8102,0.8293,0.8504,0.8705,0.8705,0.8771,1.2861,1.2881,1.2881,1.2881,1.2559,1.1976,1.1201,1.0635,0.0,0.8828,0.8535,0.8379,0.7987,0.8486,0.9028,0.9213,1.0404,1.1295,1.146,1.2197,1.2715,0.0,1.2822,1.2881,1.2881,1.2881,1.2832,1.2725,1.2715,1.251,1.203,1.2559,1.2881,1.2881,1.2881,1.2881,1.2881,1.2881,1.2881,1.2881,1.2881,1.2881,1.2881,1.2881,1.2881,1.2881,1.2881,1.2881,1.2881,1.2881,1.2881,1.2881,1.2881,1.2881,1.2881,1.2881,1.2881,1.2929,1.3017,1.3372,1.3862,1.4376,1.4606,1.4789,1.541,1.5676,1.5755,1.5707,1.563,1.5356,1.4349,1.4009,1.3833,1.3311,1.3198,1.3198,1.3198,1.3198,1.3173,1.3073,1.2622,1.209,1.1538,1.096,1.0515,1.0426,1.0396,1.0592,1.1173,1.1096,1.1025,1.107,1.0678,1.0396,1.0396,0.9364,0.8725,0.8725,0.8199,0.7899,0.7899,0.7899,0.7899,0.7899,0.8037,0.8102,0.8102,0.8293,0.8504,0.8705,0.8705,0.8771,1.2881,1.2881,1.2881,1.2881,1.255,1.1947,1.0863,0.0,0.0,0.8314,0.8037,0.7978,0.7734,0.8252,0.8742,0.8923,1.0071,1.1046,1.142,1.2082,1.2627,1.2852,1.2881,1.2881,1.2881,1.2881,1.2881,1.2881,1.2881,1.2774,1.2393,1.2715,1.2881,1.2881,1.2881,1.2881,1.2881,1.2881,1.2881,1.2881,1.2881,1.2881,1.2881,1.2881,1.2881,1.2881,1.2881,1.2881,1.2881,1.2881,1.2881,1.2881,1.2881,1.2881,1.2881,1.2881,1.2881,1.2929,1.3238,1.3779,1.4376,1.496,1.5186,1.5276,1.5876,1.6051,1.6089,1.6111,1.5919,1.5567,1.5079,1.4513,1.4022,1.3722,1.3446,1.3198,1.3198,1.3198,1.3198,1.3198,1.276,1.238,1.2324,1.1564,1.107,1.1341,1.1097,1.1043,1.149,1.1557,1.1557,1.1557,1.1103,1.0798,1.0798,0.995,0.9413,0.9413,0.9214,0.8927,0.8545,0.8647,0.8548,0.8164,0.8335,0.8409,0.8409,0.8587,0.8708,0.8806,0.8806,0.884,1.2852,1.2881,1.2861,1.2764,1.2539,1.1965,1.0585,1.0066,0.9446,0.8098,0.7841,0.7812,0.7725,0.8086,0.8488,0.0,0.9649,1.056,1.1306,1.1883,1.2393,1.2832,1.2881,0.0,1.2881,1.2881,1.2881,1.2881,1.2881,1.2881,1.2881,1.2881,1.2881,1.2881,1.2881,1.2881,1.2881,1.2881,1.2881,1.2881,1.2881,1.2881,1.2881,1.2881,1.2881,1.2881,1.2881,1.2881,1.2881,1.2881,1.2881,1.2881,1.2881,1.2881,1.2881,1.2881,1.2881,1.2968,1.36,1.419,1.4789,1.541,1.5676,1.5864,1.638,1.6522,1.6522,1.6522,1.6208,1.5844,1.5731,1.5004,1.4211,1.3972,1.3546,1.3198,1.3198,1.3301,1.3357,1.3357,1.3068,1.2903,1.312,1.235,1.1912,1.2435,1.1947,1.1649,1.1977,1.188,1.1805,1.1805,1.1341,1.1007,1.1007,1.0458,1.0136,1.0176,1.0191,0.9967,0.9437,0.9476,0.9239,0.8653,0.8673,0.8705,0.8705,0.884,0.8891,0.8891,0.8891,0.8891,1.2773,1.2881,1.2783,1.2393,1.2262,1.1913,1.052,0.0,0.9859,0.8527,0.8233,0.8148,0.7754,0.8086,0.8652,0.9384,0.9962,1.0732,1.195,1.218,1.2393,1.2832,0.0,0.0,1.2881,1.2881,1.2881,1.2881,1.2881,1.2881,1.2881,1.2881,1.2881,1.2881,1.2881,1.2881,1.2881,1.2881,1.2881,1.2881,1.2881,1.2881,1.2881,1.2881,1.2881,1.2881,1.2881,1.2881,1.2881,1.2881,1.2881,1.2881,1.2881,1.2881,1.2881,1.2881,1.2881,1.2968,1.36,1.419,1.4789,1.541,1.5952,1.6423,1.6466,1.6522,1.6522,1.6522,1.6441,1.6321,1.5831,1.5254,1.4588,1.3546,1.3235,1.3198,1.3198,1.3514,1.3835,1.3835,1.4076,1.4145,1.3716,1.3536,1.3403,1.3231,1.2636,1.2327,1.2664,1.2164,1.1805,1.1805,1.1745,1.1715,1.1715,1.1096,1.081,1.1079,1.0525,1.0285,1.0447,0.9849,0.9479,0.94,0.8931,0.8705,0.8705,0.884,0.8891,0.8891,0.8891,0.8891,1.2441,1.2676,1.2773,1.2334,1.2443,1.2262,1.0605,1.0476,1.0325,0.8888,0.8449,0.8262,0.8091,0.8009,0.8262,0.9121,0.9395,0.9961,1.125,1.166,1.1992,1.2441,1.2725,1.2881,0.0,1.2881,1.2881,1.2881,1.2881,1.2881,1.2881,1.2881,1.2881,1.2881,1.2881,1.2881,1.2881,1.2881,1.2881,1.2881,1.2881,1.2881,1.2881,1.2881,1.2881,1.2881,1.2881,1.2881,1.2881,1.2881,1.2881,1.2881,1.2881,1.2881,1.2929,1.3334,1.342,1.3515,1.4154,1.4744,1.5276,1.5543,1.6008,1.6522,1.6522,1.6522,1.6522,1.6522,1.6522,1.6471,1.6245,1.5781,1.509,1.3986,1.3722,1.3727,1.3625,1.3769,1.3967,1.4214,1.4406,1.4512,1.452,1.4211,1.3984,1.418,1.3616,1.3119,1.2822,1.2576,1.2239,1.1835,1.1805,1.1805,1.1805,1.1697,1.1688,1.1792,1.1848,1.1724,1.1385,1.1264,1.0958,1.0461,1.0249,0.9924,0.9488,0.9549,0.9337,0.8891,0.8891,0.8891,1.2178,1.2559,1.2827,1.2382,1.2648,1.2564,1.0786,1.0791,1.0762,0.9269,0.88,0.8561,0.8347,0.8062,0.8079,0.8734,0.8926,0.9453,1.0732,1.1279,1.1822,1.2353,0.0,1.2881,1.2881,1.2881,1.2881,1.2881,1.2881,1.2881,1.2881,1.2881,1.2881,1.2881,1.2881,1.2881,1.2881,1.2881,1.2881,1.2881,1.2881,1.2881,1.2881,1.2881,1.2881,1.2881,1.2881,1.2881,1.2881,1.2881,1.2881,1.2881,1.2881,1.2881,1.2978,1.3372,1.3552,1.3647,1.4433,1.4971,1.541,1.5732,1.6139,1.6522,1.6522,1.6522,1.6522,1.6522,1.6522,1.6471,1.6321,1.6106,1.5643,1.4558,1.4385,1.4441,1.4152,1.4181,1.4342,1.4627,1.4783,1.4968,1.5255,1.4936,1.4715,1.5054,1.4528,1.3929,1.346,1.3056,1.2644,1.2244,1.2039,1.1933,1.1933,1.2086,1.2287,1.2431,1.2794,1.28,1.2357,1.232,1.2026,1.1468,1.1214,1.0741,1.0001,1.0001,0.9624,0.8902,0.8946,0.899,1.2183,1.2636,1.2902,1.2507,1.2773,1.2706,1.1143,1.1216,1.1173,0.9704,0.9408,0.9155,0.8421,0.829,0.8321,0.8405,0.873,0.9453,1.0732,1.1279,1.193,0.0,1.2881,1.2881,1.2881,1.2881,1.2881,1.2881,1.2881,1.2881,1.2881,1.2881,1.2881,1.2881,1.2881,1.2881,1.2881,1.2881,1.2881,1.2881,1.2881,1.2881,1.2881,1.2881,1.2881,1.2881,1.2881,1.2881,1.2881,1.2881,1.2881,1.2881,1.2881,1.2881,1.2881,1.2929,1.2929,1.3065,1.4294,1.4698,1.4926,1.6107,1.6466,1.6522,1.6522,1.6522,1.6522,1.6522,1.6522,1.6396,1.5844,1.6111,1.6189,1.4967,1.5094,1.5299,1.4625,1.4814,1.5104,1.5104,1.5477,1.5799,1.5799,1.5799,1.5784,1.5784,1.5229,1.4782,1.4767,1.3625,1.2894,1.3151,1.2592,1.2205,1.2205,1.2205,1.2431,1.2959,1.2995,1.3121,1.3362,1.2686,1.2297,1.2297,1.1502,1.0741,1.0001,1.0001,0.9624,0.8902,0.9043,0.9159,1.1191,1.1584,1.1842,1.1344,1.1614,1.1708,1.0532,1.0626,1.0672,0.9632,0.9182,0.8844,0.8393,0.8062,0.8168,0.9072,0.931,0.0,1.1172,1.1738,0.0,1.2402,1.2695,1.2881,1.2881,1.2881,1.2881,1.2881,1.2881,1.2881,1.2881,1.2881,1.2881,1.2881,1.2881,1.2881,1.2881,1.2881,1.2881,1.2881,1.2881,1.2881,1.2881,1.2881,1.2881,1.2881,1.2881,1.2881,1.2881,1.2881,1.2881,1.2881,1.2881,1.3152,1.3552,1.3967,1.4376,1.4869,1.5644,1.5932,1.5976,1.638,1.6522,1.6522,1.6522,1.6522,1.6522,1.6522,1.6522,1.6471,1.6308,1.6372,1.6376,1.6008,1.5708,1.5505,1.5576,1.5344,1.5195,1.5522,1.5712,1.5799,1.5799,1.5799,1.5799,1.5799,1.5619,1.5402,1.5174,1.4781,1.4466,1.4311,1.3643,1.3018,1.2522,1.2646,1.2813,1.2995,1.3173,1.3311,1.3396,1.3176,1.3057,1.3057,1.2803,1.2297,1.157,1.157,1.1247,1.0596,1.0094,0.9952,1.0687,1.1145,1.1469,1.1125,1.1272,1.1327,1.0449,1.04,1.0293,0.9557,0.9089,0.8706,0.8365,0.8091,0.8129,0.8779,0.9145,0.9785,1.0959,0.0,0.0,1.2441,1.2715,1.2881,1.2881,1.2881,1.2881,1.2881,1.2881,1.2881,1.2881,1.2881,1.2881,1.2881,1.2881,1.2881,1.2881,1.2881,1.2881,1.2881,1.2881,1.2881,1.2881,1.2881,1.2881,1.2881,1.2881,1.2881,0.0,1.3152,1.3238,1.3238,1.3478,1.3789,1.419,1.456,1.4926,1.5365,1.5964,1.6151,1.6194,1.6423,1.6522,1.6522,1.6522,1.6522,1.6522,1.6522,1.6637,1.6795,1.6795,1.7118,1.7357,1.7079,1.6665,1.6341,1.6343,1.5812,1.5448,1.5741,1.5799,1.5799,1.5799,1.5799,1.5856,1.5983,1.5983,1.597,1.5869,1.5663,1.5463,1.534,1.4681,1.4003,1.3383,1.3125,1.3049,1.3138,1.3311,1.3396,1.3396,1.3396,1.3396,1.3396,1.3396,1.3041,1.2297,1.1992,1.1687,1.1343,1.0941,1.0649,0.0,1.1101,1.1482,1.1475,1.1475,1.1324,1.0756,1.0407,0.0,0.9476,0.9074,0.869,0.8379,0.8283,0.8189,0.792,0.8574,0.9404,0.0,1.1175,0.0,0.0,1.2881,1.2881,1.2881,1.2881,1.2881,1.2881,1.2881,1.2881,1.2881,1.2881,1.2881,1.2881,1.2881,1.2881,1.2881,1.2881,1.2881,1.2881,1.2881,1.2881,1.2881,1.2881,1.2881,1.2881,1.2881,1.2929,1.3017,1.3552,1.3815,1.3909,1.4468,1.4744,1.4744,1.4744,1.4789,1.4926,1.5454,1.5676,1.5776,1.6337,1.6522,1.6522,1.6522,1.6522,1.6522,1.6522,1.6879,1.7312,1.7312,1.8066,1.8711,1.8122,1.7832,1.7545,1.6921,1.6293,1.5858,1.5814,1.5799,1.5799,1.5799,1.5827,1.5926,1.6246,1.6328,1.6448,1.6789,1.6297,1.5998,1.6285,1.5709,1.5117,1.4678,1.3689,1.3188,1.3396,1.3396,1.3396,1.3396,1.3396,1.3396,1.3396,1.3396,1.3074,1.2396,1.1635,1.1346,1.1503,1.1628,1.1368,1.0084,0.0,1.037,1.0314,1.0295,1.0257,0.0,1.0041,0.978,0.9085,0.8871,0.8716,0.843,0.8069,0.8247,0.9508,0.9853,1.04,1.1602,1.2236,0.0,1.2861,1.2881,1.2881,1.2881,1.2881,1.2881,1.2881,1.2881,1.2881,1.2881,1.2881,1.2881,1.2881,1.2881,1.2881,1.2881,1.2881,1.2881,1.2881,1.2881,1.2881,1.2881,1.2881,1.2881,1.2881,1.2881,1.3152,1.36,1.3732,1.405,1.4514,1.4652,1.4971,1.541,1.541,1.5688,1.6107,1.6238,1.6281,1.6293,1.6466,1.6522,1.6522,1.6522,1.6522,1.6522,1.6522,1.6879,1.7312,1.7312,1.7787,1.8338,1.8579,1.826,1.7777,1.7528,1.695,1.6338,1.5903,1.5799,1.5799,1.5799,1.6011,1.6219,1.6301,1.6528,1.6815,1.715,1.7035,1.7056,1.7406,1.6778,1.6315,1.6187,1.4929,1.3935,1.343,1.3396,1.3396,1.3396,1.3396,1.3396,1.3396,1.3396,1.3377,1.328,1.3002,1.3085,1.3497,1.2776,1.2514,0.9905,1.0106,1.0298,1.0264,1.0282,1.0282,1.0282,0.995,0.9502,0.8926,0.0,0.872,0.8447,0.8328,0.8628,0.9802,1.0156,1.0742,0.0,0.0,1.2881,1.2881,1.2881,1.2881,1.2881,1.2881,1.2881,1.2881,1.2881,1.2881,1.2881,1.2881,1.2881,1.2881,1.2881,1.2881,1.2881,1.2881,1.2881,1.2881,1.2881,1.2881,1.2881,1.2881,1.3065,1.3286,1.3017,1.3382,1.419,1.419,1.456,1.5141,1.5433,1.5744,1.5996,1.5996,1.6238,1.6522,1.6522,1.6522,1.6522,1.6522,1.6522,1.6522,1.6522,1.6522,1.6522,1.6522,1.7076,1.7666,1.7666,1.8263,1.8893,1.9207,1.8745,1.8238,1.8171,1.7384,1.6607,1.6293,1.5979,1.5799,1.5799,1.6095,1.6355,1.6501,1.6799,1.715,1.7502,1.7526,1.7595,1.7789,1.7439,1.7067,1.6733,1.5967,1.5054,1.3971,1.3599,1.3396,1.3396,1.3396,1.3396,1.3396,1.3445,1.3542,1.3584,1.3619,1.3786,1.4051,1.3596,1.331,1.0006,1.0433,1.0781,1.0563,1.0547,1.0613,1.0538,0.0,0.0,0.0,0.0,0.8943,0.8725,0.892,0.9313,0.9824,1.0283,0.0,1.2158,1.2646,1.2881,1.2881,1.2881,1.2881,1.2881,1.2881,1.2881,1.2881,1.2881,1.2881,1.2881,1.2968,1.3065,1.3065,1.3104,1.3152,1.3152,1.3055,1.2968,1.2881,1.2968,1.3065,1.3065,1.3065,1.3372,1.3909,1.3382,1.3789,1.4835,1.4835,1.5186,1.5776,1.6281,1.6522,1.6522,1.6522,1.6522,1.6522,1.6522,1.6522,1.6522,1.6522,1.6522,1.6522,1.6522,1.6522,1.6522,1.6595,1.7353,1.8145,1.8224,1.8968,1.969,1.969,1.9256,1.8822,1.8732,1.7712,1.6831,1.6726,1.6219,1.5799,1.5799,1.6108,1.6474,1.6763,1.7126,1.7479,1.7749,1.7811,1.7811,1.7811,1.7811,1.7557,1.6936,1.6766,1.6174,1.4919,1.4039,1.3532,1.3396,1.3396,1.3413,1.3429,1.354,1.3615,1.3691,1.3824,1.3941,1.3997,1.4136,1.3853,1.0443,1.1023,1.1165,0.9918,0.9944,1.0149,0.9704,0.9482,0.0,0.0,0.0,0.0,0.0,1.01,1.0431,1.1238,1.1697,1.2129,1.2695,1.2842,1.2881,1.2881,1.2881,1.2881,1.2881,1.2881,1.2881,1.2881,1.2881,1.2881,1.2881,1.3372,1.3637,1.3637,1.4154,1.4433,1.4433,1.392,1.342,1.2929,1.342,1.3637,1.3637,1.3637,1.4003,1.4571,1.4479,1.4835,1.5454,1.5454,1.582,1.638,1.6466,1.6522,1.6522,1.6522,1.6522,1.6522,1.6522,1.6522,1.6522,1.6522,1.6522,1.6522,1.6522,1.6522,1.6595,1.7034,1.7626,1.8224,1.865,1.9244,1.969,1.969,1.9615,1.9375,1.8822,1.8104,1.7369,1.6816,1.6219,1.5799,1.5799,1.6313,1.6738,1.6789,1.7337,1.7726,1.7789,1.7811,1.7811,1.7811,1.7811,1.776,1.7642,1.705,1.6597,1.6394,1.5088,1.4056,1.343,1.3396,1.3445,1.3572,1.3601,1.3783,1.411,1.3969,1.4083,1.4399,1.427,1.4241,1.0207,1.0696,1.0912,1.0057,1.0622,1.132,1.1075,1.0792,0.0,0.0,0.0,0.0,0.0,0.0,1.1801,1.2811,1.33,1.3501,1.3389,1.3372,1.3286,1.2929,1.2881,1.2881,1.2881,1.2881,1.3065,1.3372,1.3055,1.32,1.3836,1.3826,1.3956,1.4283,1.4571,1.4698,1.4698,1.4732,1.4457,1.3884,1.4154,1.4283,1.4283,1.4283,1.4606,1.5186,1.4835,1.5242,1.6051,1.572,1.5952,1.6522,1.6522,1.6522,1.6522,1.6522,1.6522,1.6522,1.6522,1.6522,1.6522,1.6522,1.6522,1.6522,1.6522,1.6522,1.668,1.7504,1.7907,1.8224,1.8765,1.9281,1.969,1.969,1.969,1.96,1.9301,1.8717,1.8164,1.7832,1.7266,1.6832,1.6832,1.7428,1.7807,1.7412,1.7939,1.8251,1.7862,1.7811,1.7811,1.7811,1.7811,1.7811,1.7811,1.749,1.6842,1.5735,1.4941,1.4263,1.3684,1.3573,1.3588,1.3751,1.387,1.4011,1.4188,1.4232,1.4307,1.4506,1.4417,1.4411,1.0018,1.0307,1.0513,1.0517,1.1204,1.1951,1.2212,1.1852,1.1579,0.0,0.0,0.0,0.0,1.2917,1.3048,1.3883,1.4282,1.4376,1.405,1.4003,1.3826,1.3382,1.32,1.3104,1.3104,1.3104,1.3286,1.3779,1.3515,1.3695,1.4663,1.4422,1.4411,1.488,1.5062,1.5107,1.5107,1.5599,1.5466,1.4698,1.4835,1.4926,1.4926,1.4926,1.5242,1.5776,1.5332,1.5656,1.6466,1.6008,1.6095,1.6522,1.6522,1.6522,1.6522,1.6522,1.6522,1.6522,1.6522,1.6522,1.6522,1.6522,1.6595,1.668,1.668,1.6795,1.7076,1.8027,1.8302,1.8419,1.8968,1.9406,1.969,1.969,1.969,1.969,1.969,1.9166,1.8702,1.8702,1.8179,1.7715,1.7844,1.8452,1.8731,1.8258,1.8733,1.8894,1.8149,1.8065,1.7997,1.7828,1.7811,1.7833,1.7883,1.7883,1.7192,1.5574,1.5141,1.4709,1.4214,1.4029,1.3959,1.3969,1.4123,1.4214,1.427,1.4411,1.4488,1.4488,1.4488,1.4488,1.0355,1.032,1.0219,1.1232,1.091,1.0612,1.1628,1.1435,0.0,1.2808,0.0,0.0,0.0,1.3893,1.3817,1.3829,1.3841,1.405,1.456,1.4652,1.4617,1.4571,1.4097,1.3732,1.3732,1.3732,1.3732,1.3815,1.4294,1.4617,1.4698,1.5186,1.5499,1.5543,1.6107,1.638,1.638,1.6423,1.5832,1.4698,1.5276,1.5543,1.5543,1.5543,1.5864,1.6423,1.638,1.6423,1.6522,1.6466,1.6479,1.6522,1.6522,1.6522,1.6522,1.6522,1.6522,1.6522,1.6522,1.6522,1.6522,1.6522,1.6837,1.7229,1.7229,1.7585,1.8106,1.8688,1.8855,1.8968,1.9479,1.969,1.969,1.969,1.969,1.969,1.969,1.9166,1.8702,1.8702,1.8179,1.7844,1.8269,1.8677,1.9006,1.9318,1.9679,1.9647,1.891,1.8826,1.8555,1.7879,1.7811,1.7905,1.8146,1.8166,1.7969,1.7514,1.6719,1.5891,1.5038,1.4988,1.4741,1.4193,1.4188,1.4295,1.4476,1.4488,1.4488,1.4488,1.4488,1.4488,1.0006,1.0307,1.0596,1.1387,1.1846,0.0,0.0,1.2802,1.3281,1.45,1.4654,0.0,0.0,0.0,1.5054,1.5431,1.5141,1.5005,1.5231,1.5276,1.5096,1.4744,1.4514,1.4376,1.4376,1.4376,1.4514,1.4903,1.4778,1.5017,1.5788,1.5688,1.5776,1.6139,1.638,1.6522,1.6522,1.6522,1.625,1.5832,1.6051,1.6151,1.6151,1.6151,1.6281,1.6522,1.6522,1.6522,1.6522,1.6522,1.6522,1.6522,1.6522,1.6522,1.6522,1.6522,1.6522,1.6522,1.6522,1.6522,1.6522,1.6522,1.6879,1.7312,1.7312,1.7666,1.8224,1.8727,1.8893,1.9006,1.9566,1.969,1.969,1.969,1.969,1.969,1.969,1.9495,1.9316,1.9316,1.9334,1.9372,1.957,2.016,2.0466,2.0179,2.0492,2.0467,1.9688,1.9562,1.9316,1.8555,1.8082,1.7905,1.8166,1.8351,1.848,1.8516,1.7609,1.6805,1.624,1.6099,1.5749,1.5147,1.5129,1.4916,1.4488,1.4488,1.4488,1.4488,1.4488,1.4488,0.9541,1.0044,1.0618,1.1399,0.0,0.0,1.3636,1.4048,1.4664,1.5731,1.561,1.5367,1.5572,0.0,1.5732,1.6139,1.5864,1.5676,1.5864,1.5864,1.5732,1.5332,1.5107,1.4971,1.4971,1.4971,1.5152,1.5588,1.5377,1.5611,1.6479,1.6095,1.6051,1.6479,1.6522,1.6522,1.6522,1.6522,1.6522,1.6522,1.6522,1.6522,1.6522,1.6522,1.6522,1.6522,1.6522,1.6522,1.6522,1.6522,1.6522,1.6522,1.6522,1.6522,1.6522,1.6522,1.6522,1.6522,1.6522,1.6522,1.6522,1.671,1.7105,1.7585,1.7747,1.8185,1.8688,1.9043,1.9169,1.9244,1.9603,1.969,1.969,1.969,1.969,1.969,1.969,1.969,1.969,1.969,1.9909,2.0193,2.0483,2.1007,2.1327,2.1114,2.1334,2.1262,2.0483,2.0382,2.001,1.8995,1.8529,1.8275,1.8328,1.8566,1.8843,1.9086,1.846,1.7824,1.7298,1.7158,1.6634,1.571,1.5692,1.5307,1.4488,1.4488,1.4488,1.4488,1.4488,1.4522,0.91,0.9491,1.0194,1.1312,0.0,0.0,1.4664,1.4916,1.5191,1.6283,1.6522,1.6337,1.572,1.5588,1.5588,1.5632,1.5588,1.582,1.6423,1.6522,1.6522,1.6522,1.5952,1.5632,1.5632,1.5632,1.5632,1.5632,1.6151,1.6522,1.6522,1.6522,1.6522,1.6522,1.6522,1.6522,1.6522,1.6522,1.6522,1.6522,1.6522,1.6522,1.6522,1.6522,1.6522,1.6522,1.6522,1.6522,1.6522,1.6522,1.6522,1.6522,1.6522,1.6522,1.6522,1.6522,1.6522,1.6522,1.6522,1.6522,1.6595,1.7105,1.7666,1.8224,1.8727,1.9281,1.969,1.969,1.969,1.969,1.969,1.969,1.969,1.969,1.969,1.969,1.969,1.969,1.9726,1.9726,1.9711,1.998,2.0878,2.1007,2.1291,2.218,2.231,2.204,2.1295,2.1204,2.0602,1.908,1.9133,1.9108,1.8654,1.8861,1.9086,1.9289,1.9305,1.8941,1.8151,1.8115,1.7362,1.5747,1.571,1.5325,1.4524,1.4524,1.4524,1.4524,1.4506,1.4596,0.91,1.0095,1.1261,1.1989,0.0,0.0,0.0,1.5442,0.0,0.0,1.6522,1.6436,1.6281,1.5908,1.5732,1.6139,1.5864,1.582,1.6423,1.6522,1.6522,1.6522,1.6337,1.6238,1.6238,1.6238,1.6238,1.6238,1.638,1.6522,1.6522,1.6522,1.6522,1.6522,1.6522,1.6522,1.6522,1.6522,1.6522,1.6522,1.6522,1.6522,1.6522,1.6522,1.6522,1.6522,1.6522,1.6522,1.6522,1.6522,1.6522,1.6522,1.6522,1.6522,1.6522,1.6522,1.6522,1.6552,1.6909,1.7076,1.7146,1.7706,1.8224,1.8688,1.8855,1.9281,1.969,1.969,1.969,1.969,1.969,1.969,1.969,1.969,1.969,1.969,1.969,1.9909,2.0124,2.0124,2.0616,2.1102,2.1368,2.1705,2.202,2.2254,2.231,2.2226,2.2006,2.1515,2.1034,2.0577,1.9784,1.9317,1.9359,1.9147,1.9086,1.9289,1.9305,1.9179,1.8941,1.8941,1.8445,1.7417,1.7399,1.6995,1.6193,1.6193,1.6193,1.6193,1.6324,1.6418,0.9365,1.0634,1.2102,1.2868,1.4387,1.5756,1.5969,0.0,0.0,0.0,1.6522,1.6522,1.6522,1.6194,1.6095,1.6423,1.6182,1.6095,1.6466,1.6522,1.6522,1.6522,1.6522,1.6522,1.6522,1.6522,1.6522,1.6522,1.6522,1.6522,1.6522,1.6522,1.6522,1.6522,1.6522,1.6522,1.6522,1.6522,1.6522,1.6522,1.6522,1.6522,1.6522,1.6522,1.6522,1.6522,1.6522,1.6522,1.6522,1.6522,1.6522,1.6522,1.6522,1.6522,1.6522,1.6522,1.6637,1.6879,1.7188,1.7422,1.7706,1.8263,1.865,1.893,1.9169,1.9442,1.969,1.969,1.969,1.969,1.969,1.969,1.969,1.969,1.969,1.9747,1.9894,2.0124,2.0348,2.055,2.1007,2.1399,2.1582,2.1823,2.2077,2.2282,2.231,2.231,2.231,2.1904,2.1515,2.1237,2.0429,1.9843,1.9712,1.9345,1.9166,1.9289,1.9305,1.9305,1.9305,1.9305,1.8922,1.8115,1.8096,1.7697,1.6908,1.6908,1.693,1.7021,1.7132,1.7259,0.9755,1.1123,1.268,1.3808,1.4953,1.5906,1.6409,1.6522,1.6522,1.6522,1.6522,1.6522,1.6522,1.6522,1.6522,1.6522,1.6522,1.6522,1.6522,1.6522,1.6522,1.6522,1.6522,1.6522,1.6522,1.6522,1.6522,1.6522,1.6522,1.6522,1.6522,1.6522,1.6522,1.6522,1.6522,1.6522,1.6522,1.6522,1.6522,1.6522,1.6522,1.6522,1.6522,1.6522,1.6522,1.6522,1.6522,1.6522,1.6522,1.6522,1.6522,1.6522,1.6552,1.6552,1.6595,1.6637,1.6951,1.7394,1.7422,1.7747,1.8263,1.8817,1.8968,1.9043,1.9566,1.969,1.969,1.969,1.969,1.969,1.969,1.9726,1.9747,1.9747,1.9726,1.9803,2.0212,2.0348,2.0516,2.0959,2.1086,2.1213,2.1598,2.1658,2.1794,2.2237,2.231,2.231,2.231,2.231,2.204,2.14,2.1073,2.0625,1.9914,1.9576,1.9381,1.9289,1.9305,1.9305,1.9305,1.9305,1.8959,1.8225,1.8207,1.7858,1.7128,1.7142,1.723,1.7415,1.7449,1.7602,0.9755,1.1123,0.0,1.3808,1.5203,1.6371,1.6497,1.6522,1.6522,1.6522,1.6522,1.6522,1.6522,1.6522,1.6522,1.6522,1.6522,1.6522,1.6522,1.6522,1.6522,1.6522,1.6522,1.6522,1.6522,1.6522,1.6522,1.6522,1.6522,1.6522,1.6522,1.6522,1.6522,1.6522,1.6522,1.6522,1.6522,1.6522,1.6522,1.6522,1.6522,1.6522,1.6522,1.6522,1.6522,1.6522,1.6522,1.6522,1.6522,1.6522,1.6522,1.6552,1.6951,1.7105,1.7188,1.7585,1.7827,1.7987,1.8419,1.8612,1.8817,1.9369,1.953,1.9566,1.969,1.969,1.969,1.969,1.969,1.969,1.969,1.9929,2.0193,2.0193,1.9945,1.9803,2.0212,2.0583,2.0959,2.1399,2.1781,2.2049,2.2135,2.2135,2.218,2.2282,2.231,2.231,2.231,2.231,2.232,2.2375,2.1989,2.1533,2.0994,2.0516,1.9968,1.9326,1.9305,1.9305,1.9305,1.9305,1.9216,1.9051,1.9032,1.8959,1.8775,1.8953,1.9035,1.9087,1.9295,1.943,1.0006,1.1495,0.0,1.4827,0.0,1.6522,1.6522,1.6522,1.6522,1.6522,1.6522,1.6522,1.6522,1.6522,1.6522,1.6522,1.6522,1.6522,1.6522,1.6522,1.6522,1.6522,1.6522,1.6522,1.6522,1.6522,1.6522,1.6522,1.6522,1.6522,1.6522,1.6522,1.6522,1.6522,1.6522,1.6522,1.6522,1.6522,1.6522,1.6522,1.6522,1.6522,1.6522,1.6522,1.6522,1.6522,1.6522,1.6522,1.6522,1.6522,1.6522,1.6552,1.7076,1.7312,1.7353,1.7907,1.8263,1.8535,1.8817,1.908,1.9332,1.9603,1.969,1.969,1.969,1.969,1.969,1.969,1.969,1.969,1.969,2.0,2.0314,2.0314,2.0296,2.0431,2.0846,2.1102,2.1415,2.184,2.2135,2.231,2.231,2.231,2.231,2.231,2.231,2.231,2.231,2.231,2.2398,2.2669,2.2264,2.1963,2.1864,2.1407,2.0941,2.0535,2.0115,1.9877,1.9877,1.9491,1.9305,1.9305,1.9305,1.935,1.9438,1.9541,1.9656,1.979,1.9924,2.0041,1.0056,1.177,1.3699,1.5844,1.6446,0.0,1.6522,1.6522,1.6522,1.6522,1.6522,1.6522,1.6522,1.6522,1.6522,1.6522,1.6522,1.6522,1.6522,1.6522,1.6522,1.6522,1.6522,1.6522,1.6522,1.6522,1.6522,1.6522,1.6522,1.6522,1.6522,1.6522,1.6522,1.6522,1.6522,1.6522,1.6522,1.6522,1.6522,1.6522,1.6522,1.6522,1.6522,1.6522,1.6522,1.6522,1.6522,1.6552,1.6637,1.6637,1.668,1.6837,1.7394,1.7585,1.7626,1.8185,1.865,1.9043,1.9043,1.9332,1.969,1.969,1.969,1.969,1.969,1.969,1.969,1.969,1.969,1.969,1.969,2.007,2.0416,2.0416,2.0813,2.1291,2.1568,2.1582,2.1718,2.2209,2.231,2.231,2.231,2.231,2.231,2.231,2.231,2.2338,2.236,2.236,2.249,2.2848,2.2529,2.2371,2.2576,2.2227,2.195,2.1821,2.1125,2.0704,2.0704,1.9932,1.951,1.951,1.9363,1.9394,1.9614,1.9623,1.9762,1.9993,2.0031,2.0152,0.9138,0.0,1.3611,0.0,1.617,1.6522,0.0,0.0,1.6522,1.6522,1.6522,1.6522,1.6522,1.6522,1.6522,1.6522,1.6522,1.6522,1.6522,1.6522,1.6522,1.6522,1.6522,1.6522,1.6522,1.6522,1.6522,1.6522,1.6522,1.6522,1.6522,1.6522,1.6522,1.6522,1.6522,1.6522,1.6522,1.6522,1.6522,1.6522,1.6522,1.6522,1.6522,1.6522,1.6522,1.6522,1.6522,1.6752,1.7188,1.7188,1.7463,1.7947,1.8496,1.8688,1.8727,1.9281,1.953,1.9603,1.9603,1.9639,1.969,1.969,1.969,1.969,1.969,1.969,1.969,1.969,1.969,1.969,1.969,2.0311,2.0894,2.0894,2.1524,2.2032,2.1688,2.1582,2.1718,2.2209,2.231,2.231,2.231,2.231,2.231,2.231,2.231,2.2388,2.2625,2.2634,2.2873,2.35,2.3498,2.3319,2.2959,2.2887,2.2538,2.1839,2.1692,2.162,2.162,2.0794,2.0338,2.0338,1.9656,1.9394,1.9614,1.9732,1.9847,1.9993,2.0188,2.0277,1.0006,1.1826,1.3599,0.0,1.5881,1.6132,1.6446,1.6522,1.6522,1.6522,1.6522,1.6522,1.6522,1.6522,1.6522,1.6522,1.6522,1.6522,1.6522,1.6522,1.6522,1.6522,1.6522,1.6522,1.6522,1.6522,1.6522,1.6522,1.6522,1.6522,1.6522,1.6522,1.6522,1.6522,1.6522,1.6522,1.6522,1.6522,1.6522,1.6522,1.6522,1.668,1.6951,1.6951,1.6795,1.6522,1.6522,1.6795,1.7312,1.7312,1.7626,1.8145,1.8688,1.8893,1.8968,1.9479,1.969,1.969,1.969,1.969,1.969,1.969,1.969,1.969,1.969,1.969,1.969,1.969,1.969,1.969,1.969,2.0345,2.0991,2.0991,2.1661,2.2237,2.2032,2.2003,2.2032,2.2254,2.231,2.231,2.231,2.231,2.231,2.231,2.231,2.2415,2.2686,2.2695,2.2972,2.3628,2.3692,2.3692,2.3675,2.3676,2.3529,2.3162,2.2721,2.2464,2.2464,2.1675,2.1235,2.1235,1.995,1.9452,1.9701,1.9774,1.9931,2.0161,2.0269,2.0312,0.0,0.0,1.296,1.4651,1.5379,1.5806,0.0,0.0,1.6522,1.6522,1.6522,1.6522,1.6522,1.6522,1.6522,1.6522,1.6522,1.6522,1.6522,1.6522,1.6522,1.6522,1.6522,1.6522,1.6522,1.6522,1.6522,1.6522,1.6522,1.6522,1.6522,1.6522,1.6522,1.6522,1.6522,1.6522,1.6522,1.6522,1.6552,1.671,1.671,1.6993,1.7504,1.7504,1.7312,1.6909,1.6909,1.7105,1.7504,1.7666,1.8027,1.8535,1.8968,1.9095,1.9169,1.9566,1.969,1.969,1.969,1.969,1.969,1.969,1.969,1.969,1.969,1.969,1.969,1.969,1.969,1.9711,1.9854,2.0431,2.1039,2.1118,2.1751,2.231,2.231,2.231,2.231,2.231,2.231,2.231,2.231,2.231,2.231,2.231,2.231,2.2426,2.2772,2.2822,2.3093,2.3774,2.3816,2.3917,2.417,2.419,2.419,2.419,2.3639,2.3309,2.3309,2.252,2.2097,2.2097,2.0712,2.002,2.0111,1.9903,1.9981,2.0312,2.0312,2.0312,0.0,1.0408,0.0,1.291,1.4538,1.5706,0.0,1.6132,1.6522,1.6522,1.6522,1.6522,1.6522,1.6522,1.6522,1.6522,1.6522,1.6522,1.6522,1.6522,1.6522,1.6522,1.6522,1.6522,1.6522,1.6522,1.6522,1.6522,1.6522,1.6522,1.6522,1.6522,1.6522,1.6522,1.6522,1.6522,1.6522,1.6522,1.6752,1.7271,1.7271,1.7544,1.8066,1.8066,1.8027,1.8027,1.8027,1.8027,1.8106,1.8612,1.9132,1.9603,1.9639,1.9639,1.9639,1.969,1.969,1.969,1.969,1.969,1.969,1.969,1.969,1.969,1.969,1.969,1.969,1.969,1.969,1.9782,2.0158,2.0616,2.1103,2.1491,2.1928,2.231,2.231,2.231,2.231,2.231,2.231,2.231,2.231,2.231,2.231,2.231,2.231,2.2508,2.3111,2.3165,2.3414,2.4094,2.417,2.417,2.419,2.419,2.419,2.419,2.4153,2.4135,2.4135,2.3382,2.2942,2.2942,2.224,2.1559,2.0947,2.0167,1.9981,2.0312,2.0312,2.0312,0.8695,0.0,0.0,1.1939,1.3157,1.4212,1.4601,1.5341,1.5994,1.5994,1.6271,1.6522,1.6522,1.6522,1.6522,1.6522,1.6522,1.6522,1.6522,1.6522,1.6522,1.6522,1.6522,1.6522,1.6522,1.6522,1.6522,1.6522,1.6522,1.6522,1.6522,1.6522,1.6522,1.6522,1.6837,1.7188,1.7504,1.7544,1.7626,1.7827,1.7827,1.8106,1.8612,1.8612,1.8612,1.8612,1.8968,1.893,1.8612,1.8817,1.9207,1.969,1.969,1.969,1.969,1.969,1.969,1.969,1.969,1.969,1.969,1.969,1.969,1.969,1.969,1.969,1.969,1.969,1.9874,2.0124,2.0246,2.083,2.1507,2.1928,2.218,2.231,2.231,2.231,2.231,2.231,2.231,2.231,2.231,2.231,2.231,2.231,2.231,2.2426,2.2822,2.3069,2.3369,2.3816,2.4074,2.419,2.419,2.419,2.419,2.419,2.419,2.419,2.419,2.3914,2.3824,2.3966,2.3231,2.2233,2.1004,2.0827,2.0594,2.0312,2.0312,2.0312,0.8519,0.9485,0.0,0.0,1.2329,1.3144,1.3921,1.4651,1.5254,1.5618,1.5982,1.6296,1.6484,1.6522,1.6522,1.6522,1.6522,1.6522,1.6522,1.6522,1.6522,1.6522,1.6522,1.6522,1.6522,1.6522,1.6522,1.6522,1.6522,1.6522,1.6522,1.6522,1.6595,1.6752,1.7312,1.7747,1.8106,1.8106,1.8185,1.838,1.838,1.865,1.9169,1.9169,1.9169,1.9207,1.9566,1.9406,1.8893,1.9095,1.9369,1.969,1.969,1.969,1.969,1.969,1.969,1.969,1.969,1.969,1.969,1.969,1.969,1.969,1.969,1.969,1.969,1.969,2.0,2.0348,2.0483,2.1165,2.1899,2.2225,2.231,2.231,2.231,2.231,2.231,2.231,2.231,2.231,2.231,2.231,2.231,2.231,2.231,2.2415,2.2686,2.2996,2.3346,2.3671,2.3996,2.419,2.419,2.419,2.419,2.419,2.419,2.419,2.419,2.419,2.4284,2.4495,2.4036,2.3182,2.194,2.1505,2.1082,2.0696,2.0427,2.0312,0.0,0.0,0.0,0.0,0.0,0.0,1.3745,1.4022,1.4349,1.5392,1.563,1.5819,1.6384,1.6497,1.6497,1.6522,1.6522,1.6522,1.6522,1.6522,1.6522,1.6522,1.6522,1.6522,1.6522,1.6522,1.6522,1.6522,1.6522,1.6522,1.6522,1.6522,1.6795,1.7353,1.7867,1.8145,1.8145,1.8145,1.8419,1.893,1.893,1.9207,1.969,1.969,1.969,1.969,1.969,1.9406,1.8968,1.9479,1.969,1.969,1.969,1.969,1.969,1.969,1.969,1.969,1.969,1.969,1.969,1.969,1.969,1.969,1.969,1.969,1.969,1.9711,2.0,2.0449,2.0926,2.1661,2.231,2.231,2.231,2.231,2.231,2.231,2.231,2.231,2.231,2.231,2.231,2.231,2.231,2.231,2.231,2.2371,2.2643,2.2972,2.3305,2.3649,2.3996,2.419,2.419,2.419,2.419,2.419,2.419,2.419,2.419,2.4227,2.4303,2.4512,2.47,2.449,2.3835,2.2187,2.1417,2.1485,2.0677,2.0312,0.9136,0.0,0.0,0.0,0.0,0.0,1.1575,1.2278,1.3057,1.3736,1.4224,1.484,1.5743,1.5919,1.6057,1.6459,1.6522,1.6522,1.6522,1.6522,1.6522,1.6522,1.6522,1.6522,1.6522,1.6522,1.6522,1.6522,1.6522,1.6522,1.6522,1.6879,1.7504,1.8419,1.8612,1.8855,1.9244,1.9244,1.9332,1.9479,1.9479,1.9566,1.969,1.969,1.969,1.969,1.969,1.9603,1.9479,1.9639,1.969,1.969,1.969,1.969,1.969,1.969,1.969,1.969,1.969,1.969,1.969,1.969,1.969,1.969,1.969,1.969,1.9747,2.0054,2.0449,2.0991,2.1751,2.2123,2.231,2.231,2.231,2.231,2.231,2.231,2.231,2.231,2.231,2.231,2.231,2.231,2.231,2.231,2.231,2.2338,2.2398,2.2652,2.2972,2.3282,2.3649,2.3937,2.417,2.419,2.419,2.419,2.419,2.419,2.419,2.4339,2.4512,2.4716,2.4864,2.4915,2.4887,2.3842,2.2708,2.1485,2.0677,2.0312,1.0337,1.0814,1.1329,1.0978,0.0,0.0,1.1577,1.1968,1.2551,1.3621,1.3966,1.4423,1.5414,1.5461,1.561,1.6319,1.6296,1.6258,1.6484,1.6522,1.6522,1.6522,1.6522,1.6522,1.6522,1.6522,1.6522,1.6522,1.671,1.6837,1.6837,1.7544,1.8145,1.8535,1.9006,1.9369,1.969,1.969,1.969,1.969,1.969,1.969,1.969,1.969,1.969,1.969,1.969,1.969,1.969,1.969,1.969,1.969,1.969,1.969,1.969,1.969,1.969,1.969,1.969,1.969,1.969,1.969,1.969,1.969,1.969,1.969,1.9782,2.0193,2.0748,2.1415,2.2123,2.231,2.231,2.231,2.231,2.231,2.231,2.231,2.231,2.231,2.231,2.231,2.231,2.231,2.231,2.231,2.231,2.231,2.231,2.2537,2.2822,2.3165,2.35,2.3855,2.417,2.419,2.419,2.419,2.419,2.419,2.419,2.4321,2.4512,2.479,2.4883,2.503,2.5303,2.4485,2.3206,2.1485,2.0677,2.0312,1.2007,1.2355,1.2802,1.2775,1.2454,0.0,1.2753,1.2476,1.2522,1.3993,1.4046,1.4075,1.5042,1.4965,1.5082,1.6023,1.5994,1.6046,1.6519,1.6595,1.6595,1.6595,1.6637,1.6637,1.6595,1.6637,1.668,1.668,1.7105,1.7435,1.7463,1.838,1.8688,1.8302,1.9207,1.969,1.969,1.969,1.969,1.969,1.969,1.969,1.969,1.969,1.969,1.969,1.969,1.969,1.969,1.969,1.969,1.969,1.969,1.969,1.969,1.969,1.969,1.969,1.969,1.969,1.969,1.969,1.969,1.969,1.969,1.969,1.9782,2.0261,2.0975,2.1718,2.218,2.231,2.231,2.231,2.231,2.231,2.231,2.231,2.231,2.231,2.231,2.231,2.231,2.231,2.231,2.231,2.231,2.231,2.2349,2.2563,2.2848,2.323,2.3522,2.3855,2.417,2.419,2.419,2.419,2.419,2.419,2.419,2.4228,2.441,2.479,2.4847,2.4987,2.5303,2.4485,2.3263,2.162,2.0812,2.0389,1.2825,1.2836,1.2802,1.3113,1.3303,0.0,1.2319,1.2375,1.2499,1.1998,1.1801,1.2099,1.3187,1.3795,1.4383,1.5281,1.6207,1.6914,1.7109,1.7146,1.7146,1.7146,1.7544,1.7626,1.7188,1.7544,1.7787,1.7787,1.7867,1.8145,1.8574,1.8779,1.9043,1.9369,1.9603,1.969,1.969,1.969,1.969,1.969,1.969,1.969,1.969,1.969,1.969,1.969,1.969,1.969,1.969,1.969,1.969,1.969,1.969,1.969,1.969,1.969,1.969,1.969,1.969,1.969,1.969,1.969,1.969,1.969,1.969,1.969,1.9839,2.0632,2.1213,2.1718,2.218,2.231,2.231,2.231,2.231,2.231,2.231,2.231,2.231,2.231,2.231,2.231,2.231,2.231,2.231,2.231,2.231,2.2388,2.2599,2.2686,2.2923,2.3544,2.3671,2.3855,2.417,2.419,2.419,2.419,2.419,2.419,2.419,2.4357,2.4543,2.479,2.5049,2.5233,2.5303,2.4485,2.3571,2.2524,2.1677,2.0927,1.3429,1.3456,1.3649,1.3927,1.3984,0.0,0.0,1.3301,1.3036,1.3108,1.2442,1.2182,1.3293,1.3625,1.4002,1.4957,1.5717,1.6299,1.6601,1.727,1.7558,1.7222,1.7716,1.7987,1.7747,1.7947,1.8224,1.8496,1.8496,1.8612,1.8893,1.9169,1.9281,1.9281,1.9566,1.969,1.969,1.969,1.969,1.969,1.969,1.969,1.969,1.969,1.969,1.969,1.969,1.969,1.969,1.969,1.969,1.969,1.969,1.969,1.969,1.969,1.969,1.969,1.969,1.969,1.969,1.969,1.969,1.969,1.969,1.9839,2.0139,2.0797,2.1275,2.1718,2.218,2.231,2.231,2.231,2.231,2.231,2.231,2.231,2.231,2.231,2.231,2.231,2.231,2.231,2.231,2.231,2.231,2.2415,2.2686,2.2695,2.2972,2.3628,2.3692,2.3855,2.417,2.419,2.419,2.419,2.419,2.419,2.419,2.4303,2.4495,2.479,2.5126,2.5303,2.5303,2.4909,2.4274,2.3417,2.21,2.1273,1.4164,1.436,1.4851,1.4822,1.4809,1.4834,0.0,0.0,0.0,1.4602,1.3643,1.2914,1.3784,1.3685,1.3752,1.4629,1.5114,1.5445,1.5566,1.6873,1.759,1.6941,1.7576,1.8033,1.8068,1.8061,1.8318,1.8991,1.8811,1.8796,1.9029,1.9442,1.9479,1.908,1.9479,1.969,1.969,1.969,1.969,1.969,1.969,1.969,1.969,1.969,1.969,1.969,1.969,1.969,1.969,1.969,1.969,1.969,1.969,1.969,1.969,1.969,1.969,1.969,1.969,1.969,1.969,1.969,1.969,1.9711,1.9782,2.0035,2.0416,2.0959,2.1337,2.1718,2.218,2.231,2.231,2.231,2.231,2.231,2.231,2.231,2.231,2.231,2.231,2.231,2.231,2.231,2.231,2.231,2.231,2.2415,2.2746,2.2797,2.3045,2.3714,2.3795,2.3917,2.417,2.419,2.419,2.419,2.419,2.419,2.419,2.4266,2.4461,2.479,2.5126,2.5303,2.5303,2.5303,2.4889,2.4072,2.2658,2.1812,1.533,1.5694,1.5965,1.5373,1.6264,1.6766,1.4718,0.0,1.5119,1.3772,0.0,1.326,1.3385,0.0,0.0,1.3875,1.4956,1.5357,1.4225,1.5684,1.6679,1.6188,1.7082,1.7778,1.7928,1.7812,1.8248,1.9513,1.8495,1.8346,1.9543,1.969,1.969,1.9603,1.969,1.969,1.969,1.969,1.969,1.969,1.969,1.969,1.969,1.969,1.969,1.969,1.969,1.969,1.969,1.969,1.969,1.969,1.969,1.969,1.969,1.969,1.969,1.969,1.969,1.969,1.969,1.969,1.969,1.9782,2.0124,2.028,2.0467,2.129,2.1552,2.1718,2.218,2.231,2.231,2.231,2.231,2.231,2.231,2.231,2.231,2.231,2.231,2.231,2.231,2.231,2.231,2.231,2.231,2.2508,2.3069,2.3141,2.3392,2.4074,2.4151,2.417,2.4208,2.419,2.419,2.419,2.419,2.419,2.419,2.4526,2.476,2.4804,2.5126,2.5303,2.5303,2.5303,2.4889,2.411,2.3898,2.2985,1.5235,1.5297,1.5568,1.5817,1.6095,1.6192,1.571,1.5416,1.5114,1.4809,0.0,0.0,0.0,0.0,0.0,0.0,1.4274,1.4303,1.3346,1.4274,1.5236,1.5816,1.6292,1.6754,1.7151,1.7136,1.7503,1.8478,1.8029,1.8134,1.9076,1.948,1.969,1.969,1.969,1.969,1.969,1.969,1.969,1.969,1.969,1.969,1.969,1.969,1.969,1.969,1.969,1.969,1.969,1.969,1.969,1.969,1.969,1.969,1.969,1.969,1.969,1.969,1.969,1.969,1.969,1.969,1.969,1.9782,2.0193,2.0314,2.0467,2.1352,2.1582,2.1718,2.218,2.231,2.231,2.231,2.231,2.231,2.231,2.231,2.231,2.231,2.231,2.231,2.231,2.231,2.231,2.231,2.231,2.2508,2.3117,2.3189,2.3477,2.4132,2.419,2.419,2.419,2.419,2.419,2.419,2.419,2.419,2.419,2.4594,2.4804,2.4804,2.5126,2.5303,2.5303,2.5303,2.5139,2.4793,2.4322,2.3706,1.5429,1.5541,1.584,1.6032,1.6,1.6,1.6226,1.5787,1.547,1.5949,1.5426,0.0,0.0,0.0,0.0,0.0,0.0,1.372,1.2658,1.3092,1.3959,1.5124,1.571,1.6144,1.6428,1.6278,1.6532,1.7354,1.7085,1.7445,1.8642,1.9151,1.9495,1.9675,1.969,1.969,1.969,1.969,1.969,1.969,1.969,1.969,1.969,1.969,1.969,1.969,1.969,1.969,1.969,1.969,1.969,1.969,1.969,1.969,1.969,1.969,1.969,1.969,1.969,1.969,1.969,1.969,1.969,1.9782,2.033,2.0483,2.0682,2.1568,2.1794,2.1869,2.2209,2.231,2.231,2.231,2.231,2.231,2.231,2.231,2.231,2.231,2.231,2.231,2.231,2.231,2.231,2.231,2.231,2.2508,2.3117,2.3189,2.3477,2.4132,2.419,2.419,2.419,2.419,2.419,2.419,2.419,2.419,2.419,2.4545,2.4746,2.4804,2.5091,2.5234,2.5303,2.5303,2.5303,2.5284,2.4697,2.4322,1.6471,1.7218,1.7605,1.5936,1.6564,1.7181,1.5543,1.5933,1.6652,1.6682,1.716,1.7578,1.7593,1.7055,0.0,0.0,0.0,0.0,0.0,1.2426,1.3077,1.3795,1.5532,1.6443,1.5888,1.5231,1.5381,1.6652,1.5605,1.6009,1.8568,1.8732,1.9031,1.966,1.969,1.969,1.969,1.969,1.969,1.969,1.969,1.969,1.969,1.969,1.969,1.969,1.969,1.969,1.969,1.969,1.969,1.969,1.969,1.969,1.969,1.969,1.969,1.969,1.969,1.969,1.969,1.969,1.969,1.9854,2.0698,2.0959,2.1166,2.202,2.2282,2.2282,2.2282,2.231,2.231,2.231,2.231,2.231,2.231,2.231,2.231,2.231,2.231,2.231,2.231,2.231,2.231,2.231,2.231,2.2508,2.3117,2.3189,2.3477,2.4132,2.419,2.419,2.419,2.419,2.419,2.419,2.419,2.419,2.419,2.441,2.4591,2.4804,2.4943,2.5099,2.5303,2.5303,2.5303,2.5303,2.5264,2.4832,1.7034,1.7544,1.7951,1.7246,1.7135,1.7005,1.6316,1.6456,1.6712,1.6712,1.7234,1.7697,1.7697,1.716,0.0,0.0,0.0,0.0,0.0,1.2666,1.2891,1.3107,1.4498,1.5007,1.3925,1.442,1.4977,1.5426,1.5441,1.6204,1.7969,1.8463,1.9016,1.966,1.969,1.969,1.969,1.969,1.969,1.969,1.969,1.969,1.969,1.969,1.969,1.969,1.969,1.969,1.969,1.969,1.969,1.969,1.969,1.969,1.969,1.969,1.969,1.969,1.969,1.969,1.969,1.969,1.9874,2.0227,2.0829,2.1181,2.1538,2.2135,2.231,2.231,2.231,2.231,2.231,2.231,2.231,2.231,2.231,2.231,2.231,2.231,2.231,2.231,2.231,2.231,2.231,2.231,2.231,2.2426,2.2822,2.3069,2.3369,2.3816,2.4074,2.419,2.419,2.419,2.419,2.419,2.419,2.419,2.419,2.4393,2.4545,2.4591,2.4858,2.5034,2.5099,2.5243,2.5303,2.5303,2.5303,2.5149,1.7544,1.7987,1.8303,1.7992,1.7725,1.7466,1.7141,1.7234,1.7413,1.7413,1.7936,1.8418,1.8418,1.7847,0.0,0.0,0.0,0.0,0.0,1.2801,1.2711,1.2486,1.3615,1.4094,1.3226,1.3496,1.4019,1.4737,1.4764,1.5485,1.7249,1.7999,1.8657,1.9316,1.957,1.969,1.969,1.969,1.969,1.969,1.969,1.969,1.969,1.969,1.969,1.969,1.969,1.969,1.969,1.969,1.969,1.969,1.969,1.969,1.969,1.969,1.969,1.969,1.969,1.969,1.969,1.969,1.9965,2.0382,2.0862,2.1275,2.1688,2.218,2.231,2.231,2.231,2.231,2.231,2.231,2.231,2.231,2.231,2.231,2.231,2.231,2.231,2.231,2.231,2.231,2.231,2.231,2.231,2.2415,2.2686,2.2898,2.3189,2.3649,2.3896,2.4074,2.419,2.419,2.419,2.419,2.419,2.419,2.419,2.4321,2.4428,2.4495,2.478,2.4949,2.501,2.5203,2.5303,2.5303,2.5303,2.5303]}]]